[[{"header":{"parameterUnit":"m.s-1","parameterCategory":1,"la1":31.0,"la2":29.5877,"lo1":-88.7671,"lo2":-86.6584,"dy":0.0162,"dx":0.0185,"nx":115,"ny":88,"refTime":"2023-08-07T12:00:00:Z","depth":0,"parameterNumber":2,"parameterNumberName":"U-component_of_WINDS"},"data":[0.0,0.0,0.0,0.0,0.0,0.0,0.0,0.0,0.0,0.0,0.0,0.0,0.0,0.0,0.0,0.0,0.0,0.0,0.0,0.0,0.0,0.0,0.0,0.0,0.0,0.0,0.0,0.0,0.0,0.0,0.0,0.0,0.0,0.0,0.0,0.0,0.0,0.0,0.0,0.0,0.0,0.0,0.0,0.0,0.0,0.0,0.0,0.0,0.0,0.0,0.0,0.0,0.0,0.0,0.0,0.0,0.0,0.0,0.0,0.0,0.0,0.0,0.0,0.0,0.0,0.0,0.0,0.0,0.0,0.0,0.0,0.0,0.0,0.0,0.0,0.0,0.0,0.0,0.0,0.0,0.0,0.0,0.0,0.0,0.0,0.0,0.0,0.0,0.0,0.0,0.0,0.0,0.0,0.0,0.0,0.0,0.0,0.0,0.0,0.0,0.0,0.0,0.0,0.0,0.0,0.0,0.0,0.0,0.0,0.0,0.0,0.0,0.0,0.0,0.0,0.0,0.0,0.0,0.0,0.0,0.0,0.0,0.0,0.0,0.0,0.0,0.0,0.0,0.0,0.0,0.0,0.0,0.0,0.0,0.0,0.0,0.0,0.0,0.0,0.0,0.0,0.0,0.0,0.0,0.0,0.0,0.0,0.0,0.0,0.0,0.0,0.0,0.0,0.0,0.0,0.0,0.0,0.0,0.0,0.0,0.0,0.0,0.0,0.0,0.0,0.0,0.0,0.0,0.0,0.0,0.0,0.0,0.0,0.0,0.0,0.0,0.0,0.0,0.0,0.0,0.0,0.0,0.0,0.0,0.0,0.0,0.0,0.0,0.0,0.0,0.0,0.0,0.0,0.0,0.0,0.0,0.0,0.0,0.0,0.0,0.0,0.0,0.0,0.0,0.0,0.0,0.0,0.0,0.0,0.0,0.0,0.0,0.0,0.0,0.0,0.0,0.0,0.0,0.0,0.0,0.0,0.0,0.0,0.0,0.0,0.0,0.0,0.0,0.0,0.0,0.0,0.0,0.0,0.0,0.0,0.0,0.0,0.0,0.0,0.0,0.0,0.0,0.0,0.0,0.0,0.0,0.0,0.0,0.0,0.0,0.0,0.0,0.0,0.0,0.0,0.0,0.0,0.0,0.0,0.0,0.0,0.0,0.0,0.0,0.0,0.0,0.0,0.0,0.0,0.0,0.0,0.0,0.0,0.0,0.0,0.0,0.0,0.0,0.0,0.0,0.0,0.0,0.0,0.0,0.0,0.0,0.0,0.0,0.0,0.0,0.0,0.0,0.0,0.0,0.0,0.0,0.0,0.0,0.0,0.0,0.0,0.0,0.0,0.0,0.0,0.0,0.0,0.0,0.0,0.0,0.0,0.0,0.0,0.0,0.0,0.0,0.0,0.0,0.0,0.0,0.0,0.0,0.0,0.0,0.0,0.0,0.0,0.0,0.0,0.0,0.0,0.0,0.0,0.0,0.0,0.0,0.0,0.0,0.0,0.0,0.0,0.0,0.0,0.0,0.0,0.0,0.0,0.0,0.0,0.0,0.0,0.0,0.0,0.0,0.0,0.0,0.0,0.0,0.0,0.0,0.0,0.0,0.0,0.0,0.0,0.0,0.0,0.0,0.0,0.0,0.0,0.0,0.0,0.0,0.0,0.0,0.0,0.0,0.0,0.0,0.0,0.0,0.0,0.0,0.0,0.0,0.0,0.0,0.0,0.0,0.0,0.0,0.0,0.0,0.0,0.0,0.0,0.0,0.0,0.0,0.0,0.0,0.0,0.0,0.0,0.0,0.0,0.0,0.0,0.0,0.0,0.0,0.0,0.0,0.0,0.0,0.0,0.0,0.0,0.0,0.0,0.0,0.0,0.0,0.0,0.0,0.0,0.0,0.0,0.0,0.0,0.0,0.0,0.0,0.0,0.0,0.0,0.0,0.0,0.0,0.0,0.0,0.0,0.0,0.0,0.0,0.0,0.0,0.0,0.0,0.0,0.0,0.0,0.0,0.0,0.0,0.0,0.0,0.0,0.0,0.0,0.0,0.0,0.0,0.0,0.0,0.0,0.0,0.0,0.0,0.0,0.0,0.0,0.0,0.0,0.0,0.0,0.0,0.0,0.0,0.0,0.0,0.0,0.0,0.0,0.0,0.0,0.0,0.0,0.0,0.0,0.0,0.0,0.0,0.0,0.0,0.0,0.0,0.0,0.0,0.0,0.0,0.0,0.0,0.0,0.0,0.0,0.0,0.0,0.0,0.0,0.0,0.0,0.0,0.0,0.0,0.0,0.0,0.0,0.0,0.0,0.0,0.0,0.0,0.0,0.0,0.0,0.0,0.0,0.0,0.0,0.0,0.0,0.0,0.0,0.0,0.0,0.0,0.0,0.0,0.0,0.0,0.0,0.0,0.0,0.0,0.0,0.0,0.0,0.0,0.0,0.0,0.0,0.0,0.0,0.0,0.0,0.0,0.0,0.0,0.0,0.0,0.0,0.0,0.0,0.0,0.0,0.0,0.0,0.0,0.0,0.0,0.0,0.0,0.0,0.0,0.0,0.0,0.0,0.0,0.0,0.0,0.0,0.0,0.0,0.0,0.0,0.0,0.0,0.0,0.0,0.0,0.0,0.0,0.0,0.0,0.0,0.0,0.0,0.0,0.0,0.0,0.0,0.0,0.0,0.0,0.0,0.0,0.0,0.0,0.0,0.0,0.0,0.0,0.0,0.0,0.0,0.0,0.0,0.0,0.0,0.0,0.0,0.0,0.0,0.0,0.0,0.0,0.0,0.0,0.0,0.0,0.0,0.0,0.0,0.0,0.0,0.0,0.0,0.0,0.0,0.0,0.0,0.0,0.0,0.0,0.0,0.0,0.0,0.0,0.0,0.0,0.0,0.0,0.0,0.0,0.0,0.0,0.0,0.0,0.0,0.0,0.0,0.0,0.0,0.0,0.0,0.0,0.0,0.0,0.0,0.0,0.0,0.0,0.0,0.0,0.0,0.0,0.0,0.0,0.0,0.0,0.0,0.0,0.0,0.0,0.0,0.0,0.0,0.0,0.0,0.0,0.0,0.0,0.0,0.0,0.0,0.0,0.0,0.0,0.0,0.0,0.0,0.0,0.0,0.0,0.0,0.0,0.0,0.0,0.0,0.0,0.0,0.0,0.0,0.0,0.0,0.0,0.0,0.0,0.0,0.0,0.0,0.0,0.0,0.0,0.0,0.0,0.0,0.0,0.0,0.0,0.0,0.0,0.0,0.0,0.0,0.0,0.0,0.0,0.0,0.0,0.0,0.0,0.0,0.0,0.0,0.0,0.0,0.0,0.0,0.0,0.0,0.0,0.0,0.0,0.0,0.0,0.0,0.0,0.0,0.0,0.0,0.0,0.0,0.0,0.0,0.0,0.0,0.0,0.0,0.0,0.0,0.0,0.0,0.0,0.0,0.0,0.0,0.0,0.0,0.0,0.0,0.0,0.0,0.0,0.0,0.0,0.0,0.0,0.0,0.0,0.0,0.0,0.0,0.0,0.0,0.0,0.0,0.0,0.0,0.0,0.0,0.0,0.0,0.0,0.0,0.0,0.0,0.0,0.0,0.0,0.0,0.0,0.0,0.0,0.0,0.0,0.0,0.0,0.0,0.0,0.0,0.0,0.0,0.0,0.0,0.0,0.0,0.0,0.0,0.0,0.0,0.0,0.0,0.0,0.0,0.0,0.0,0.0,0.0,0.0,0.0,0.0,0.0,0.0,0.0,0.0,0.0,0.0,0.0,0.0,0.0,0.0,0.0,0.0,0.0,0.0,0.0,0.0,0.0,0.0,0.0,0.0,0.0,0.0,0.0,0.0,0.0,0.0,0.0,0.0,0.0,0.0,0.0,0.0,0.0,0.0,0.0,0.0,0.0,0.0,0.0,0.0,0.0,0.0,0.0,0.0,0.0,0.0,0.0,0.0,0.0,0.0,0.0,0.0,0.0,0.0,0.0,0.0,0.0,0.0,0.0,0.0,0.0,0.0,0.0,0.0,0.0,0.0,0.0,0.0,0.0,0.0,0.0,0.0,0.0,0.0,0.0,0.0,0.0,0.0,0.0,0.0,0.0,0.0,0.0,0.0,0.0,0.0,0.0,0.0,0.0,0.0,0.0,0.0,0.0,0.0,0.0,0.0,0.0,0.0,0.0,0.0,0.0,0.0,0.0,0.0,0.0,0.0,0.0,0.0,0.0,0.0,0.0,0.0,0.0,0.0,0.0,0.0,0.0,0.0,0.0,0.0,0.0,0.0,-2.0585,0.0,0.0,0.0,0.0,0.0,0.0,0.0,0.0,0.0,0.0,0.0,0.0,0.0,0.0,0.0,0.0,0.0,0.0,0.0,0.0,0.0,0.0,0.0,0.0,0.0,0.0,0.0,0.0,0.0,0.0,0.0,0.0,0.0,0.0,0.0,0.0,0.0,0.0,0.0,0.0,0.0,0.0,0.0,0.0,0.0,0.0,0.0,0.0,0.0,0.0,0.0,0.0,0.0,0.0,0.0,0.0,0.0,0.0,0.0,0.0,0.0,0.0,0.0,0.0,0.0,0.0,0.0,0.0,0.0,0.0,0.0,0.0,0.0,0.0,0.0,0.0,0.0,0.0,0.0,0.0,0.0,0.0,0.0,0.0,0.0,0.0,0.0,0.0,0.0,0.0,0.0,0.0,0.0,0.0,0.0,0.0,0.0,0.0,0.0,0.0,0.0,0.0,0.0,0.0,0.0,0.0,0.0,0.0,0.0,0.0,-2.0507,-2.0508,-2.0566,-2.0605,-2.0601,0.0,0.0,0.0,0.0,0.0,0.0,0.0,0.0,0.0,0.0,0.0,0.0,0.0,0.0,0.0,0.0,0.0,0.0,0.0,0.0,0.0,0.0,0.0,0.0,0.0,0.0,0.0,0.0,0.0,0.0,0.0,0.0,0.0,0.0,0.0,0.0,0.0,0.0,0.0,0.0,0.0,0.0,0.0,0.0,0.0,0.0,0.0,0.0,0.0,0.0,0.0,0.0,0.0,0.0,0.0,0.0,0.0,0.0,0.0,0.0,0.0,0.0,0.0,0.0,0.0,0.0,0.0,0.0,0.0,0.0,0.0,0.0,0.0,0.0,0.0,0.0,0.0,0.0,0.0,0.0,0.0,0.0,0.0,0.0,0.0,0.0,0.0,0.0,0.0,0.0,0.0,0.0,0.0,0.0,0.0,0.0,0.0,0.0,0.0,0.0,0.0,0.0,0.0,0.0,0.0,0.0,0.0,0.0,0.0,0.0,0.0,0.0,-2.1443,-2.1443,-2.1434,0.0,0.0,0.0,0.0,0.0,0.0,0.0,0.0,0.0,0.0,0.0,0.0,0.0,0.0,0.0,0.0,0.0,0.0,0.0,0.0,0.0,0.0,0.0,0.0,0.0,0.0,0.0,0.0,0.0,0.0,0.0,0.0,0.0,0.0,0.0,0.0,0.0,0.0,0.0,0.0,0.0,0.0,0.0,0.0,0.0,0.0,0.0,0.0,0.0,0.0,0.0,0.0,0.0,0.0,0.0,0.0,0.0,0.0,0.0,0.0,0.0,0.0,0.0,0.0,0.0,0.0,0.0,0.0,0.0,0.0,0.0,0.0,0.0,0.0,0.0,0.0,0.0,0.0,0.0,0.0,0.0,0.0,0.0,0.0,0.0,0.0,0.0,0.0,0.0,0.0,0.0,0.0,0.0,0.0,0.0,0.0,0.0,0.0,0.0,0.0,0.0,0.0,0.0,0.0,0.0,0.0,0.0,0.0,0.0,0.0,-2.1633,-2.395,-2.4032,0.0,-2.3913,0.0,0.0,0.0,0.0,0.0,0.0,0.0,0.0,0.0,0.0,0.0,0.0,0.0,0.0,0.0,0.0,0.0,0.0,0.0,0.0,0.0,0.0,0.0,0.0,0.0,0.0,0.0,0.0,0.0,0.0,0.0,0.0,0.0,0.0,0.0,0.0,0.0,0.0,0.0,0.0,0.0,0.0,0.0,0.0,0.0,0.0,0.0,0.0,0.0,0.0,0.0,0.0,0.0,0.0,0.0,0.0,0.0,0.0,0.0,0.0,0.0,0.0,0.0,0.0,0.0,0.0,0.0,0.0,0.0,0.0,0.0,0.0,0.0,0.0,0.0,0.0,0.0,0.0,0.0,0.0,0.0,0.0,0.0,0.0,0.0,0.0,0.0,0.0,0.0,0.0,0.0,0.0,0.0,0.0,0.0,0.0,0.0,0.0,0.0,0.0,0.0,0.0,0.0,0.0,0.0,0.0,0.0,0.0,0.0,0.0,-2.3208,-2.4258,-2.4272,-2.4038,0.0,0.0,0.0,0.0,0.0,0.0,0.0,0.0,0.0,0.0,0.0,0.0,0.0,0.0,0.0,0.0,0.0,0.0,0.0,0.0,0.0,0.0,0.0,0.0,0.0,0.0,0.0,0.0,0.0,0.0,0.0,0.0,0.0,0.0,0.0,0.0,0.0,0.0,0.0,0.0,0.0,0.0,0.0,0.0,0.0,0.0,0.0,0.0,0.0,0.0,0.0,0.0,0.0,0.0,0.0,0.0,0.0,0.0,0.0,0.0,0.0,0.0,0.0,0.0,0.0,0.0,0.0,0.0,0.0,0.0,0.0,0.0,0.0,0.0,0.0,0.0,0.0,0.0,0.0,0.0,0.0,0.0,0.0,0.0,0.0,0.0,0.0,0.0,0.0,0.0,0.0,0.0,0.0,0.0,0.0,0.0,0.0,0.0,0.0,0.0,0.0,0.0,0.0,0.0,0.0,0.0,0.0,0.0,0.0,0.0,-2.3566,-2.4525,-2.5205,-2.5233,-2.451,-2.2991,0.0,0.0,0.0,0.0,0.0,0.0,0.0,0.0,0.0,0.0,0.0,0.0,0.0,0.0,0.0,0.0,0.0,0.0,0.0,0.0,0.0,0.0,0.0,0.0,0.0,0.0,0.0,0.0,0.0,0.0,0.0,0.0,0.0,0.0,0.0,0.0,0.0,0.0,0.0,0.0,0.0,0.0,0.0,0.0,0.0,0.0,0.0,0.0,0.0,0.0,0.0,0.0,0.0,0.0,0.0,0.0,0.0,0.0,0.0,0.0,0.0,0.0,0.0,0.0,0.0,0.0,0.0,0.0,0.0,0.0,0.0,0.0,0.0,0.0,0.0,0.0,0.0,0.0,0.0,0.0,0.0,0.0,0.0,0.0,0.0,0.0,0.0,0.0,0.0,0.0,0.0,0.0,0.0,0.0,0.0,0.0,0.0,0.0,0.0,0.0,0.0,0.0,0.0,0.0,0.0,0.0,0.0,0.0,-2.7123,-2.5241,-2.529,-2.7721,-2.7744,-2.6235,0.0,0.0,0.0,0.0,0.0,0.0,0.0,0.0,0.0,0.0,0.0,0.0,0.0,0.0,0.0,0.0,0.0,0.0,0.0,0.0,0.0,0.0,0.0,0.0,0.0,0.0,0.0,0.0,0.0,0.0,0.0,0.0,0.0,0.0,0.0,0.0,0.0,0.0,0.0,0.0,0.0,0.0,0.0,0.0,0.0,0.0,0.0,0.0,0.0,0.0,0.0,0.0,0.0,0.0,0.0,0.0,0.0,0.0,0.0,0.0,0.0,0.0,0.0,0.0,0.0,0.0,0.0,0.0,0.0,0.0,0.0,0.0,0.0,0.0,0.0,0.0,0.0,0.0,0.0,0.0,0.0,0.0,0.0,0.0,0.0,0.0,0.0,0.0,0.0,0.0,0.0,0.0,0.0,0.0,0.0,0.0,0.0,0.0,0.0,0.0,0.0,0.0,0.0,0.0,0.0,0.0,0.0,0.0,0.0,-2.2696,-2.3583,-2.6004,-2.9793,-2.6592,-2.4485,0.0,0.0,0.0,0.0,0.0,0.0,0.0,0.0,0.0,0.0,0.0,0.0,0.0,0.0,0.0,0.0,0.0,0.0,0.0,0.0,0.0,0.0,0.0,0.0,0.0,0.0,0.0,0.0,0.0,0.0,0.0,0.0,0.0,0.0,0.0,0.0,0.0,0.0,0.0,0.0,0.0,0.0,0.0,0.0,0.0,0.0,0.0,0.0,0.0,0.0,0.0,0.0,0.0,0.0,0.0,0.0,0.0,0.0,0.0,0.0,0.0,0.0,0.0,0.0,0.0,0.0,0.0,0.0,0.0,0.0,0.0,0.0,0.0,0.0,0.0,0.0,0.0,0.0,0.0,0.0,0.0,0.0,0.0,0.0,0.0,0.0,0.0,0.0,0.0,0.0,0.0,0.0,0.0,0.0,0.0,0.0,0.0,0.0,0.0,0.0,0.0,0.0,0.0,0.0,0.0,0.0,0.0,0.0,0.0,-2.2243,0.0,-2.7496,-2.9696,-2.627,-2.3694,0.0,0.0,0.0,0.0,0.0,0.0,0.0,0.0,0.0,0.0,0.0,0.0,0.0,0.0,0.0,0.0,0.0,0.0,0.0,0.0,0.0,0.0,0.0,0.0,0.0,0.0,0.0,0.0,0.0,0.0,0.0,0.0,0.0,0.0,0.0,0.0,0.0,0.0,0.0,0.0,0.0,0.0,0.0,0.0,0.0,0.0,0.0,0.0,0.0,0.0,0.0,0.0,0.0,0.0,0.0,0.0,0.0,0.0,0.0,0.0,0.0,0.0,0.0,0.0,0.0,0.0,0.0,0.0,0.0,0.0,0.0,0.0,0.0,0.0,0.0,0.0,0.0,0.0,0.0,0.0,0.0,0.0,0.0,0.0,0.0,0.0,0.0,0.0,0.0,0.0,0.0,0.0,0.0,0.0,0.0,0.0,0.0,0.0,0.0,0.0,0.0,0.0,0.0,0.0,0.0,0.0,0.0,0.0,-2.2126,-2.681,-2.9444,-2.9628,-2.7415,-2.7141,-2.4142,0.0,0.0,0.0,0.0,0.0,0.0,0.0,0.0,0.0,0.0,0.0,0.0,0.0,0.0,0.0,0.0,0.0,0.0,0.0,0.0,0.0,0.0,0.0,0.0,0.0,0.0,0.0,0.0,0.0,0.0,0.0,0.0,0.0,0.0,0.0,0.0,0.0,0.0,0.0,0.0,0.0,0.0,0.0,0.0,0.0,0.0,0.0,0.0,0.0,0.0,0.0,0.0,0.0,0.0,0.0,0.0,0.0,0.0,0.0,0.0,0.0,0.0,0.0,0.0,0.0,0.0,0.0,0.0,0.0,0.0,0.0,0.0,0.0,0.0,0.0,0.0,0.0,0.0,0.0,0.0,0.0,0.0,0.0,0.0,0.0,0.0,0.0,0.0,0.0,0.0,0.0,0.0,0.0,0.0,0.0,0.0,0.0,0.0,0.0,0.0,0.0,0.0,0.0,0.0,0.0,0.0,0.0,0.0,0.0,-2.4588,-2.6979,-2.8933,-3.0087,-2.6062,-2.3806,0.0,0.0,0.0,0.0,0.0,0.0,0.0,0.0,0.0,0.0,0.0,0.0,0.0,0.0,0.0,0.0,0.0,0.0,0.0,0.0,0.0,0.0,0.0,0.0,0.0,0.0,0.0,0.0,0.0,0.0,0.0,0.0,0.0,0.0,0.0,0.0,0.0,0.0,0.0,0.0,0.0,0.0,0.0,0.0,0.0,0.0,0.0,0.0,0.0,0.0,0.0,0.0,0.0,0.0,0.0,0.0,0.0,0.0,0.0,0.0,0.0,0.0,0.0,0.0,0.0,0.0,0.0,0.0,0.0,0.0,0.0,0.0,0.0,0.0,0.0,0.0,0.0,0.0,0.0,0.0,0.0,0.0,0.0,0.0,0.0,0.0,0.0,0.0,0.0,0.0,0.0,0.0,0.0,0.0,0.0,0.0,0.0,0.0,0.0,0.0,0.0,0.0,0.0,0.0,0.0,0.0,0.0,0.0,0.0,-2.6469,-2.8815,-3.0451,-3.1145,-2.7009,-2.4667,-2.4413,0.0,0.0,0.0,0.0,0.0,0.0,0.0,0.0,0.0,0.0,0.0,0.0,0.0,0.0,0.0,0.0,0.0,0.0,0.0,0.0,0.0,0.0,0.0,0.0,0.0,0.0,0.0,0.0,0.0,0.0,0.0,0.0,0.0,0.0,0.0,0.0,0.0,0.0,0.0,0.0,0.0,0.0,0.0,0.0,0.0,0.0,0.0,0.0,0.0,0.0,0.0,0.0,0.0,0.0,0.0,0.0,0.0,0.0,0.0,0.0,0.0,0.0,0.0,0.0,0.0,0.0,0.0,0.0,0.0,0.0,0.0,0.0,0.0,0.0,0.0,0.0,0.0,0.0,0.0,0.0,0.0,0.0,0.0,0.0,0.0,0.0,0.0,0.0,0.0,0.0,0.0,0.0,0.0,0.0,0.0,0.0,0.0,0.0,0.0,0.0,0.0,0.0,0.0,0.0,0.0,0.0,0.0,0.0,-3.1466,-3.4208,-3.4092,-3.098,-2.9803,-2.6716,0.0,0.0,0.0,0.0,0.0,0.0,0.0,0.0,0.0,0.0,0.0,0.0,0.0,0.0,0.0,0.0,0.0,0.0,0.0,0.0,0.0,0.0,0.0,0.0,0.0,0.0,0.0,0.0,0.0,0.0,0.0,0.0,0.0,0.0,0.0,0.0,0.0,0.0,0.0,0.0,0.0,0.0,0.0,0.0,0.0,0.0,0.0,0.0,0.0,0.0,0.0,0.0,0.0,0.0,0.0,0.0,0.0,0.0,0.0,0.0,0.0,0.0,0.0,0.0,0.0,0.0,0.0,0.0,0.0,0.0,0.0,0.0,0.0,0.0,0.0,0.0,0.0,0.0,0.0,0.0,0.0,0.0,0.0,0.0,0.0,0.0,0.0,0.0,0.0,0.0,0.0,0.0,0.0,0.0,0.0,0.0,0.0,0.0,0.0,0.0,0.0,0.0,0.0,0.0,0.0,0.0,0.0,0.0,0.0,-3.3935,-3.696,-3.7881,-3.6497,-3.2868,-2.9913,0.0,0.0,0.0,0.0,0.0,0.0,0.0,0.0,0.0,0.0,0.0,0.0,0.0,0.0,0.0,0.0,0.0,0.0,0.0,0.0,0.0,0.0,0.0,0.0,0.0,0.0,0.0,0.0,0.0,0.0,0.0,0.0,0.0,0.0,0.0,0.0,0.0,0.0,0.0,0.0,0.0,0.0,0.0,0.0,0.0,0.0,0.0,0.0,0.0,0.0,0.0,0.0,0.0,0.0,0.0,0.0,0.0,0.0,0.0,0.0,0.0,0.0,0.0,0.0,0.0,0.0,0.0,0.0,0.0,0.0,0.0,0.0,0.0,0.0,0.0,0.0,0.0,0.0,0.0,0.0,0.0,0.0,0.0,0.0,0.0,0.0,0.0,0.0,0.0,0.0,0.0,0.0,0.0,0.0,0.0,0.0,0.0,0.0,0.0,0.0,0.0,0.0,0.0,0.0,0.0,0.0,0.0,0.0,-3.3011,-3.6273,-3.9232,-4.0559,-4.0166,-3.6174,-3.25,0.0,0.0,0.0,0.0,0.0,0.0,0.0,0.0,0.0,0.0,0.0,0.0,0.0,0.0,0.0,0.0,0.0,0.0,0.0,0.0,0.0,0.0,0.0,0.0,0.0,0.0,0.0,0.0,0.0,0.0,0.0,0.0,0.0,0.0,0.0,0.0,0.0,0.0,0.0,0.0,0.0,0.0,0.0,0.0,0.0,0.0,0.0,0.0,0.0,0.0,0.0,0.0,0.0,0.0,0.0,0.0,0.0,0.0,0.0,0.0,0.0,0.0,0.0,0.0,0.0,0.0,0.0,0.0,0.0,0.0,0.0,0.0,0.0,0.0,0.0,0.0,0.0,0.0,0.0,0.0,0.0,0.0,0.0,0.0,0.0,0.0,0.0,0.0,0.0,0.0,0.0,0.0,0.0,0.0,0.0,0.0,0.0,0.0,0.0,0.0,0.0,0.0,0.0,0.0,0.0,0.0,0.0,0.0,-3.5127,-3.8249,-4.0915,-4.2244,-4.2026,-3.9195,-3.4715,0.0,0.0,0.0,0.0,0.0,0.0,0.0,0.0,0.0,0.0,0.0,0.0,0.0,0.0,0.0,0.0,0.0,0.0,0.0,0.0,0.0,0.0,0.0,0.0,0.0,0.0,0.0,0.0,0.0,0.0,0.0,0.0,0.0,0.0,0.0,0.0,0.0,0.0,0.0,0.0,0.0,0.0,0.0,0.0,0.0,0.0,0.0,0.0,0.0,0.0,0.0,0.0,0.0,0.0,0.0,0.0,0.0,0.0,0.0,0.0,0.0,0.0,0.0,0.0,0.0,0.0,0.0,0.0,0.0,0.0,0.0,0.0,0.0,0.0,0.0,0.0,0.0,0.0,0.0,0.0,0.0,0.0,0.0,0.0,0.0,0.0,0.0,0.0,0.0,0.0,0.0,0.0,0.0,0.0,0.0,0.0,0.0,0.0,0.0,0.0,0.0,0.0,0.0,0.0,0.0,0.0,0.0,0.0,-3.5647,-3.8267,-4.1391,-4.2577,-4.1687,-3.9561,-3.6245,0.0,0.0,0.0,0.0,0.0,0.0,0.0,0.0,0.0,0.0,0.0,0.0,0.0,0.0,0.0,0.0,0.0,0.0,0.0,0.0,0.0,0.0,0.0,0.0,0.0,0.0,0.0,0.0,0.0,0.0,0.0,0.0,0.0,0.0,0.0,0.0,0.0,0.0,0.0,0.0,0.0,0.0,0.0,0.0,0.0,0.0,0.0,0.0,-2.164,0.0,0.0,0.0,0.0,0.0,0.0,0.0,0.0,0.0,0.0,0.0,0.0,0.0,0.0,0.0,0.0,0.0,0.0,0.0,0.0,0.0,0.0,0.0,0.0,0.0,0.0,0.0,0.0,0.0,0.0,0.0,0.0,0.0,0.0,0.0,0.0,0.0,0.0,0.0,0.0,0.0,0.0,0.0,0.0,0.0,0.0,0.0,0.0,0.0,0.0,0.0,0.0,0.0,0.0,0.0,0.0,0.0,0.0,0.0,-3.6452,-3.9169,-4.136,-4.2203,-4.1578,-3.9948,-3.6847,0.0,0.0,0.0,0.0,0.0,0.0,0.0,0.0,0.0,0.0,0.0,0.0,0.0,0.0,0.0,0.0,0.0,0.0,0.0,0.0,0.0,0.0,0.0,0.0,0.0,0.0,0.0,0.0,0.0,0.0,0.0,0.0,0.0,0.0,0.0,0.0,0.0,0.0,0.0,0.0,0.0,0.0,0.0,0.0,0.0,0.0,0.0,0.0,0.0,0.0,0.0,0.0,0.0,0.0,0.0,0.0,0.0,0.0,0.0,0.0,0.0,0.0,0.0,0.0,0.0,0.0,0.0,0.0,0.0,0.0,0.0,0.0,0.0,0.0,0.0,0.0,0.0,0.0,0.0,0.0,0.0,0.0,0.0,0.0,0.0,0.0,0.0,0.0,0.0,0.0,0.0,0.0,0.0,0.0,0.0,0.0,0.0,0.0,0.0,0.0,0.0,0.0,0.0,0.0,0.0,0.0,0.0,-3.3668,-3.6965,-4.0114,-4.12,-4.1648,-4.1587,-4.0158,-3.6938,-3.1792,0.0,0.0,0.0,0.0,0.0,0.0,0.0,0.0,0.0,0.0,0.0,0.0,0.0,0.0,0.0,0.0,0.0,0.0,0.0,0.0,0.0,0.0,0.0,0.0,0.0,0.0,0.0,0.0,0.0,0.0,0.0,0.0,0.0,0.0,0.0,0.0,0.0,0.0,-2.1683,-2.3188,0.0,0.0,0.0,0.0,0.0,0.0,0.0,0.0,-2.4502,0.0,0.0,0.0,0.0,0.0,0.0,0.0,0.0,0.0,0.0,0.0,0.0,0.0,0.0,0.0,0.0,0.0,0.0,0.0,0.0,0.0,0.0,0.0,0.0,0.0,0.0,0.0,0.0,0.0,0.0,0.0,0.0,0.0,0.0,0.0,0.0,0.0,0.0,0.0,0.0,0.0,0.0,0.0,0.0,0.0,0.0,0.0,0.0,0.0,0.0,0.0,0.0,0.0,0.0,0.0,0.0,-3.2142,-3.3314,-3.5896,-4.0027,-4.1156,-4.1516,-4.1122,-3.9748,-3.665,-3.178,0.0,0.0,0.0,0.0,0.0,0.0,0.0,0.0,0.0,0.0,0.0,0.0,0.0,0.0,0.0,0.0,0.0,0.0,0.0,0.0,0.0,0.0,0.0,0.0,0.0,0.0,0.0,0.0,0.0,0.0,0.0,0.0,0.0,0.0,0.0,0.0,0.0,0.0,0.0,-2.5862,-2.7113,0.0,0.0,0.0,0.0,0.0,0.0,0.0,0.0,-2.5546,0.0,0.0,0.0,0.0,0.0,0.0,0.0,0.0,0.0,0.0,0.0,0.0,0.0,0.0,0.0,0.0,0.0,0.0,0.0,0.0,0.0,0.0,0.0,0.0,0.0,0.0,0.0,0.0,0.0,0.0,0.0,0.0,0.0,0.0,0.0,0.0,0.0,0.0,0.0,0.0,0.0,0.0,0.0,0.0,0.0,0.0,0.0,0.0,0.0,0.0,0.0,0.0,0.0,0.0,0.0,-3.1601,-3.399,-3.668,-3.9877,-4.0565,-4.0754,-4.048,-3.8002,-3.4991,0.0,0.0,0.0,0.0,0.0,0.0,0.0,0.0,0.0,0.0,0.0,0.0,0.0,0.0,0.0,0.0,0.0,0.0,0.0,0.0,0.0,0.0,0.0,0.0,0.0,0.0,0.0,0.0,0.0,0.0,0.0,0.0,0.0,0.0,0.0,0.0,0.0,0.0,0.0,0.0,-2.6855,-2.8024,-2.9045,0.0,0.0,0.0,0.0,0.0,0.0,-2.6187,-2.6369,0.0,0.0,0.0,0.0,0.0,0.0,0.0,0.0,0.0,0.0,0.0,0.0,0.0,0.0,0.0,0.0,0.0,0.0,0.0,0.0,0.0,0.0,0.0,0.0,0.0,0.0,0.0,0.0,0.0,0.0,0.0,0.0,0.0,0.0,0.0,0.0,0.0,0.0,0.0,0.0,0.0,0.0,0.0,0.0,0.0,0.0,0.0,0.0,0.0,0.0,0.0,0.0,0.0,0.0,0.0,-3.0895,-3.4353,-3.7295,-3.9715,-3.9986,-4.0087,-4.002,-3.6738,-3.3804,0.0,0.0,0.0,0.0,0.0,0.0,0.0,0.0,0.0,0.0,0.0,0.0,0.0,0.0,0.0,0.0,0.0,0.0,0.0,0.0,0.0,0.0,0.0,0.0,0.0,0.0,0.0,0.0,0.0,0.0,0.0,0.0,0.0,0.0,0.0,0.0,0.0,0.0,0.0,0.0,0.0,-2.8824,-3.0164,-2.8367,0.0,0.0,0.0,0.0,-2.7244,-2.797,0.0,0.0,0.0,0.0,0.0,0.0,0.0,0.0,0.0,0.0,0.0,0.0,0.0,0.0,0.0,0.0,0.0,0.0,0.0,0.0,0.0,0.0,0.0,0.0,0.0,0.0,0.0,0.0,0.0,0.0,0.0,0.0,0.0,0.0,0.0,0.0,0.0,0.0,0.0,0.0,0.0,0.0,0.0,0.0,0.0,0.0,0.0,0.0,0.0,0.0,0.0,0.0,0.0,0.0,0.0,0.0,-3.0608,-3.3111,-3.6128,-3.9511,-3.9849,-3.9986,-4.0054,-3.777,-3.4844,0.0,0.0,0.0,0.0,0.0,0.0,0.0,0.0,0.0,0.0,0.0,0.0,0.0,0.0,0.0,0.0,0.0,0.0,0.0,0.0,0.0,0.0,0.0,0.0,0.0,0.0,0.0,0.0,0.0,0.0,0.0,0.0,0.0,0.0,0.0,0.0,0.0,0.0,0.0,0.0,0.0,-3.0405,-3.0309,-2.9251,-2.9026,0.0,0.0,-2.9981,-3.1224,-3.2068,0.0,0.0,0.0,0.0,0.0,0.0,0.0,0.0,0.0,0.0,0.0,0.0,0.0,0.0,0.0,0.0,0.0,0.0,0.0,0.0,0.0,0.0,0.0,0.0,0.0,0.0,0.0,0.0,0.0,0.0,0.0,0.0,0.0,0.0,0.0,0.0,0.0,0.0,0.0,0.0,0.0,0.0,0.0,0.0,0.0,0.0,0.0,0.0,0.0,0.0,0.0,0.0,0.0,0.0,0.0,-2.6864,-3.0651,-3.4134,-3.7135,-3.9489,-3.9746,-3.9833,-3.985,-3.6501,-3.3523,0.0,0.0,0.0,0.0,0.0,0.0,0.0,0.0,0.0,0.0,0.0,0.0,0.0,0.0,0.0,0.0,0.0,0.0,0.0,0.0,0.0,0.0,0.0,0.0,0.0,0.0,0.0,0.0,0.0,0.0,0.0,0.0,0.0,0.0,0.0,0.0,0.0,0.0,0.0,0.0,0.0,0.0,-3.2386,-3.1951,0.0,0.0,0.0,-3.2316,-3.3308,0.0,0.0,0.0,0.0,0.0,0.0,0.0,0.0,0.0,0.0,0.0,0.0,0.0,0.0,0.0,0.0,0.0,0.0,0.0,0.0,0.0,0.0,0.0,0.0,0.0,0.0,0.0,0.0,0.0,0.0,0.0,0.0,0.0,0.0,0.0,0.0,0.0,0.0,0.0,0.0,0.0,0.0,0.0,0.0,0.0,0.0,0.0,0.0,0.0,0.0,0.0,0.0,0.0,0.0,0.0,0.0,0.0,-3.0518,-3.4944,-3.8002,-3.9418,-3.959,-3.9677,-3.961,-3.5726,0.0,0.0,0.0,0.0,0.0,0.0,0.0,0.0,0.0,0.0,0.0,0.0,0.0,0.0,0.0,0.0,0.0,0.0,0.0,0.0,0.0,0.0,0.0,0.0,0.0,0.0,0.0,-1.7064,0.0,0.0,0.0,0.0,0.0,0.0,0.0,0.0,0.0,0.0,0.0,0.0,0.0,0.0,-3.1436,-3.3515,-3.392,-3.4559,0.0,0.0,-3.4504,-3.483,-3.4479,-3.2919,0.0,0.0,0.0,0.0,0.0,0.0,0.0,0.0,0.0,0.0,0.0,0.0,0.0,0.0,0.0,0.0,0.0,0.0,0.0,0.0,0.0,0.0,0.0,0.0,0.0,0.0,0.0,0.0,0.0,0.0,0.0,0.0,0.0,0.0,0.0,0.0,0.0,0.0,0.0,0.0,0.0,0.0,0.0,0.0,0.0,0.0,0.0,0.0,0.0,0.0,0.0,0.0,0.0,0.0,0.0,-3.0087,-3.4706,-3.7866,-3.9418,-3.9501,-3.959,-3.9627,-3.6731,-3.3801,0.0,0.0,0.0,0.0,0.0,0.0,0.0,0.0,0.0,0.0,0.0,0.0,0.0,0.0,0.0,0.0,0.0,0.0,0.0,0.0,0.0,0.0,0.0,0.0,0.0,0.0,0.0,0.0,0.0,0.0,0.0,0.0,0.0,0.0,0.0,0.0,0.0,0.0,0.0,0.0,0.0,-3.153,-3.2324,-3.391,-3.5559,0.0,0.0,-3.6632,-3.5993,-3.6547,-3.5119,-2.9383,0.0,0.0,0.0,0.0,0.0,0.0,0.0,0.0,0.0,0.0,0.0,0.0,0.0,0.0,0.0,0.0,0.0,0.0,0.0,0.0,0.0,0.0,0.0,0.0,0.0,0.0,0.0,0.0,0.0,0.0,0.0,0.0,0.0,0.0,0.0,0.0,0.0,0.0,0.0,0.0,0.0,0.0,0.0,0.0,0.0,0.0,0.0,0.0,0.0,0.0,0.0,0.0,0.0,-2.7273,-3.03,-3.4818,-3.7849,-3.9312,-3.9395,-3.9379,-3.9415,-3.702,-3.4343,0.0,0.0,0.0,0.0,0.0,0.0,0.0,0.0,0.0,0.0,0.0,0.0,0.0,0.0,0.0,0.0,0.0,0.0,0.0,0.0,0.0,0.0,0.0,0.0,0.0,0.0,0.0,0.0,-2.0933,-2.1013,-2.0416,0.0,0.0,0.0,0.0,0.0,0.0,0.0,0.0,0.0,0.0,-3.2281,-3.3896,-3.5478,0.0,0.0,-3.7965,-3.7746,-3.762,-3.6638,-3.4641,-3.085,-2.8795,0.0,0.0,0.0,0.0,0.0,0.0,0.0,0.0,0.0,0.0,0.0,0.0,0.0,0.0,0.0,0.0,0.0,0.0,0.0,0.0,0.0,0.0,0.0,0.0,0.0,0.0,0.0,0.0,0.0,0.0,0.0,0.0,0.0,0.0,0.0,0.0,0.0,0.0,0.0,0.0,0.0,0.0,0.0,0.0,0.0,0.0,0.0,0.0,0.0,0.0,0.0,0.0,-2.7404,-3.0655,-3.4918,-3.7814,-3.9292,-3.9288,-3.9288,-3.9222,-3.7152,-3.4717,0.0,0.0,0.0,0.0,0.0,0.0,0.0,0.0,0.0,0.0,0.0,0.0,0.0,0.0,0.0,0.0,0.0,0.0,0.0,0.0,0.0,0.0,0.0,0.0,0.0,0.0,0.0,0.0,-2.1738,-2.1502,-2.0356,0.0,0.0,0.0,0.0,0.0,0.0,0.0,0.0,0.0,0.0,-3.2732,-3.4633,-3.6131,-3.7265,-3.8036,-3.8055,-3.7923,-3.7734,-3.6316,-3.4322,-3.1591,0.0,0.0,0.0,0.0,0.0,0.0,0.0,0.0,0.0,0.0,0.0,0.0,0.0,0.0,0.0,0.0,0.0,0.0,0.0,0.0,0.0,0.0,0.0,0.0,0.0,0.0,0.0,0.0,0.0,0.0,-1.8944,0.0,0.0,0.0,0.0,0.0,0.0,0.0,0.0,0.0,0.0,0.0,0.0,0.0,0.0,0.0,0.0,0.0,0.0,0.0,0.0,0.0,0.0,-2.7555,-3.1038,-3.5086,-3.7814,-3.9222,-3.9288,-3.9288,-3.9239,-3.7168,-3.4965,-3.268,0.0,0.0,0.0,0.0,0.0,0.0,0.0,0.0,0.0,0.0,0.0,0.0,0.0,0.0,0.0,0.0,0.0,0.0,0.0,0.0,0.0,0.0,0.0,0.0,0.0,0.0,-2.1066,-2.062,-2.0003,0.0,0.0,0.0,0.0,0.0,0.0,0.0,0.0,0.0,0.0,-3.0359,-3.2812,-3.3902,-3.5318,-3.6496,-3.704,-3.7327,-3.7076,-3.5933,-3.5704,-3.4606,0.0,0.0,0.0,0.0,0.0,0.0,0.0,0.0,0.0,0.0,0.0,0.0,0.0,0.0,0.0,0.0,0.0,0.0,0.0,0.0,0.0,0.0,0.0,0.0,0.0,0.0,0.0,-2.539,-2.6455,0.0,0.0,0.0,0.0,0.0,0.0,0.0,0.0,0.0,0.0,0.0,-3.1716,-3.3115,0.0,0.0,0.0,0.0,0.0,0.0,0.0,0.0,0.0,0.0,0.0,0.0,-2.8109,-3.1429,-3.5182,-3.7814,-3.9222,-3.9288,-3.9288,-3.9309,-3.8096,-3.5727,-3.2067,0.0,0.0,0.0,0.0,0.0,0.0,0.0,0.0,0.0,0.0,0.0,0.0,0.0,0.0,0.0,0.0,0.0,0.0,0.0,0.0,0.0,0.0,0.0,0.0,0.0,-2.1278,0.0,0.0,0.0,0.0,0.0,0.0,0.0,0.0,0.0,0.0,0.0,-2.8014,-2.9278,-3.1819,-3.3681,-3.4134,-3.5059,-3.5805,0.0,0.0,0.0,0.0,0.0,0.0,0.0,0.0,0.0,0.0,0.0,0.0,0.0,0.0,-3.2601,-2.796,-2.6666,-2.6243,-2.6038,0.0,0.0,0.0,0.0,0.0,0.0,0.0,0.0,0.0,0.0,0.0,0.0,0.0,0.0,-2.9932,0.0,-2.852,0.0,0.0,0.0,0.0,0.0,0.0,0.0,0.0,-3.3252,-3.4834,-3.4994,-3.615,-3.6067,0.0,-3.4618,-3.2121,0.0,0.0,0.0,0.0,0.0,0.0,0.0,0.0,-2.9387,-3.2729,-3.5876,-3.8063,-3.9206,-3.9288,-3.9288,-3.9309,-3.8079,-3.5843,-3.2481,-2.9615,-2.7296,0.0,0.0,0.0,0.0,0.0,0.0,0.0,0.0,0.0,0.0,0.0,0.0,0.0,0.0,0.0,0.0,0.0,0.0,0.0,0.0,0.0,0.0,0.0,-2.2351,0.0,0.0,0.0,0.0,0.0,0.0,0.0,0.0,0.0,-2.5743,-2.8199,-3.0445,-3.1611,-3.3131,-3.4201,-3.4371,0.0,0.0,0.0,0.0,0.0,0.0,0.0,-3.4211,-3.4194,-3.3762,-3.3332,-3.3206,-3.4761,-3.5792,-3.5049,0.0,0.0,-3.1423,-3.0116,-2.9654,-2.9454,-3.0317,-3.119,-3.1634,-3.3015,-3.4149,0.0,0.0,0.0,0.0,0.0,0.0,0.0,0.0,-3.668,-3.6127,0.0,-3.3835,0.0,0.0,0.0,0.0,0.0,-3.2018,0.0,0.0,-3.7769,-3.9242,-3.8605,-3.9137,-3.9101,-3.8485,-3.893,-3.7716,-3.4733,-3.0061,0.0,0.0,0.0,0.0,0.0,0.0,-3.1321,-3.4833,-3.7069,-3.856,-3.9255,-3.9288,-3.9288,-3.9222,-3.7201,-3.5379,-3.3905,-3.2381,-2.9996,-2.6535,-2.5541,0.0,0.0,0.0,0.0,0.0,0.0,0.0,0.0,0.0,0.0,0.0,0.0,0.0,0.0,0.0,0.0,0.0,0.0,0.0,0.0,-2.267,0.0,0.0,0.0,0.0,0.0,0.0,0.0,0.0,0.0,0.0,-2.865,-3.1334,-3.3599,-3.4206,0.0,0.0,0.0,0.0,-3.5137,-3.524,-3.6135,-3.635,-3.5205,-3.5969,-3.6157,-3.4707,0.0,0.0,-3.5304,-3.6522,-3.6951,-3.4986,-3.6181,-3.7363,-3.6811,-3.534,-3.4575,-3.4995,-3.4575,-3.466,-3.5516,-3.6185,-3.6888,-4.3714,0.0,0.0,0.0,0.0,-3.9626,-4.0795,-4.2414,-4.1499,-4.0097,-3.8466,-3.8824,0.0,0.0,0.0,0.0,0.0,0.0,-3.4631,-3.5604,-3.7186,-3.8335,-3.9116,-3.9279,-3.9226,-3.908,-3.9226,-3.8576,-3.7218,-3.5311,-3.1895,-2.7267,0.0,0.0,0.0,0.0,-3.3591,-3.5644,-3.735,-3.856,-3.9272,-3.9288,-3.9288,-3.9272,-3.7665,-3.634,-3.5396,-3.3442,-3.1437,-2.9367,-2.7131,0.0,0.0,0.0,0.0,0.0,0.0,0.0,0.0,0.0,0.0,0.0,0.0,0.0,0.0,0.0,0.0,0.0,0.0,0.0,-2.2587,-2.293,-2.3231,0.0,0.0,0.0,0.0,0.0,0.0,0.0,0.0,0.0,-3.3176,-3.4171,-3.4892,0.0,0.0,-3.5688,-3.5473,-3.5031,-3.4776,-3.4904,0.0,0.0,0.0,-3.4557,-3.4603,-3.5048,-3.5667,-3.5961,-3.5828,-3.6064,-3.6197,-3.5881,-3.6417,-3.692,-3.6785,-3.6518,-3.6168,-3.6093,-3.6416,-3.6801,-3.6915,-3.7851,-3.864,-4.8347,-4.4482,-4.3352,-4.3001,-4.3251,-4.3527,-4.4562,-4.6033,-4.4794,-4.3628,-4.2662,-4.2479,-3.9813,-3.5484,-3.4449,0.0,0.0,0.0,-3.702,-3.7851,-3.8282,-3.8745,-3.9255,-3.9288,-3.9288,-3.9288,-3.9288,-3.9056,-3.8626,-3.8179,-3.576,-3.1537,0.0,0.0,-3.1056,-3.3425,-3.5396,-3.6854,-3.803,-3.8841,-3.9255,-3.9288,-3.9288,-3.9292,-3.7864,-3.6887,-3.6439,-3.4584,-3.2746,-3.0981,-2.9261,-2.6831,0.0,0.0,0.0,0.0,0.0,0.0,0.0,0.0,0.0,0.0,0.0,-1.8177,0.0,0.0,0.0,0.0,-2.032,-2.2258,-2.4008,-2.4335,0.0,0.0,0.0,0.0,0.0,0.0,0.0,-3.0377,-3.2484,-3.4146,-3.5185,-3.5724,-3.6032,-3.6059,-3.6095,-3.5958,-3.5561,0.0,-3.4799,-3.4917,-3.4789,-3.4713,-3.4836,-3.462,-3.466,-3.513,-3.4908,-3.4829,-3.5237,-3.5224,-3.524,-3.5547,-3.583,-3.6035,-3.6423,-3.6582,-3.6702,-3.6779,-3.727,-3.7624,-3.7417,-3.8114,-3.8637,-5.2254,-5.1368,-4.8502,-4.7086,-4.6825,-4.7519,-4.7869,-4.778,-4.6848,-4.6671,-4.6844,-4.4799,-4.2569,-4.0155,-3.8405,0.0,-3.9541,-4.015,-4.0382,-4.0382,-4.0382,-3.9984,-3.9288,-3.9288,-3.9288,-3.9288,-3.9288,-3.9288,-3.9272,-3.9272,-3.8261,-3.6274,-3.4899,-3.4485,-3.4998,-3.5827,-3.6936,-3.8261,-3.8941,-3.9272,-3.9288,-3.9288,-3.9292,-3.9172,-3.7831,-3.7002,-3.6836,-3.5545,-3.3822,-3.1682,-3.1461,-2.919,-2.4515,0.0,0.0,0.0,0.0,0.0,0.0,0.0,0.0,0.0,0.0,0.0,0.0,0.0,0.0,0.0,-2.2671,0.0,-2.5444,-2.6428,0.0,0.0,0.0,-2.733,-2.8268,-3.0468,-3.199,-3.2311,0.0,0.0,-3.54,0.0,-3.6938,-3.677,-3.6121,-3.5582,-3.5233,-3.5064,-3.5002,-3.5095,-3.5488,-3.5578,-3.5085,-3.525,-3.5175,-3.4676,-3.4033,-3.3677,-3.4159,-3.4152,-3.4187,-3.4562,-3.4672,-3.5038,-3.5899,-3.6019,-3.6347,-3.7102,-3.7397,-3.7506,-3.7434,-3.7542,-3.7596,-5.4456,-5.4065,-5.2004,-4.9904,-4.8149,-4.8905,-4.8905,-4.8377,-4.8498,-4.7779,-4.6297,-4.462,-4.3082,-4.1623,-4.1163,-4.0929,-4.0912,-4.1094,-4.0878,-4.0398,-4.0382,-4.0001,-3.9288,-3.9288,-3.9288,-3.9288,-3.9288,-3.9288,-3.9288,-3.9288,-3.9023,-3.8493,-3.8197,-3.7235,-3.586,-3.7566,-3.8659,-3.9007,-3.9189,-3.9288,-3.9288,-3.9288,-3.9007,-3.8477,-3.7582,-3.6405,-3.4921,-3.4345,-3.3156,-3.1185,-3.0333,-2.8616,-2.5735,-2.3458,0.0,0.0,0.0,0.0,0.0,0.0,0.0,0.0,0.0,-2.0812,-1.8642,0.0,-2.162,0.0,-2.4267,-2.5879,-2.7252,-2.7289,0.0,0.0,-2.9958,-3.06,-3.2119,-3.3124,-3.4042,-3.5036,-3.6114,-3.6823,-3.7142,-3.7395,-3.7428,-3.7076,-3.6315,-3.5889,-3.5889,-3.5446,-3.5126,-3.5126,-3.4934,-3.4721,-3.452,-3.4138,-3.3602,-3.289,-3.2593,-3.2821,-3.385,-3.3616,-3.3547,-3.4372,-3.4539,-3.46,-3.4627,-3.4958,-3.5464,-3.602,-3.6825,-3.7395,-3.7114,-3.7283,-3.7395,-5.5241,-5.508,-5.3691,-5.2094,-5.045,-5.0435,-5.0084,-4.9574,-4.9504,-4.8643,-4.7119,-4.5165,-4.4007,-4.3322,-4.2937,-4.2615,-4.2386,-4.2402,-4.2021,-4.1326,-4.0994,-4.0464,-3.9752,-3.9437,-3.9288,-3.9288,-3.9288,-3.9288,-3.9288,-3.9288,-3.9288,-3.9288,-3.9288,-3.8676,-3.7566,-3.8676,-3.9288,-3.9288,-3.9288,-3.9288,-3.9288,-3.9288,-3.8941,-3.8228,-3.7244,-3.6005,-3.453,-3.3615,-3.2268,-3.0551,-2.9735,-2.8378,-2.634,-2.4524,-2.2778,0.0,0.0,0.0,0.0,0.0,0.0,0.0,0.0,0.0,0.0,0.0,-2.3626,0.0,-2.6792,-2.8269,-2.938,-2.9967,-3.0804,-3.2035,-3.2635,-3.3331,-3.4316,-3.5119,-3.5696,-3.6148,-3.6832,-3.73,-3.7168,-3.7436,-3.7216,-3.6301,-3.5758,-3.5701,-3.6097,-3.561,-3.5013,-3.4752,-3.4141,-3.3607,-3.3437,-3.272,-3.206,-3.1623,-3.1281,-3.1502,-3.289,-3.2803,-3.297,-3.4349,-3.4374,-3.4238,-3.4449,-3.4513,-3.4754,-3.5283,-3.5856,-3.6405,-3.6638,-3.6781,-3.69,-5.5437,-5.5401,-5.4579,-5.3758,-5.2975,-5.1933,-5.1282,-5.0892,-5.003,-4.9188,-4.8223,-4.6011,-4.5018,-4.4855,-4.4105,-4.373,-4.3628,-4.3645,-4.3164,-4.2353,-4.1707,-4.0994,-4.0216,-3.9587,-3.9288,-3.9288,-3.9288,-3.9288,-3.9288,-3.9288,-3.9288,-3.9288,-3.9288,-3.9288,-3.9288,-3.9288,-3.9288,-3.9288,-3.9288,-3.9288,-3.9288,-3.9288,-3.8891,-3.8044,-3.6751,-3.5573,-3.4477,-3.2915,-3.134,-2.9907,-2.9492,-2.8495,-2.6747,-2.5916,-2.4713,0.0,-2.2787,0.0,0.0,0.0,0.0,0.0,0.0,0.0,0.0,-2.5344,-2.6221,-2.7706,-2.968,-3.1078,-3.1471,-3.3081,-3.4095,-3.4074,-3.4996,-3.5619,-3.5703,-3.6593,-3.7061,-3.6605,-3.7445,-3.7634,-3.6606,-3.691,-3.6702,-3.5335,-3.5092,-3.5257,-3.5855,-3.5362,-3.464,-3.4206,-3.3551,-3.2962,-3.2312,-3.1548,-3.0999,-3.0797,-3.0495,-3.0419,-3.1928,-3.2122,-3.2585,-3.4215,-3.4222,-3.4004,-3.484,-3.4452,-3.43,-3.4802,-3.4975,-3.5237,-3.5924,-3.6156,-3.6174,-5.6613,-5.6729,-5.5698,-5.4701,-5.3724,-5.2923,-5.2092,-5.114,-5.0119,-4.8907,-4.7555,-4.6458,-4.558,-4.4892,-4.4746,-4.4276,-4.3645,-4.3645,-4.2899,-4.1624,-4.1491,-4.0729,-3.952,-3.9338,-3.9288,-3.9288,-3.9288,-3.9288,-3.9288,-3.9288,-3.9288,-3.9288,-3.9288,-3.9288,-3.9288,0.0,0.0,0.0,-3.9288,-3.9288,-3.9288,-3.9288,-3.8642,-3.7367,-3.61,0.0,-3.203,-3.1514,-3.0744,-2.9508,-2.9624,0.0,0.0,0.0,0.0,0.0,0.0,0.0,0.0,0.0,0.0,0.0,-2.7051,-2.723,-2.7111,-2.9475,-3.0956,-3.0795,-3.2034,-3.287,-3.2697,-3.3918,-3.4626,-3.4432,-3.5907,-3.6939,-3.6954,-3.7535,-3.7928,-3.7839,-3.8015,-3.7806,-3.6892,-3.6943,-3.6424,-3.5027,-3.4867,-3.4881,-3.4994,-3.4443,-3.39,-3.3778,-3.3522,-3.3064,-3.1985,-3.1638,-3.1099,-3.0356,-3.0482,-3.097,-3.1915,-3.2566,-3.3164,-3.4179,-3.4213,-3.4072,-3.4156,-3.3948,-3.4048,-3.4399,-3.4448,-3.4626,-3.527,-3.5407,-3.5391,-5.7105,0.0,-5.6602,-5.5869,0.0,-5.4036,-5.3062,-5.2038,-5.0823,-4.9416,-4.782,-4.6239,-4.5284,-4.4855,-4.4412,-4.4006,-4.3645,-4.3645,-4.323,-4.2502,-4.2137,-4.1591,-4.0862,-4.015,-3.9835,-3.9818,-3.9437,-3.9288,-3.9288,-3.9288,-3.9288,-3.9288,-3.9288,-3.9288,-3.9288,-3.9288,-3.9288,-3.9288,-3.9288,-3.9288,-3.9288,-3.9288,-3.8742,-3.7698,0.0,0.0,0.0,0.0,0.0,0.0,0.0,0.0,0.0,0.0,0.0,-2.6636,-2.6841,-2.6886,-2.6632,-2.7799,-2.8816,-2.949,-3.0746,-3.0941,-2.9639,-3.1659,-3.293,-3.287,-3.3543,-3.4003,-3.409,-3.5274,-3.5893,-3.583,-3.7153,-3.8047,-3.7944,-3.8177,-3.8127,-3.7644,-3.7567,-3.7246,-3.636,-3.5991,-3.5415,-3.4379,-3.3939,-3.3608,-3.3304,-3.3463,-3.3529,-3.3038,-3.2697,-3.2201,-3.1382,-3.1176,-3.0918,-3.015,-3.0406,-3.118,-3.1942,-3.272,-3.3516,-3.4324,-3.419,-3.3894,-3.4558,-3.4289,-3.3996,-3.4326,-3.4481,-3.4473,-3.453,-3.4802,-3.5131,-5.7188,-5.7188,-5.7188,-5.6736,-5.584,-5.5026,-5.3982,-5.2814,0.0,0.0,0.0,-4.6201,-4.5083,-4.4855,-4.4047,-4.3687,-4.3628,-4.3645,-4.3562,-4.3396,-4.28,-4.2452,-4.2253,-4.1127,-4.0564,-4.0531,-3.9951,-3.9653,-3.9653,-3.9653,-3.9587,-3.9471,-3.9487,-3.9458,-3.9342,-3.9288,-3.9288,-3.9288,-3.9288,-3.9288,-3.9288,-3.9288,-3.8941,-3.8228,-3.6909,-3.5577,-3.4207,-3.2567,-3.111,-2.9922,-2.9599,-2.9415,-2.9295,-2.9295,-2.9475,-2.9909,-3.0522,-3.0642,-3.0163,-3.121,-3.1943,-3.2033,-3.3544,-3.3784,-3.2079,-3.3155,-3.4006,-3.4401,-3.4588,-3.4812,-3.5169,-3.6319,-3.7089,-3.7104,-3.7943,-3.8486,-3.8263,-3.8127,-3.7644,-3.6844,-3.6576,-3.6194,-3.5331,-3.4699,-3.4058,-3.3156,-3.2605,-3.2107,-3.1648,-3.2418,-3.2967,-3.2364,-3.2073,-3.1455,-3.0896,-3.0645,-3.0419,-2.997,-3.0406,-3.1193,-3.1915,-3.272,-3.3644,-3.4728,-3.4095,-3.4102,-3.5033,-3.4705,-3.4163,-3.4227,-3.4648,-3.4681,-3.3921,-3.4293,-3.4922,-5.7188,-5.7188,-5.7188,-5.6635,-5.5656,-5.5515,-5.4499,-5.2779,-5.0752,-4.9346,-4.8416,-4.7038,-4.5834,-4.4855,-4.439,-4.3964,-4.3628,-4.3645,-4.328,0.0,-4.2551,-4.2187,-4.1574,-4.1359,-4.1276,-4.1259,-4.116,-4.111,-4.111,-4.1094,-4.0812,-4.0282,-4.0233,-3.9901,-3.9338,-3.9288,-3.9288,-3.9288,-3.9288,-3.9288,-3.9288,-3.9288,-3.8941,-3.8176,-3.6458,-3.5142,-3.4254,-3.3016,-3.2258,-3.209,-3.2556,-3.2557,-3.2003,-3.1928,-3.1764,-3.1345,-3.1869,-3.2198,-3.2123,-3.2796,-3.3469,-3.4008,-3.4322,-3.4274,-3.391,-3.4692,-3.5265,-3.529,-3.5325,-3.532,-3.5288,-3.6319,-3.699,-3.6884,-3.7404,-3.7615,-3.7377,-3.6774,-3.6212,-3.576,-3.5391,-3.4776,-3.3952,-3.3357,-3.2515,-3.1439,-3.1128,-3.088,-3.0939,-3.1669,-3.2306,-3.2202,-3.2164,-3.1876,-3.1273,-3.0871,-3.0432,-2.9892,-3.0419,-3.1119,-3.1856,-3.2648,-3.3437,-3.4332,-3.4177,-3.4256,-3.4615,-3.4739,-3.4368,-3.3862,-3.4507,-3.4896,-3.3624,-3.4123,-3.4573,-5.7188,-5.7188,-5.7188,-5.6939,-5.644,-5.5854,-5.4468,-5.2607,-5.144,-5.0453,-4.9407,-4.7474,-4.6268,-4.5692,-4.4444,-4.3805,-4.3645,-4.3645,-4.3446,-4.3131,-4.3115,-4.2949,-4.2585,-4.2204,-4.2005,-4.1988,-4.1591,-4.1425,-4.1425,-4.1425,-4.1243,-4.0928,-4.0564,-4.0001,-3.9322,-3.9288,-3.9288,-3.9288,-3.9288,-3.9288,-3.9288,-3.9288,-3.9106,-3.8791,-3.7279,-3.6147,-3.5466,-3.4254,-3.3425,-3.3051,-3.3335,-3.3365,-3.3066,-3.3036,-3.2901,-3.2632,-3.2886,-3.3051,-3.3051,-3.3664,-3.4322,-3.4966,-3.5026,-3.5026,-3.4897,-3.5245,-3.5489,-3.5489,-3.5489,-3.5294,-3.4773,-3.5527,-3.5959,-3.5467,-3.5849,-3.6048,-3.5807,-3.5363,-3.4821,-3.4179,-3.382,-3.3344,-3.2474,-3.1932,-3.1376,-3.0712,-3.0394,-3.0181,-3.0193,-3.0834,-3.1461,-3.17,-3.175,-3.1537,-3.1072,-3.0783,-3.0394,-2.9892,-3.0406,-3.097,-3.1489,-3.2362,-3.3227,-3.363,-3.3767,-3.4153,-3.4589,-3.471,-3.4425,-3.4407,-3.4675,-3.4704,-3.3979,-3.3994,-3.4168,-5.7188,-5.7188,-5.7188,-5.7188,-5.7134,-5.6067,-5.4595,-5.3016,-5.2339,-5.1617,-5.05,-4.8012,-4.6731,-4.6335,-4.4723,-4.3853,-4.3645,-4.3628,-4.3628,-4.3645,-4.3645,-4.3645,-4.3578,-4.3015,-4.2767,-4.2717,-4.217,-4.1922,-4.1905,-4.1922,-4.1823,-4.1591,-4.0812,-4.0083,-3.9537,-3.9355,-3.9288,-3.9288,-3.9288,-3.9288,-3.9288,-3.9288,-3.9288,-3.9218,-3.8067,-3.7175,-3.6595,-3.5401,-3.4472,-3.3993,-3.3948,-3.3948,-3.3948,-3.3948,-3.3948,-3.3948,-3.3948,-3.3948,-3.3978,-3.4412,-3.4936,-3.5444,-3.5489,-3.5489,-3.5489,-3.5489,-3.5489,-3.5489,-3.5279,-3.4971,-3.4534,-3.4755,-3.4837,-3.4312,-3.4454,-3.4649,-3.4382,-3.4004,-3.348,-3.2646,-3.2317,-3.2001,-3.1364,-3.0758,-3.0432,-3.0331,-3.0055,-2.9804,-2.9842,-3.0181,-3.0583,-3.0909,-3.1122,-3.1085,-3.067,-3.0482,-3.0244,-2.9829,-3.0203,-3.062,-3.1044,-3.1988,-3.2706,-3.289,-3.3235,-3.3677,-3.453,-3.4738,-3.4577,-3.4508,-3.4894,-3.5095,-3.4408,-3.4132,-3.4181,-5.7188,-5.7188,-5.7188,-5.7188,-5.7098,-5.6086,-5.5309,-5.4581,-5.3123,-5.2182,-5.1433,-4.9085,-4.7472,-4.6598,-4.5419,-4.4514,-4.3889,-4.3687,-4.3645,-4.3645,-4.3645,-4.3645,-4.3628,-4.3545,-4.3529,-4.3479,-4.338,-4.3297,-4.3297,-4.3346,-4.3048,-4.2319,-4.1061,-4.0382,-4.0216,-3.962,-3.9288,-3.9288,-3.9288,-3.9288,-3.9288,-3.9288,-3.9288,-3.9255,-3.8067,-3.7397,-3.7168,-3.6104,-3.5385,-3.534,-3.5265,-3.5295,-3.5295,-3.531,-3.5295,-3.528,-3.528,-3.5325,-3.5295,-3.537,-3.5415,-3.5489,-3.5489,-3.5489,-3.5489,-3.5489,-3.5489,-3.5359,-3.4839,-3.4447,-3.4274,-3.4311,-3.4128,-3.394,-3.39,-3.3914,-3.354,-3.2896,-3.2153,-3.1898,-3.1242,-3.0763,-3.0633,-3.0244,-2.9917,-2.9942,-2.988,-2.9779,-2.9792,-2.9867,-2.9955,-3.008,-3.0344,-3.0633,-3.052,-3.0168,-2.993,-2.9804,-2.9856,-3.0203,-3.0696,-3.1044,-3.1328,-3.2119,-3.2735,-3.3254,-3.3642,-3.4158,-3.4661,-3.4257,-3.4778,-3.557,-3.517,-3.4625,-3.4469,-5.7188,-5.7188,-5.7188,-5.7188,-5.7134,-5.6725,-5.5811,-5.4482,-5.3347,-5.2292,-5.1217,-4.9436,-4.8319,-4.7623,-4.585,-4.4797,-4.4497,-4.3903,-4.3645,-4.3645,-4.3645,-4.3687,-4.3763,-4.3628,-4.3628,-4.3763,-4.3628,-4.3645,-4.3645,-4.3645,-4.3032,-4.1988,-4.1674,-4.1442,-4.0978,-4.0299,-3.9918,-3.9918,-3.9487,-3.9288,-3.9272,-3.8898,-3.8717,-3.859,-3.7488,-3.6845,-3.6723,-3.5973,-3.5489,-3.5489,-3.5489,-3.5489,-3.5489,-3.5489,-3.5489,-3.5489,-3.5489,-3.5489,-3.5489,-3.5489,-3.5489,-3.5489,-3.5489,-3.5489,-3.5489,-3.5489,-3.5359,-3.4839,-3.4461,-3.4177,-3.3713,-3.3226,-3.2804,-3.2347,-3.2027,-3.1793,-3.1716,-3.1138,-3.0694,-3.0602,-3.0347,-3.0131,-3.0105,-2.993,-2.9792,-2.9779,-2.9779,-2.9779,-2.9779,-2.9779,-2.9779,-2.9817,-3.0005,-3.0105,-3.0118,-2.9967,-2.9804,-2.9779,-2.9779,-2.9998,-3.0203,-3.0683,-3.1031,-3.1328,-3.206,-3.2706,-3.3199,-3.3492,-3.3901,-3.3835,-3.4228,-3.4905,-3.4721,-3.4317,-3.4292,-5.7188,-5.7188,-5.7188,-5.7188,-5.7188,-5.7018,-5.6027,-5.4512,-5.3567,-5.2369,-5.102,-4.9797,-4.9033,-4.8362,-4.6582,-4.5561,-4.5033,-4.4338,-4.3913,-4.378,-4.3687,-4.3763,-4.3898,-4.3704,-4.3687,-4.3763,-4.3687,-4.3645,-4.3645,-4.3645,-4.3065,-4.222,-4.2369,-4.2253,-4.1707,-4.1028,-4.0663,-4.0597,-3.9951,-3.9587,-3.9499,-3.876,-3.8278,-3.8222,-3.7251,-3.66,-3.6368,-3.5861,-3.5489,-3.5489,-3.5489,-3.5489,-3.5489,-3.5489,-3.5489,-3.5489,-3.5489,-3.5489,-3.5489,-3.5489,-3.5489,-3.5489,-3.5489,-3.5489,-3.5489,-3.5489,-3.5133,-3.4447,-3.4109,-3.3699,-3.3003,-3.2232,-3.1616,-3.1061,-3.0735,-3.0596,-3.0622,-3.0216,-3.0049,-2.9934,-2.9932,-2.9779,-2.9792,-2.9792,-2.9779,-2.9779,-2.9779,-2.9779,-2.9779,-2.9779,-2.9779,-2.9779,-2.9792,-2.9804,-2.9779,-2.9792,-2.9779,-2.9779,-2.9779,-2.9779,-2.9779,-3.0343,-3.0545,-3.0709,-3.1355,-3.1783,-3.2205,-3.2563,-3.3087,-3.3534,-3.3825,-3.3825,-3.3589,-3.3534,-3.3687,-5.7188,-5.7188,-5.7188,-5.7188,-5.7138,-5.6635,-5.5999,-5.5191,-5.3879,-5.2495,-5.1176,-5.0287,-4.9627,-4.8927,-4.7933,-4.6767,-4.5497,-4.5177,-4.4658,-4.4089,-4.3956,-4.3898,-4.3898,-4.3687,-4.3628,-4.3687,-4.3628,-4.3611,-4.3595,-4.3595,-4.3611,-4.3446,-4.2816,-4.2518,-4.2369,-4.174,-4.1375,-4.1293,-4.068,-4.0332,-4.0178,-3.9021,-3.8327,-3.823,-3.7663,-3.6966,-3.6368,-3.5797,-3.5489,-3.5489,-3.5489,-3.5489,-3.5489,-3.5489,-3.5489,-3.5489,-3.5489,-3.5489,-3.5489,-3.5489,-3.5489,-3.5489,-3.5489,-3.5489,-3.5489,-3.5489,-3.5133,-3.4312,-3.3699,-3.3003,-3.2232,-3.1603,-3.1123,-3.1061,-3.0986,-3.0898,-3.0911,-3.052,-3.0368,-3.0305,-3.0011,-2.9792,-2.9779,-2.9779,-2.9779,-2.9779,-2.9779,-2.9779,-2.9779,-2.9779,-2.9779,-2.9779,-2.9779,-2.9779,-2.9779,-2.9779,-2.9779,-2.9779,-2.9779,-2.9779,-2.9792,-2.9869,-2.9856,-2.9998,-3.0558,-3.0983,-3.1119,-3.1549,-3.2146,-3.2519,-3.2591,-3.2519,-3.2804,-3.3017,-3.3087,-5.7188,-5.7188,-5.7188,-5.7188,-5.7188,-5.6984,-5.6294,-5.5314,-5.4489,-5.3004,-5.1227,-4.994,-4.9232,-4.8984,-4.8669,-4.7663,-4.6144,-4.5522,-4.4784,-4.4164,-4.4056,-4.4114,-4.4155,-4.3981,-4.3923,-4.3939,-4.3805,-4.3439,-4.2932,-4.3049,-4.3049,-4.2883,-4.2667,-4.2734,-4.3015,-4.2485,-4.2121,-4.2054,-4.1425,-4.1044,-4.0922,-3.9707,-3.8859,-3.8376,-3.7351,-3.6492,-3.5846,-3.5634,-3.5489,-3.5489,-3.5489,-3.5489,-3.5489,-3.5489,-3.5489,-3.5489,-3.5489,-3.5489,-3.5489,-3.5489,-3.5489,-3.5489,-3.5489,-3.5489,-3.5489,-3.5424,-3.5001,-3.3919,-3.3408,-3.2733,-3.1676,-3.1123,-3.0986,-3.0986,-3.0911,-3.0849,-3.0773,-3.0457,-3.0228,-3.0139,-2.9934,-2.9779,-2.9779,-2.9779,-2.9779,-2.9779,-2.9779,-2.9779,-2.9779,-2.9779,-2.9779,-2.9779,-2.9779,-2.9779,-2.9779,-2.9779,-2.9779,-2.9779,-2.9779,-2.9779,-2.9792,-2.9792,-2.9856,-2.9856,-3.0203,-3.0406,-3.0696,-3.1267,-3.1723,-3.1869,-3.1869,-3.1796,-3.2087,-3.2218,-3.2146,-5.7188,-5.7188,-5.7188,-5.7188,-5.7188,-5.6966,-5.6348,-5.5408,-5.4787,-5.3263,-5.1278,-4.9961,-4.9287,-4.9052,-4.9018,-4.8281,-4.6945,-4.6127,-4.5345,-4.4656,-4.433,-4.4196,-4.4253,-4.4138,-4.4097,-4.4097,-4.3998,-4.3598,-4.3124,-4.3132,-4.2957,-4.2609,-4.275,-4.2982,-4.3181,-4.2965,-4.2883,-4.275,-4.2154,-4.1756,-4.1543,-4.0214,-3.9146,-3.8362,-3.7141,-3.6148,-3.5554,-3.5489,-3.5489,-3.5489,-3.5489,-3.5489,-3.5489,-3.5489,-3.5489,-3.5489,-3.5489,-3.5489,-3.5489,-3.5489,-3.5489,-3.5489,-3.5489,-3.5489,-3.5489,-3.5489,-3.4854,-3.3851,-3.3297,-3.2662,-3.1676,-3.1198,-3.0986,-3.0986,-3.0836,-3.0864,-3.1007,-3.0573,-3.0254,-3.0088,-2.9946,-2.9792,-2.9779,-2.9779,-2.9779,-2.9779,-2.9779,-2.9779,-2.9779,-2.9779,-2.9779,-2.9779,-2.9779,-2.9779,-2.9779,-2.9779,-2.9779,-2.9779,-2.9779,-2.9779,-2.9779,-2.9779,-2.9779,-2.9779,-2.9934,-3.0139,-3.0495,-3.0996,-3.1294,-3.1442,-3.1145,-3.0934,-3.1145,-3.1355,-3.1355,-5.7188,-5.7188,-5.7188,-5.7188,-5.7138,-5.6706,-5.6017,-5.5385,-5.493,-5.3427,-5.1315,-5.0598,-4.9691,-4.9171,-4.9018,-4.8595,-4.7825,-4.6997,-4.622,-4.5527,-4.4704,-4.4327,-4.431,-4.4212,-4.4155,-4.4097,-4.4097,-4.408,-4.3939,-4.3723,-4.3365,-4.2998,-4.3206,-4.3098,-4.2568,-4.3181,-4.3562,-4.3413,-4.2833,-4.2477,-4.2237,-4.0531,-3.9189,-3.8428,-3.7173,-3.6146,-3.5504,-3.5489,-3.5489,-3.5489,-3.5489,-3.5489,-3.5489,-3.5489,-3.5489,-3.5489,-3.5489,-3.5489,-3.5489,-3.5489,-3.5489,-3.5489,-3.5489,-3.5489,-3.5489,-3.5489,-3.5133,-3.4259,-3.3561,-3.2861,-3.2087,-3.1394,-3.0986,-3.0986,-3.0986,-3.1196,-3.1407,-3.1085,-3.0546,-3.0164,-2.9934,-2.9779,-2.9779,-2.9779,-2.9779,-2.9779,-2.9779,-2.9779,-2.9779,-2.9779,-2.9779,-2.9779,-2.9779,-2.9779,-2.9779,-2.9779,-2.9779,-2.9779,-2.9779,-2.9779,-2.9779,-2.9779,-2.9779,-2.9779,-2.9779,-2.9998,-2.9998,-3.0432,-3.0279,-3.0368,-3.0139,-3.0216,-3.0355,-3.057,-3.0558,-5.7188,-5.7188,-5.7188,-5.7188,-5.7188,-5.6984,-5.6348,-5.5408,-5.5242,-5.3642,-5.1298,-4.9984,-4.9261,-4.9058,-4.9001,-4.8883,-4.8562,-4.7394,-4.6397,-4.5686,-4.4868,-4.4497,-4.4497,-4.4457,-4.4384,-4.427,-4.4253,-4.4212,-4.4013,-4.3554,-4.3096,-4.2882,-4.2825,-4.275,-4.2551,-4.3247,-4.3645,-4.3595,-4.3396,-4.3026,-4.2488,-4.0984,-3.966,-3.8494,-3.7185,-3.615,-3.5534,-3.5489,-3.5489,-3.5489,-3.5489,-3.5489,-3.5489,-3.5489,-3.5489,-3.5489,-3.5489,-3.5489,-3.5489,-3.5489,-3.5489,-3.5489,-3.5489,-3.5489,-3.5489,-3.5489,-3.5118,-3.4394,-3.363,-3.2918,-3.216,-3.1468,-3.1061,-3.0986,-3.0986,-3.1039,-3.1159,-3.0827,-3.0394,-3.0164,-2.9934,-2.9779,-2.9779,-2.9779,-2.9779,-2.9779,-2.9779,-2.9779,-2.9779,-2.9779,-2.9779,-2.9779,-2.9779,-2.9779,-2.9779,-2.9779,-2.9779,-2.9779,-2.9779,-2.9779,-2.9779,-2.9779,-2.9779,-2.9779,-2.9779,-2.9779,-2.9779,-2.9779,-2.9779,-2.9779,-2.9934,-2.9934,-2.9856,-2.9921,-3.005,-5.7188,-5.7188,-5.7188,-5.7188,-5.7134,-5.6899,-5.6062,-5.5044,-5.5256,-5.3653,-5.0956,-4.9547,-4.8992,-4.899,-4.9018,-4.9018,-4.8883,-4.775,-4.6802,-4.6024,-4.4993,-4.4587,-4.457,-4.457,-4.457,-4.4423,-4.4423,-4.4384,-4.4253,-4.3685,-4.3069,-4.2579,-4.2501,-4.2369,-4.222,-4.2816,-4.3214,-4.3171,-4.3207,-4.3026,-4.2268,-4.0706,-3.9484,-3.8694,-3.7147,-3.6004,-3.5519,-3.5489,-3.5489,-3.5489,-3.5489,-3.5489,-3.5489,-3.5489,-3.5489,-3.5489,-3.5489,-3.5489,-3.5489,-3.5489,-3.5489,-3.5489,-3.5489,-3.5489,-3.5489,-3.5489,-3.5213,-3.4758,-3.3782,-3.3003,-3.2519,-3.1542,-3.1061,-3.0986,-3.0986,-3.0986,-3.0999,-3.079,-3.0548,-3.033,-3.0011,-2.9856,-2.9779,-2.9779,-2.9779,-2.9779,-2.9779,-2.9779,-2.9779,-2.9779,-2.9779,-2.9779,-2.9779,-2.9779,-2.9779,-2.9779,-2.9779,-2.9779,-2.9779,-2.9779,-2.9779,-2.9779,-2.9779,-2.9779,-2.9779,-2.9779,-2.9779,-2.9779,-2.9779,-2.9779,-2.9779,-2.9779,-2.9779,-2.9779,-2.9921,-5.7188,-5.7188,-5.7188,-5.7134,-5.6989,-5.6355,-5.5346,-5.4363,-5.4825,-5.3234,-5.0459,-4.9371,-4.9001,-4.899,-4.9018,-4.9018,-4.8866,-4.8206,-4.7394,-4.6498,-4.5415,-4.4705,-4.4587,-4.457,-4.457,-4.457,-4.457,-4.457,-4.4514,-4.4186,-4.3344,-4.2155,-4.2268,-4.2154,-4.1806,-4.2187,-4.2543,-4.2466,-4.2505,-4.2439,-4.1966,-3.9913,-3.8676,-3.9031,-3.6972,-3.5654,-3.5519,-3.5489,-3.5489,-3.5489,-3.5489,-3.5489,-3.5489,-3.5489,-3.5489,-3.5489,-3.5489,-3.5489,-3.5489,-3.5489,-3.5489,-3.5489,-3.5489,-3.5489,-3.5489,-3.5504,-3.5504,-3.5279,-3.407,-3.3157,-3.2875,-3.1823,-3.1123,-3.0986,-3.0986,-3.0986,-3.1026,-3.1022,-3.083,-3.0394,-3.0075,-2.9779,-2.9779,-2.9779,-2.9779,-2.9779,-2.9779,-2.9779,-2.9779,-2.9779,-2.9779,-2.9779,-2.9779,-2.9779,-2.9779,-2.9779,-2.9779,-2.9779,-2.9779,-2.9779,-2.9779,-2.9779,-2.9779,-2.9779,-2.9779,-2.9779,-2.9779,-2.9779,-2.9779,-2.9779,-2.9779,-2.9779,-2.9779,-2.9779,-2.9779,-5.7188,-5.7188,-5.7188,-5.6844,-5.6319,-5.6066,-5.4952,-5.344,-5.3545,-5.2334,-5.0272,-4.9321,-4.9046,-4.9018,-4.9018,-4.9018,-4.8832,-4.8274,-4.7513,-4.6735,-4.5872,-4.5094,-4.4671,-4.457,-4.457,-4.457,-4.457,-4.457,-4.457,-4.427,-4.331,-4.1954,-4.2259,-4.2137,-4.164,-4.2121,-4.2252,-4.1896,-4.1862,-4.1066,-3.9755,-3.8994,-3.8085,-3.7218,-3.6556,-3.5953,-3.5564,-3.5489,-3.5489,-3.5489,-3.5489,-3.5489,-3.5489,-3.5489,-3.5489,-3.5489,-3.5489,-3.5489,-3.5489,-3.5489,-3.5489,-3.5489,-3.5489,-3.5489,-3.5489,-3.5489,-3.5489,-3.5213,-3.4153,-3.3227,-3.2946,-3.1896,-3.1123,-3.0986,-3.0986,-3.0986,-3.1013,-3.0877,-3.0675,-3.0394,-3.0139,-2.9934,-2.9869,-2.9779,-2.9779,-2.9779,-2.9779,-2.9779,-2.9779,-2.9779,-2.9779,-2.9779,-2.9779,-2.9779,-2.9779,-2.9779,-2.9779,-2.9779,-2.9779,-2.9779,-2.9779,-2.9779,-2.9779,-2.9779,-2.9779,-2.9779,-2.9779,-2.9779,-2.9779,-2.9779,-2.9779,-2.9779,-2.9779,-2.9779,-2.9779,-5.6989,-5.6699,-5.6699,-5.6247,-5.5522,-5.5178,-5.4194,-5.298,-5.2263,-5.135,-5.0051,-4.9306,-4.8979,-4.9018,-4.9018,-4.9018,-4.8934,-4.8578,-4.78,-4.6701,-4.5686,-4.4993,-4.4637,-4.457,-4.457,-4.457,-4.457,-4.457,-4.444,-4.427,-4.3317,-4.2205,-4.2082,-4.1953,-4.1548,-4.1491,-4.1486,-4.1119,-4.0849,-3.9896,-3.859,-3.7916,-3.7552,-3.6814,-3.6421,-3.5848,-3.5534,-3.5489,-3.5489,-3.5489,-3.5489,-3.5489,-3.5489,-3.5489,-3.5489,-3.5489,-3.5489,-3.5489,-3.5489,-3.5489,-3.5489,-3.5489,-3.5489,-3.5489,-3.5489,-3.5489,-3.5489,-3.5359,-3.407,-3.3367,-3.2946,-3.1896,-3.1123,-3.0986,-3.0986,-3.0986,-3.0986,-3.0849,-3.0622,-3.0457,-3.0228,-3.0011,-2.9792,-2.9792,-2.9779,-2.9779,-2.9779,-2.9779,-2.9779,-2.9779,-2.9779,-2.9779,-2.9779,-2.9779,-2.9779,-2.9779,-2.9779,-2.9779,-2.9779,-2.9779,-2.9702,-2.9702,-2.9779,-2.9779,-2.9779,-2.9779,-2.9779,-2.9779,-2.9779,-2.9779,-2.9779,-2.9779,-2.9779,-2.9779,-2.9779,-5.6609,-5.5884,-5.5884,-5.545,-5.4725,-5.4037,-5.3356,-5.2495,-5.1617,-5.069,-4.9866,-4.9299,-4.8995,-4.9001,-4.9018,-4.9018,-4.9018,-4.8934,-4.802,-4.6752,-4.5466,-4.4604,-4.4604,-4.457,-4.457,-4.457,-4.457,-4.4497,-4.444,-4.431,-4.353,-4.2445,-4.1944,-4.1772,-4.1583,-4.099,-4.0466,-4.0296,-3.9777,-3.8981,-3.8013,-3.7113,-3.6678,-3.6816,-3.6079,-3.5609,-3.5519,-3.5489,-3.5489,-3.5489,-3.5489,-3.5489,-3.5489,-3.5489,-3.5489,-3.5489,-3.5489,-3.5489,-3.5489,-3.5489,-3.5489,-3.5489,-3.5489,-3.5489,-3.5489,-3.5489,-3.5489,-3.5489,-3.4153,-3.3437,-3.2791,-3.1763,-3.1123,-3.0986,-3.0986,-3.0986,-3.0986,-3.0849,-3.0622,-3.0457,-3.0216,-2.9998,-2.9856,-2.9779,-2.9779,-2.9779,-2.9779,-2.9779,-2.9779,-2.9779,-2.9779,-2.9779,-2.9779,-2.9779,-2.9779,-2.9779,-2.9779,-2.9779,-2.9779,-2.9702,-2.9456,-2.9534,-2.9702,-2.9779,-2.9779,-2.9779,-2.9779,-2.9779,-2.9779,-2.9779,-2.9779,-2.9779,-2.9779,-2.9779,-2.9779,-5.5794,-5.5142,-5.5142,-5.4689,-5.4001,-5.3766,-5.3008,-5.1904,-5.205,-5.1228,-5.0028,-4.9279,-4.9027,-4.9001,-4.9018,-4.9018,-4.8984,-4.8866,-4.8189,-4.6735,-4.5263,-4.4637,-4.457,-4.457,-4.457,-4.457,-4.457,-4.457,-4.4514,-4.4299,-4.3855,-4.2959,-4.2194,-4.1866,-4.1749,-4.0933,-4.0271,-3.9764,-3.9074,-3.8058,-3.7033,-3.6246,-3.5824,-3.6039,-3.5709,-3.5519,-3.5489,-3.5489,-3.5489,-3.5489,-3.5489,-3.5489,-3.5489,-3.5489,-3.5489,-3.5489,-3.5489,-3.5489,-3.5489,-3.5489,-3.5489,-3.5489,-3.5489,-3.5489,-3.5489,-3.5489,-3.5489,-3.5344,-3.4624,-3.3561,-3.2506,-3.1529,-3.1123,-3.0986,-3.0986,-3.0986,-3.0986,-3.0849,-3.0622,-3.0444,-3.0216,-3.0011,-2.9869,-2.9779,-2.9779,-2.9779,-2.9779,-2.9779,-2.9779,-2.9779,-2.9779,-2.9779,-2.9779,-2.9779,-2.9779,-2.9779,-2.9779,-2.9779,-2.9779,-2.9534,-2.9287,-2.9287,-2.9456,-2.9624,-2.9779,-2.9779,-2.9779,-2.9779,-2.9779,-2.9779,-2.9779,-2.9779,-2.9779,-2.9779,-2.9611,-5.5033,-5.4363,-5.4345,-5.3874,-5.3204,-5.3132,-5.2719,-5.2143,-5.2355,-5.1687,-5.0314,-4.9373,-4.9026,-4.9001,-4.9018,-4.9018,-4.8798,-4.8223,-4.7361,-4.6194,-4.5094,-4.4604,-4.457,-4.457,-4.457,-4.457,-4.457,-4.457,-4.444,-4.4373,-4.3996,-4.3199,-4.2404,-4.203,-4.1741,-4.0775,-3.9775,-3.9134,-3.8364,-3.731,-3.6146,-3.5668,-3.5489,-3.5489,-3.5489,-3.5489,-3.5489,-3.5489,-3.5489,-3.5489,-3.5489,-3.5489,-3.5489,-3.5489,-3.5489,-3.5489,-3.5489,-3.5489,-3.5489,-3.5489,-3.5489,-3.5489,-3.5489,-3.5489,-3.5489,-3.5489,-3.5489,-3.5344,-3.4691,-3.3685,-3.229,-3.1455,-3.1048,-3.0986,-3.0986,-3.0986,-3.0986,-3.0849,-3.0622,-3.0457,-3.0216,-3.0011,-2.9869,-2.9792,-2.9779,-2.9779,-2.9779,-2.9779,-2.9779,-2.9779,-2.9779,-2.9779,-2.9779,-2.9779,-2.9779,-2.9779,-2.9779,-2.9779,-2.9779,-2.9365,-2.887,-2.8961,-2.9118,-2.9287,-2.9378,-2.9779,-2.9779,-2.9779,-2.9779,-2.9767,-2.9767,-2.9779,-2.9704,-2.9476,-2.9204,-5.4237,-5.353,-5.3512,-5.3132,-5.2552,-5.2516,-5.2516,-5.2459,-5.2346,-5.1649,-5.0608,-4.9543,-4.9009,-4.8995,-4.9018,-4.8968,-4.8477,-4.7547,-4.6549,-4.5788,-4.4993,-4.4621,-4.457,-4.457,-4.457,-4.457,-4.457,-4.4497,-4.444,-4.448,-4.4243,-4.3406,-4.253,-4.2139,-4.1732,-4.0478,-3.9445,-3.8974,-3.8014,-3.7285,-3.6211,-3.5846,-3.5489,-3.5489,-3.5489,-3.5489,-3.5489,-3.5489,-3.5489,-3.5489,-3.5489,-3.5489,-3.5489,-3.5489,-3.5489,-3.5489,-3.5489,-3.5489,-3.5489,-3.5489,-3.5489,-3.5489,-3.5489,-3.5489,-3.5489,-3.5489,-3.5489,-3.5279,-3.4706,-3.3768,-3.2434,-3.1676,-3.1259,-3.1061,-3.0986,-3.0986,-3.0986,-3.0849,-3.0609,-3.0457,-3.0216,-3.0011,-2.9946,-2.9869,-2.9792,-2.9779,-2.9779,-2.9779,-2.9779,-2.9779,-2.9779,-2.9779,-2.9779,-2.9779,-2.9779,-2.9779,-2.9779,-2.9779,-2.9779,-2.9287,-2.8712,-2.8712,-2.8791,-2.8791,-2.8961,-2.9287,-2.9702,-2.9779,-2.9779,-2.9767,-2.9574,-2.9471,-2.9297,-2.9073,-2.8746,-5.3422,-5.2697,-5.2679,-5.2607,-5.2498,-5.2498,-5.2498,-5.2369,-5.1799,-5.1243,-5.0573,-4.9526,-4.9009,-4.9023,-4.9018,-4.868,-4.8003,-4.7124,-4.6363,-4.5618,-4.4925,-4.457,-4.457,-4.457,-4.457,-4.457,-4.4519,-4.4485,-4.457,-4.4553,-4.4451,-4.4024,-4.2909,-4.2213,-4.1701,-4.0551,-3.9518,-3.9051,-3.8107,-3.7488,-3.7131,-3.6196,-3.5619,-3.5619,-3.5619,-3.5569,-3.5569,-3.5504,-3.5489,-3.5489,-3.5489,-3.5489,-3.5489,-3.5489,-3.5489,-3.5489,-3.5489,-3.5489,-3.5489,-3.5489,-3.5489,-3.5489,-3.5489,-3.5489,-3.5489,-3.5489,-3.5489,-3.5279,-3.4773,-3.3905,-3.3143,-3.2376,-3.1676,-3.1259,-3.1123,-3.1123,-3.1061,-3.0836,-3.0685,-3.0609,-3.0381,-3.0088,-3.0011,-2.9869,-2.9792,-2.9779,-2.9779,-2.9779,-2.9779,-2.9779,-2.9779,-2.9779,-2.9779,-2.9779,-2.9779,-2.9779,-2.9779,-2.9779,-2.9702,-2.9378,-2.8882,-2.8633,-2.8554,-2.8383,-2.8462,-2.8791,-2.9118,-2.9456,-2.9164,-2.8663,-2.8856,-2.9151,-2.859,-2.8053,-2.7894,-5.2842,-5.2498,-5.2498,-5.2498,-5.2498,-5.2498,-5.2322,-5.1964,-5.149,-5.0911,-5.0175,-4.9407,-4.9009,-4.9023,-4.9018,-4.8426,-4.7445,-4.7022,-4.616,-4.5246,-4.4756,-4.457,-4.457,-4.457,-4.457,-4.4451,-4.4231,-4.4248,-4.4536,-4.457,-4.4553,-4.4198,-4.3047,-4.225,-4.1769,-4.0536,-3.9551,-3.8936,-3.8294,-3.7648,-3.737,-3.61,-3.5861,-3.6211,-3.5846,-3.5683,-3.5861,-3.5619,-3.5489,-3.5489,-3.5489,-3.5489,-3.5489,-3.5489,-3.5489,-3.5489,-3.5489,-3.5489,-3.5489,-3.5489,-3.5489,-3.5489,-3.5489,-3.5489,-3.5489,-3.5489,-3.5489,-3.5344,-3.4839,-3.4177,-3.3754,-3.3073,-3.2591,-3.2173,-3.1809,-3.1529,-3.1468,-3.1123,-3.0911,-3.0773,-3.0394,-3.0164,-3.0088,-2.9934,-2.9856,-2.9779,-2.9779,-2.9779,-2.9779,-2.9779,-2.9779,-2.9779,-2.9779,-2.9779,-2.9779,-2.9779,-2.9779,-2.9779,-2.9702,-2.9378,-2.8882,-2.8462,-2.8051,-2.7637,-2.7879,-2.8039,-2.8039,-2.8119,-2.785,-2.7628,-2.7826,-2.7897,-2.7369,-2.7025,-2.6932,-5.2498,-5.2498,-5.2498,-5.2498,-5.2498,-5.2498,-5.2162,-5.1651,-5.1325,-5.0681,-4.9879,-4.9313,-4.901,-4.8995,-4.8832,-4.824,-4.687,-4.6802,-4.5974,-4.4874,-4.4604,-4.457,-4.457,-4.4553,-4.4468,-4.4113,-4.3826,-4.3826,-4.4384,-4.4333,-4.4384,-4.4113,-4.3064,-4.2196,-4.1749,-4.0467,-3.9421,-3.881,-3.8351,-3.7648,-3.66,-3.6148,-3.6148,-3.6906,-3.6037,-3.5748,-3.5973,-3.5733,-3.5489,-3.5489,-3.5489,-3.5489,-3.5489,-3.5489,-3.5489,-3.5489,-3.5489,-3.5489,-3.5489,-3.5489,-3.5489,-3.5489,-3.5489,-3.5489,-3.5489,-3.5489,-3.5489,-3.5359,-3.5052,-3.4461,-3.4177,-3.3768,-3.3353,-3.2946,-3.2448,-3.2015,-3.1796,-3.1455,-3.1061,-3.0761,-3.047,-3.0318,-3.0241,-2.9934,-2.9779,-2.9779,-2.9779,-2.9779,-2.9779,-2.9779,-2.9779,-2.9779,-2.9779,-2.9779,-2.9779,-2.9779,-2.9779,-2.9779,-2.9792,-2.9546,-2.8882,-2.8291,-2.7891,-2.7637,-2.6894,-2.6976,-2.6894,-2.7012,-2.6932,-2.6956,-2.6978,-2.6506,-2.5764,-2.5786,-2.5931,-5.2498,-5.2498,-5.2498,-5.2498,-5.2498,-5.2498,-5.2162,-5.1551,-5.0999,-5.048,-4.9774,-4.9282,-4.904,-4.9001,-4.9018,-4.8156,-4.7175,-4.6701,-4.5991,-4.4739,-4.457,-4.457,-4.457,-4.457,-4.4181,-4.3775,-4.347,-4.3876,-4.4079,-4.3758,-4.3893,-4.3961,-4.2871,-4.2055,-4.1678,-4.0381,-3.9465,-3.9131,-3.859,-3.769,-3.6768,-3.689,-3.6616,-3.6148,-3.5797,-3.5733,-3.591,-3.5733,-3.5554,-3.5489,-3.5489,-3.5489,-3.5489,-3.5489,-3.5489,-3.5489,-3.5489,-3.5489,-3.5489,-3.5489,-3.5489,-3.5489,-3.5489,-3.5489,-3.5489,-3.5489,-3.5489,-3.5489,-3.5344,-3.5052,-3.461,-3.4245,-3.3837,-3.3339,-3.2861,-3.2434,-3.2087,-3.1723,-3.132,-3.0911,-3.0622,-3.0457,-3.0381,-3.0088,-2.9779,-2.9779,-2.9779,-2.9779,-2.9779,-2.9779,-2.9779,-2.9779,-2.9779,-2.9779,-2.9779,-2.9779,-2.9779,-2.9779,-2.9792,-2.9714,-2.9209,-2.8633,-2.8383,-2.7971,-2.7058,-2.64,-2.6565,-2.6651,-2.6434,-2.6237,-2.6035,-2.5104,-2.3837,-2.426,-2.5098,-5.2498,-5.2498,-5.2498,-5.2498,-5.2498,-5.2498,-5.1933,-5.1139,-5.0787,-5.0237,-4.9496,-4.9168,-4.9018,-4.9018,-4.9018,-4.8189,-4.7039,-4.6769,-4.5974,-4.484,-4.457,-4.457,-4.457,-4.4519,-4.4164,-4.3453,-4.3031,-4.2811,-4.3098,-4.3031,-4.3014,-4.3081,-4.225,-4.1485,-4.1412,-4.0282,-3.969,-3.9239,-3.8717,-3.8051,-3.7589,-3.7413,-3.731,-3.7071,-3.6723,-3.6554,-3.643,-3.6148,-3.5861,-3.5619,-3.5489,-3.5489,-3.5489,-3.5489,-3.5489,-3.5489,-3.5489,-3.5489,-3.5489,-3.5489,-3.5489,-3.5489,-3.5489,-3.5489,-3.5489,-3.5489,-3.5489,-3.5489,-3.5489,-3.5279,-3.5052,-3.4986,-3.4839,-3.4356,-3.3561,-3.3003,-3.2577,-3.2015,-3.1603,-3.1185,-3.0849,-3.0685,-3.0533,-3.0241,-2.9934,-2.9869,-2.9792,-2.9779,-2.9779,-2.9779,-2.9779,-2.9779,-2.9779,-2.9779,-2.9779,-2.9779,-2.9767,-2.9767,-2.9779,-2.9702,-2.9546,-2.9209,-2.8882,-2.8303,-2.7476,-2.6976,-2.6648,-2.6036,-2.5554,-2.5311,-2.5142,-2.4407,-2.3743,-2.4086,-2.4766,-5.2498,-5.2498,-5.2498,-5.2498,-5.2498,-5.2498,-5.1933,-5.0964,-5.0751,-5.0181,-4.9376,-4.9124,-4.9018,-4.8934,-4.8731,-4.797,-4.6819,-4.6616,-4.5754,-4.4942,-4.457,-4.457,-4.457,-4.4519,-4.4045,-4.3149,-4.2642,-4.2168,-4.1779,-4.1762,-4.1847,-4.2202,-4.1675,-4.1201,-4.0809,-4.0217,-3.9642,-3.9379,-3.8898,-3.8479,-3.8181,-3.7822,-3.7822,-3.7764,-3.7648,-3.7413,-3.731,-3.6723,-3.6085,-3.5846,-3.5554,-3.5504,-3.5489,-3.5489,-3.5489,-3.5489,-3.5489,-3.5489,-3.5489,-3.5489,-3.5489,-3.5489,-3.5489,-3.5489,-3.5489,-3.5489,-3.5489,-3.5489,-3.5489,-3.5489,-3.5489,-3.5424,-3.5344,-3.5052,-3.4624,-3.3988,-3.3283,-3.2506,-3.1736,-3.1185,-3.0911,-3.0773,-3.0622,-3.0394,-3.0164,-2.9946,-2.9869,-2.9779,-2.9779,-2.9779,-2.9754,-2.9741,-2.9515,-2.9566,-2.9716,-2.9716,-2.9729,-2.9716,-2.9729,-2.9779,-2.9624,-2.9468,-2.9209,-2.8554,-2.7971,-2.7637,-2.7383,-2.5997,-2.4765,-2.4735,-2.4714,-2.4524,-2.4229,-2.4405,-2.4478,-5.2498,-5.2498,-5.2498,-5.2498,-5.2498,-5.2498,-5.2114,-5.1432,-5.0911,-5.0331,-4.9598,-4.9273,-4.9001,-4.8815,-4.8291,-4.7614,-4.6718,-4.6092,-4.5365,-4.4823,-4.457,-4.457,-4.457,-4.4384,-4.3859,-4.2675,-4.2286,-4.1576,-4.0646,-4.0629,-4.1221,-4.1982,-4.1236,-4.103,-4.0673,-4.0012,-3.9554,-3.9379,-3.9148,-3.8788,-3.8479,-3.8181,-3.8051,-3.7663,-3.7488,-3.7429,-3.737,-3.6845,-3.6368,-3.6196,-3.5733,-3.5504,-3.5489,-3.5489,-3.5489,-3.5489,-3.5489,-3.5489,-3.5489,-3.5489,-3.5489,-3.5489,-3.5489,-3.5489,-3.5489,-3.5489,-3.5489,-3.5489,-3.5489,-3.5489,-3.5489,-3.5489,-3.5489,-3.5344,-3.4905,-3.4206,-3.3422,-3.2706,-3.1942,-3.1259,-3.0911,-3.0849,-3.0698,-3.0457,-3.0241,-3.0011,-2.9869,-2.9779,-2.9779,-2.9779,-2.9729,-2.9603,-2.9239,-2.9252,-2.9553,-2.9515,-2.9239,-2.9377,-2.9528,-2.9666,-2.9779,-2.9546,-2.9378,-2.9287,-2.8791,-2.8462,-2.7959,-2.6648,-2.5484,-2.4671,-2.4374,-2.4343,-2.4271,-2.4291,-2.4405,-5.2498,-5.2498,-5.2498,-5.2498,-5.2498,-5.2498,-5.2162,-5.1551,-5.0982,-5.0163,-4.9316,-4.909,-4.8765,-4.8342,-4.8054,-4.7225,-4.6227,-4.5889,-4.5229,-4.479,-4.457,-4.457,-4.457,-4.4333,-4.3792,-4.2591,-4.2219,-4.1525,-4.0273,-4.0087,-4.0273,-4.0679,-4.0645,-4.0458,-4.0101,-3.9826,-3.9534,-3.9379,-3.9272,-3.8969,-3.8535,-3.8717,-3.8606,-3.801,-3.8439,-3.8311,-3.7937,-3.7354,-3.6906,-3.6383,-3.5797,-3.5554,-3.5489,-3.5489,-3.5489,-3.5489,-3.5489,-3.5489,-3.5489,-3.5489,-3.5489,-3.5489,-3.5489,-3.5489,-3.5489,-3.5489,-3.5489,-3.5489,-3.5489,-3.5489,-3.5489,-3.5489,-3.5489,-3.5424,-3.5067,-3.4356,-3.3561,-3.2861,-3.2087,-3.1259,-3.1061,-3.0911,-3.0685,-3.0533,-3.0305,-3.0164,-2.9934,-2.9767,-2.9704,-2.9628,-2.9515,-2.9264,-2.8863,-2.8762,-2.9038,-2.8888,-2.8674,-2.9001,-2.9327,-2.9453,-2.9603,-2.9779,-2.9624,-2.9624,-2.9378,-2.8791,-2.8131,-2.7221,-2.6213,-2.5199,-2.4596,-2.4405,-2.4322,-2.425,-2.4364,-5.2498,-5.2498,-5.2498,-5.2498,-5.2498,-5.2498,-5.2275,-5.1768,-5.1034,-4.9894,-4.8697,-4.8646,-4.8274,-4.7716,-4.7259,-4.6802,-4.5872,-4.5449,-4.5043,-4.4739,-4.457,-4.457,-4.4502,-4.4147,-4.3487,-4.2489,-4.1931,-4.1221,-4.0138,-4.0087,-4.0172,-4.0189,-4.0087,-4.0088,-3.9986,-3.9694,-3.9554,-3.9432,-3.9325,-3.9148,-3.8717,-3.8969,-3.9148,-3.8662,-3.9023,-3.8788,-3.8238,-3.7589,-3.7011,-3.643,-3.591,-3.5554,-3.5489,-3.5489,-3.5489,-3.5489,-3.5489,-3.5489,-3.5489,-3.5489,-3.5489,-3.5489,-3.5489,-3.5489,-3.5489,-3.5489,-3.5489,-3.5489,-3.5489,-3.5489,-3.5489,-3.5489,-3.5489,-3.5424,-3.5439,-3.4854,-3.3796,-3.2932,-3.2101,-3.1259,-3.1123,-3.0885,-3.0667,-3.0416,-3.0087,-2.9935,-2.9934,-2.9641,-2.9365,-2.9264,-2.9139,-2.8812,-2.8398,-2.8386,-2.8423,-2.8222,-2.8172,-2.8863,-2.9126,-2.9189,-2.934,-2.9541,-2.9741,-2.9702,-2.9456,-2.8961,-2.8223,-2.7395,-2.64,-2.5495,-2.4978,-2.4457,-2.4457,-2.4405,-2.4447,-5.248,-5.2498,-5.2498,-5.2498,-5.2498,-5.2498,-5.2434,-5.2191,-5.1102,-4.9691,-4.8235,-4.8047,-4.753,-4.6836,-4.6312,-4.5872,-4.5517,-4.4959,-4.4637,-4.4604,-4.457,-4.457,-4.4248,-4.3809,-4.3132,-4.2303,-4.1677,-4.0967,-4.0087,-4.0087,-4.0087,-4.0087,-4.0087,-4.0087,-4.0087,-3.9833,-3.9573,-3.9325,-3.9325,-3.9218,-3.9218,-3.9288,-3.9202,-3.9202,-3.9218,-3.8969,-3.8351,-3.7722,-3.7071,-3.643,-3.5861,-3.5569,-3.5489,-3.5489,-3.5489,-3.5489,-3.5489,-3.5489,-3.5489,-3.5489,-3.5489,-3.5489,-3.5489,-3.5489,-3.5489,-3.5489,-3.5489,-3.5489,-3.5489,-3.5489,-3.5489,-3.5489,-3.5489,-3.5489,-3.5504,-3.5001,-3.3865,-3.3143,-3.2304,-3.1109,-3.0992,-3.0921,-3.0637,-3.0345,-2.9857,-2.9656,-2.9768,-2.9528,-2.9063,-2.8863,-2.8712,-2.8335,-2.7934,-2.7984,-2.7946,-2.7632,-2.772,-2.8473,-2.8925,-2.8988,-2.9089,-2.9277,-2.9478,-2.9691,-2.9254,-2.8572,-2.8104,-2.7649,-2.6329,-2.5094,-2.4861,-2.4529,-2.454,-2.455,-2.455,-5.2009,-5.2498,-5.2498,-5.2498,-5.2498,-5.2498,-5.2498,-5.2167,-5.0746,-4.9388,-4.8415,-4.7648,-4.6769,-4.6143,-4.5821,-4.5432,-4.4959,-4.484,-4.457,-4.457,-4.4519,-4.4198,-4.3842,-4.3403,-4.2709,-4.1813,-4.1187,-4.0764,-4.0087,-4.0087,-4.0087,-4.0087,-4.0087,-4.0037,-3.9901,-3.9694,-3.9379,-3.9379,-3.9379,-3.9288,-3.9288,-3.9288,-3.9288,-3.9288,-3.9272,-3.8914,-3.8238,-3.7663,-3.7011,-3.6368,-3.5797,-3.5504,-3.5504,-3.5504,-3.5504,-3.5489,-3.5489,-3.5489,-3.5489,-3.5489,-3.5489,-3.5489,-3.5489,-3.5489,-3.5489,-3.5489,-3.5489,-3.5489,-3.5489,-3.5489,-3.5489,-3.5489,-3.5489,-3.5489,-3.5294,-3.4654,-3.3796,-3.3353,-3.2579,-3.1063,-3.0411,-3.0116,-2.9835,-2.9572,-2.918,-2.8944,-2.8948,-2.8824,-2.8411,-2.831,-2.8197,-2.7808,-2.7507,-2.757,-2.7507,-2.7281,-2.7557,-2.8335,-2.8674,-2.8762,-2.8888,-2.8976,-2.9264,-2.9503,-2.8827,-2.8174,-2.745,-2.6741,-2.56,-2.47,-2.454,-2.455,-2.455,-2.455,-2.455,-5.1194,-5.1647,-5.1665,-5.1665,-5.1774,-5.2245,-5.226,-5.1545,-4.9953,-4.8747,-4.7834,-4.6839,-4.5991,-4.5483,-4.5263,-4.5162,-4.4587,-4.457,-4.457,-4.4519,-4.4248,-4.391,-4.3487,-4.2878,-4.2083,-4.1305,-4.0865,-4.0476,-4.0104,-4.0087,-4.0087,-4.0087,-4.0087,-4.0037,-3.9901,-3.9729,-3.9537,-3.9484,-3.9432,-3.9325,-3.9325,-3.9288,-3.9288,-3.9202,-3.9023,-3.8606,-3.801,-3.7429,-3.6768,-3.6211,-3.5797,-3.5489,-3.5504,-3.5683,-3.5683,-3.5619,-3.5489,-3.5489,-3.5489,-3.5489,-3.5489,-3.5489,-3.5489,-3.5489,-3.5489,-3.5489,-3.5489,-3.5489,-3.5489,-3.5489,-3.5489,-3.5489,-3.5489,-3.5489,-3.5279,-3.4572,-3.3628,-3.3185,-3.2234,-3.0802,-2.9771,-2.9366,-2.9061,-2.8692,-2.8472,-2.8214,-2.8041,-2.7864,-2.7795,-2.7758,-2.767,-2.7318,-2.7143,-2.7231,-2.7205,-2.7055,-2.7469,-2.821,-2.8335,-2.8323,-2.8461,-2.8524,-2.8925,-2.9238,-2.8648,-2.7925,-2.671,-2.5768,-2.4946,-2.4625,-2.454,-2.455,-2.455,-2.454,-2.454,-5.0053,-5.009,-5.0108,-5.018,-5.0397,-5.1593,-5.1524,-5.0316,-4.9003,-4.7753,-4.6596,-4.6096,-4.5371,-4.4795,-4.4621,-4.4621,-4.4604,-4.457,-4.457,-4.435,-4.3944,-4.3572,-4.2895,-4.2066,-4.1441,-4.0984,-4.0578,-4.0273,-4.0087,-4.0087,-4.0087,-4.0087,-4.0054,-4.0037,-3.9986,-3.9935,-3.9746,-3.9642,-3.9484,-3.9309,-3.9148,-3.9272,-3.9218,-3.9023,-3.8645,-3.8181,-3.7531,-3.6906,-3.6258,-3.5797,-3.5489,-3.5489,-3.5668,-3.6022,-3.5846,-3.5683,-3.5489,-3.5489,-3.5489,-3.5489,-3.5489,-3.5489,-3.5489,-3.5489,-3.5489,-3.5489,-3.5489,-3.5489,-3.5489,-3.5489,-3.5489,-3.5489,-3.5489,-3.5489,-3.5489,-3.4566,-3.3362,-3.25,-3.1555,-3.0458,-2.9442,-2.893,-2.876,-2.8368,-2.794,-2.7754,-2.7551,-2.7316,-2.7238,-2.7243,-2.7118,-2.6879,-2.6779,-2.6917,-2.6917,-2.703,-2.7394,-2.8134,-2.7758,-2.7695,-2.7858,-2.8084,-2.8323,-2.8487,-2.8456,-2.7622,-2.5953,-2.5146,-2.4711,-2.455,-2.454,-2.455,-2.455,-2.454,-2.454,-4.9582,-5.0071,-5.009,-5.009,-5.0071,-4.9999,-5.0001,-4.9982,-4.8764,-4.77,-4.702,-4.5889,-4.509,-4.4626,-4.457,-4.457,-4.457,-4.457,-4.457,-4.4248,-4.3656,-4.3132,-4.2439,-4.1627,-4.0967,-4.0527,-4.0206,-4.0087,-4.0087,-4.0087,-4.0087,-4.0087,-4.0037,-4.0087,-4.0087,-4.0104,-3.9935,-3.9781,-3.9642,-3.9185,-3.9007,-3.9077,-3.8969,-3.8606,-3.8407,-3.7879,-3.731,-3.6662,-3.6085,-3.5619,-3.5489,-3.5489,-3.5554,-3.5668,-3.5554,-3.5554,-3.5489,-3.5489,-3.5489,-3.5489,-3.5489,-3.5489,-3.5489,-3.5489,-3.5489,-3.5489,-3.5489,-3.5489,-3.5489,-3.5489,-3.5489,-3.5489,-3.5489,-3.5489,-3.527,-3.4332,-3.3161,-3.204,-3.1075,-2.9558,-2.8569,-2.8399,-2.8186,-2.8014,-2.7588,-2.7378,-2.7178,-2.6985,-2.6804,-2.6836,-2.6848,-2.6622,-2.6697,-2.6829,-2.718,-2.7356,-2.7632,-2.7883,-2.7469,-2.7256,-2.7582,-2.777,-2.7795,-2.7681,-2.7394,-2.6324,-2.4762,-2.4377,-2.4529,-2.4454,-2.4444,-2.454,-2.454,-2.4488,-2.4385,-4.8731,-4.9112,-4.9148,-4.9148,-4.9057,-4.8659,-4.8749,-4.8872,-4.7882,-4.713,-4.6715,-4.5527,-4.4852,-4.4626,-4.457,-4.457,-4.457,-4.4553,-4.4418,-4.3859,-4.3335,-4.2574,-4.183,-4.117,-4.0578,-4.0189,-4.0087,-4.0087,-4.0087,-4.0087,-4.0087,-4.0087,-4.0087,-4.0087,-4.0087,-4.0087,-4.0054,-3.9935,-3.9677,-3.9044,-3.8827,-3.8882,-3.8717,-3.8124,-3.7953,-3.7605,-3.7071,-3.643,-3.591,-3.5569,-3.5489,-3.5489,-3.5489,-3.5489,-3.5733,-3.5733,-3.5619,-3.5554,-3.5489,-3.5489,-3.5489,-3.5489,-3.5489,-3.5489,-3.5489,-3.5489,-3.5489,-3.5489,-3.5489,-3.5489,-3.5489,-3.5489,-3.5489,-3.5489,-3.472,-3.3951,-3.2839,-3.1702,-3.0201,-2.8569,-2.7876,-2.7706,-2.7522,-2.7335,-2.7281,-2.7253,-2.7143,-2.6939,-2.6734,-2.6703,-2.6659,-2.6559,-2.6628,-2.6829,-2.7168,-2.7331,-2.7331,-2.7306,-2.7055,-2.6979,-2.7306,-2.71,-2.6834,-2.6586,-2.6311,-2.5249,-2.422,-2.4345,-2.454,-2.4478,-2.4364,-2.4333,-2.4302,-2.4281,-2.4146,-4.7735,-4.7772,-4.7699,-4.7844,-4.7717,-4.7772,-4.779,-4.7554,-4.6702,-4.6133,-4.5953,-4.5123,-4.4652,-4.4389,-4.4299,-4.4215,-4.4079,-4.4012,-4.3741,-4.3301,-4.2574,-4.1863,-4.1305,-4.0493,-4.0257,-4.0121,-4.0087,-4.0087,-4.0087,-4.0087,-4.0087,-4.0087,-4.0087,-4.0087,-4.0087,-4.0087,-4.0037,-3.9816,-3.9592,-3.9135,-3.839,-3.8463,-3.8788,-3.7621,-3.7251,-3.7011,-3.6492,-3.5973,-3.5489,-3.5489,-3.5489,-3.5489,-3.5489,-3.5489,-3.5782,-3.591,-3.5668,-3.5554,-3.5489,-3.5489,-3.5489,-3.5489,-3.5489,-3.5489,-3.5489,-3.5489,-3.5489,-3.5489,-3.5489,-3.5489,-3.5489,-3.525,-3.5145,-3.4837,-3.4153,-3.3209,-3.2051,-3.0738,-2.9147,-2.7852,-2.7693,-2.7469,-2.7469,-2.7403,-2.7403,-2.7281,-2.7146,-2.6875,-2.6794,-2.6658,-2.6521,-2.6546,-2.6753,-2.6879,-2.6741,-2.6854,-2.6728,-2.6628,-2.6647,-2.6603,-2.6841,-2.6443,-2.5828,-2.5383,-2.4993,-2.474,-2.421,-2.4137,-2.4115,-2.4126,-2.4043,-2.4053,-2.4022,-2.3929,-2.3826,-4.7699,-4.7699,-4.7699,-4.7699,-4.7699,-4.7699,-4.7699,-4.7597,-4.6566,-4.6081,-4.595,-4.5338,-4.4548,-4.3826,-4.3707,-4.3504,-4.3064,-4.3166,-4.2777,-4.2422,-4.1847,-4.1457,-4.1085,-4.0409,-4.0121,-4.0087,-4.0087,-4.0087,-4.0087,-4.0087,-4.0087,-4.0087,-4.0087,-4.0087,-4.0087,-4.007,-3.9969,-3.9592,-3.9312,-3.8887,-3.8133,-3.7748,-3.7605,-3.7027,-3.6723,-3.6616,-3.6211,-3.5846,-3.5554,-3.5489,-3.5489,-3.5489,-3.5489,-3.5489,-3.5554,-3.5604,-3.5604,-3.5489,-3.5489,-3.5489,-3.5489,-3.5489,-3.5489,-3.5489,-3.5489,-3.5489,-3.5489,-3.5489,-3.5489,-3.5489,-3.5385,-3.507,-3.4692,-3.4154,-3.3451,-3.227,-3.1059,-2.9558,-2.7987,-2.7748,-2.7549,-2.7469,-2.7469,-2.7469,-2.7469,-2.7335,-2.7146,-2.6943,-2.6875,-2.6726,-2.6589,-2.6609,-2.6942,-2.7005,-2.6728,-2.659,-2.6578,-2.6527,-2.6571,-2.6546,-2.6452,-2.5648,-2.4853,-2.4161,-2.3689,-2.3679,-2.3646,-2.3431,-2.3412,-2.3619,-2.3577,-2.3536,-2.3401,-2.3298,-2.3267,-4.7699,-4.7699,-4.7699,-4.7699,-4.7657,-4.7468,-4.7183,-4.6765,-4.6152,-4.5449,-4.4829,-4.4509,-4.4014,-4.3301,-4.3081,-4.2743,-4.2269,-4.232,-4.2117,-4.1745,-4.1407,-4.1035,-4.0629,-4.0307,-4.0172,-4.0087,-4.0087,-4.0087,-4.0087,-4.0087,-4.0087,-4.0087,-4.0087,-4.0087,-4.0087,-4.007,-3.9799,-3.9259,-3.9011,-3.843,-3.7815,-3.7557,-3.7071,-3.6538,-3.6258,-3.618,-3.5973,-3.5619,-3.5554,-3.5489,-3.5489,-3.5489,-3.5489,-3.5489,-3.5489,-3.5489,-3.5489,-3.5489,-3.5489,-3.5489,-3.5489,-3.5489,-3.5489,-3.5489,-3.5489,-3.5489,-3.5489,-3.5489,-3.5489,-3.5489,-3.531,-3.5026,-3.4456,-3.3853,-3.2413,-3.0898,-2.9728,-2.8385,-2.7668,-2.7575,-2.7469,-2.7469,-2.7469,-2.7469,-2.7469,-2.7469,-2.7281,-2.7146,-2.7079,-2.6863,-2.6739,-2.6653,-2.6924,-2.6904,-2.6603,-2.6553,-2.6615,-2.654,-2.6452,-2.5873,-2.5441,-2.4731,-2.3931,-2.3338,-2.299,-2.3108,-2.3033,-2.2974,-2.308,-2.335,-2.3184,-2.2967,-2.2842,-2.2749,-2.2531,-4.7699,-4.7699,-4.7699,-4.7627,-4.747,-4.699,-4.6347,-4.5695,-4.5439,-4.4541,-4.337,-4.3233,-4.3186,-4.2895,-4.2506,-4.2219,-4.1931,-4.1644,-4.1407,-4.1187,-4.1018,-4.0663,-4.0358,-4.0104,-4.0087,-4.0087,-4.0087,-4.0087,-4.0087,-4.0087,-4.0087,-4.0087,-4.0087,-4.0087,-4.007,-4.0003,-3.9765,-3.904,-3.8559,-3.7955,-3.7626,-3.7361,-3.6521,-3.6027,-3.5852,-3.59,-3.5533,-3.5355,-3.5355,-3.522,-3.51,-3.4981,-3.5085,-3.51,-3.5235,-3.5235,-3.5429,-3.5459,-3.5489,-3.5489,-3.5489,-3.5489,-3.5489,-3.5444,-3.5415,-3.5325,-3.531,-3.519,-3.519,-3.5175,-3.4996,-3.4446,-3.3814,-3.3013,-3.1247,-2.9758,-2.8583,-2.7549,-2.7549,-2.7469,-2.7469,-2.7469,-2.7469,-2.7469,-2.7469,-2.7469,-2.7469,-2.7403,-2.7268,-2.7079,-2.6875,-2.6726,-2.6728,-2.669,-2.6521,-2.6502,-2.6578,-2.6458,-2.6164,-2.5288,-2.4492,-2.3936,-2.3312,-2.2666,-2.2465,-2.2606,-2.2642,-2.2646,-2.2863,-2.2956,-2.2718,-2.247,-2.2511,-2.236,-2.1906,-4.7699,-4.7699,-4.7699,-4.7337,-4.6711,-4.6201,-4.5561,-4.4858,-4.4498,-4.3883,-4.2926,-4.2194,-4.1848,-4.1644,-4.1525,-4.1255,-4.0865,-4.0764,-4.0578,-4.0307,-4.0443,-4.0257,-4.0121,-4.0087,-4.0087,-4.0087,-4.0087,-4.0087,-4.0087,-4.0087,-4.0087,-4.0087,-4.0087,-4.007,-4.0104,-3.9919,-3.9547,-3.8709,-3.8133,-3.7632,-3.6405,-3.6063,-3.5614,-3.5339,-3.5216,-3.5107,-3.4934,-3.4856,-3.4793,-3.458,-3.4277,-3.4113,-3.4203,-3.4487,-3.4666,-3.4936,-3.5145,-3.54,-3.5444,-3.5489,-3.5489,-3.534,-3.5265,-3.51,-3.4951,-3.4651,-3.4487,-3.4083,-3.4098,-3.4247,-3.3976,-3.293,-3.2159,-3.1346,-3.0059,-2.8923,-2.7842,-2.7603,-2.7536,-2.7469,-2.7469,-2.7469,-2.7469,-2.7469,-2.7469,-2.7469,-2.7403,-2.7335,-2.7335,-2.7146,-2.7011,-2.6794,-2.6645,-2.6589,-2.6521,-2.6521,-2.649,-2.6327,-2.5816,-2.4731,-2.3936,-2.3361,-2.2757,-2.2297,-2.2035,-2.2014,-2.2159,-2.2356,-2.2252,-2.2273,-2.2108,-2.1973,-2.2076,-2.1906,-2.1409]},{"header":{"parameterUnit":"m.s-1","parameterCategory":1,"la1":31.0,"la2":29.5877,"lo1":-88.7671,"lo2":-86.6584,"dy":0.0162,"dx":0.0185,"nx":115,"ny":88,"refTime":"2023-08-07T12:00:00:Z","depth":0,"parameterNumber":3,"parameterNumberName":"V-component_of_WINDS"},"data":[0.0,0.0,0.0,0.0,0.0,0.0,0.0,0.0,0.0,0.0,0.0,0.0,0.0,0.0,0.0,0.0,0.0,0.0,0.0,0.0,0.0,0.0,0.0,0.0,0.0,0.0,0.0,0.0,0.0,0.0,0.0,0.0,0.0,0.0,0.0,0.0,0.0,0.0,0.0,0.0,0.0,0.0,0.0,0.0,0.0,0.0,0.0,0.0,0.0,0.0,0.0,0.0,0.0,0.0,0.0,0.0,0.0,0.0,0.0,0.0,0.0,0.0,0.0,0.0,0.0,0.0,0.0,0.0,0.0,0.0,0.0,0.0,0.0,0.0,0.0,0.0,0.0,0.0,0.0,0.0,0.0,0.0,0.0,0.0,0.0,0.0,0.0,0.0,0.0,0.0,0.0,0.0,0.0,0.0,0.0,0.0,0.0,0.0,0.0,0.0,0.0,0.0,0.0,0.0,0.0,0.0,0.0,0.0,0.0,0.0,0.0,0.0,0.0,0.0,0.0,0.0,0.0,0.0,0.0,0.0,0.0,0.0,0.0,0.0,0.0,0.0,0.0,0.0,0.0,0.0,0.0,0.0,0.0,0.0,0.0,0.0,0.0,0.0,0.0,0.0,0.0,0.0,0.0,0.0,0.0,0.0,0.0,0.0,0.0,0.0,0.0,0.0,0.0,0.0,0.0,0.0,0.0,0.0,0.0,0.0,0.0,0.0,0.0,0.0,0.0,0.0,0.0,0.0,0.0,0.0,0.0,0.0,0.0,0.0,0.0,0.0,0.0,0.0,0.0,0.0,0.0,0.0,0.0,0.0,0.0,0.0,0.0,0.0,0.0,0.0,0.0,0.0,0.0,0.0,0.0,0.0,0.0,0.0,0.0,0.0,0.0,0.0,0.0,0.0,0.0,0.0,0.0,0.0,0.0,0.0,0.0,0.0,0.0,0.0,0.0,0.0,0.0,0.0,0.0,0.0,0.0,0.0,0.0,0.0,0.0,0.0,0.0,0.0,0.0,0.0,0.0,0.0,0.0,0.0,0.0,0.0,0.0,0.0,0.0,0.0,0.0,0.0,0.0,0.0,0.0,0.0,0.0,0.0,0.0,0.0,0.0,0.0,0.0,0.0,0.0,0.0,0.0,0.0,0.0,0.0,0.0,0.0,0.0,0.0,0.0,0.0,0.0,0.0,0.0,0.0,0.0,0.0,0.0,0.0,0.0,0.0,0.0,0.0,0.0,0.0,0.0,0.0,0.0,0.0,0.0,0.0,0.0,0.0,0.0,0.0,0.0,0.0,0.0,0.0,0.0,0.0,0.0,0.0,0.0,0.0,0.0,0.0,0.0,0.0,0.0,0.0,0.0,0.0,0.0,0.0,0.0,0.0,0.0,0.0,0.0,0.0,0.0,0.0,0.0,0.0,0.0,0.0,0.0,0.0,0.0,0.0,0.0,0.0,0.0,0.0,0.0,0.0,0.0,0.0,0.0,0.0,0.0,0.0,0.0,0.0,0.0,0.0,0.0,0.0,0.0,0.0,0.0,0.0,0.0,0.0,0.0,0.0,0.0,0.0,0.0,0.0,0.0,0.0,0.0,0.0,0.0,0.0,0.0,0.0,0.0,0.0,0.0,0.0,0.0,0.0,0.0,0.0,0.0,0.0,0.0,0.0,0.0,0.0,0.0,0.0,0.0,0.0,0.0,0.0,0.0,0.0,0.0,0.0,0.0,0.0,0.0,0.0,0.0,0.0,0.0,0.0,0.0,0.0,0.0,0.0,0.0,0.0,0.0,0.0,0.0,0.0,0.0,0.0,0.0,0.0,0.0,0.0,0.0,0.0,0.0,0.0,0.0,0.0,0.0,0.0,0.0,0.0,0.0,0.0,0.0,0.0,0.0,0.0,0.0,0.0,0.0,0.0,0.0,0.0,0.0,0.0,0.0,0.0,0.0,0.0,0.0,0.0,0.0,0.0,0.0,0.0,0.0,0.0,0.0,0.0,0.0,0.0,0.0,0.0,0.0,0.0,0.0,0.0,0.0,0.0,0.0,0.0,0.0,0.0,0.0,0.0,0.0,0.0,0.0,0.0,0.0,0.0,0.0,0.0,0.0,0.0,0.0,0.0,0.0,0.0,0.0,0.0,0.0,0.0,0.0,0.0,0.0,0.0,0.0,0.0,0.0,0.0,0.0,0.0,0.0,0.0,0.0,0.0,0.0,0.0,0.0,0.0,0.0,0.0,0.0,0.0,0.0,0.0,0.0,0.0,0.0,0.0,0.0,0.0,0.0,0.0,0.0,0.0,0.0,0.0,0.0,0.0,0.0,0.0,0.0,0.0,0.0,0.0,0.0,0.0,0.0,0.0,0.0,0.0,0.0,0.0,0.0,0.0,0.0,0.0,0.0,0.0,0.0,0.0,0.0,0.0,0.0,0.0,0.0,0.0,0.0,0.0,0.0,0.0,0.0,0.0,0.0,0.0,0.0,0.0,0.0,0.0,0.0,0.0,0.0,0.0,0.0,0.0,0.0,0.0,0.0,0.0,0.0,0.0,0.0,0.0,0.0,0.0,0.0,0.0,0.0,0.0,0.0,0.0,0.0,0.0,0.0,0.0,0.0,0.0,0.0,0.0,0.0,0.0,0.0,0.0,0.0,0.0,0.0,0.0,0.0,0.0,0.0,0.0,0.0,0.0,0.0,0.0,0.0,0.0,0.0,0.0,0.0,0.0,0.0,0.0,0.0,0.0,0.0,0.0,0.0,0.0,0.0,0.0,0.0,0.0,0.0,0.0,0.0,0.0,0.0,0.0,0.0,0.0,0.0,0.0,0.0,0.0,0.0,0.0,0.0,0.0,0.0,0.0,0.0,0.0,0.0,0.0,0.0,0.0,0.0,0.0,0.0,0.0,0.0,0.0,0.0,0.0,0.0,0.0,0.0,0.0,0.0,0.0,0.0,0.0,0.0,0.0,0.0,0.0,0.0,0.0,0.0,0.0,0.0,0.0,0.0,0.0,0.0,0.0,0.0,0.0,0.0,0.0,0.0,0.0,0.0,0.0,0.0,0.0,0.0,0.0,0.0,0.0,0.0,0.0,0.0,0.0,0.0,0.0,0.0,0.0,0.0,0.0,0.0,0.0,0.0,0.0,0.0,0.0,0.0,0.0,0.0,0.0,0.0,0.0,0.0,0.0,0.0,0.0,0.0,0.0,0.0,0.0,0.0,0.0,0.0,0.0,0.0,0.0,0.0,0.0,0.0,0.0,0.0,0.0,0.0,0.0,0.0,0.0,0.0,0.0,0.0,0.0,0.0,0.0,0.0,0.0,0.0,0.0,0.0,0.0,0.0,0.0,0.0,0.0,0.0,0.0,0.0,0.0,0.0,0.0,0.0,0.0,0.0,0.0,0.0,0.0,0.0,0.0,0.0,0.0,0.0,0.0,0.0,0.0,0.0,0.0,0.0,0.0,0.0,0.0,0.0,0.0,0.0,0.0,0.0,0.0,0.0,0.0,0.0,0.0,0.0,0.0,0.0,0.0,0.0,0.0,0.0,0.0,0.0,0.0,0.0,0.0,0.0,0.0,0.0,0.0,0.0,0.0,0.0,0.0,0.0,0.0,0.0,0.0,0.0,0.0,0.0,0.0,0.0,0.0,0.0,0.0,0.0,0.0,0.0,0.0,0.0,0.0,0.0,0.0,0.0,0.0,0.0,0.0,0.0,0.0,0.0,0.0,0.0,0.0,0.0,0.0,0.0,0.0,0.0,0.0,0.0,0.0,0.0,0.0,0.0,0.0,0.0,0.0,0.0,0.0,0.0,0.0,0.0,0.0,0.0,0.0,0.0,0.0,0.0,0.0,0.0,0.0,0.0,0.0,0.0,0.0,0.0,0.0,0.0,0.0,0.0,0.0,0.0,0.0,0.0,0.0,0.0,0.0,0.0,0.0,0.0,0.0,0.0,0.0,0.0,0.0,0.0,0.0,0.0,0.0,0.0,0.0,0.0,0.0,0.0,0.0,0.0,0.0,0.0,0.0,0.0,0.0,0.0,0.0,0.0,0.0,0.0,0.0,0.0,0.0,0.0,0.0,0.0,0.0,0.0,0.0,0.0,0.0,0.0,0.0,0.0,0.0,0.0,0.0,0.0,0.0,0.0,0.0,0.0,0.0,0.0,0.0,0.0,0.0,0.0,0.0,0.0,0.0,0.0,0.0,0.0,0.0,0.0,0.0,0.0,0.0,0.0,0.0,0.0,0.0,0.0,0.0,0.0,0.0,0.0,0.0,0.0,0.0,-0.0225,0.0,0.0,0.0,0.0,0.0,0.0,0.0,0.0,0.0,0.0,0.0,0.0,0.0,0.0,0.0,0.0,0.0,0.0,0.0,0.0,0.0,0.0,0.0,0.0,0.0,0.0,0.0,0.0,0.0,0.0,0.0,0.0,0.0,0.0,0.0,0.0,0.0,0.0,0.0,0.0,0.0,0.0,0.0,0.0,0.0,0.0,0.0,0.0,0.0,0.0,0.0,0.0,0.0,0.0,0.0,0.0,0.0,0.0,0.0,0.0,0.0,0.0,0.0,0.0,0.0,0.0,0.0,0.0,0.0,0.0,0.0,0.0,0.0,0.0,0.0,0.0,0.0,0.0,0.0,0.0,0.0,0.0,0.0,0.0,0.0,0.0,0.0,0.0,0.0,0.0,0.0,0.0,0.0,0.0,0.0,0.0,0.0,0.0,0.0,0.0,0.0,0.0,0.0,0.0,0.0,0.0,0.0,0.0,0.0,0.0,0.0224,-0.0045,0.0045,-0.0045,-0.045,0.0,0.0,0.0,0.0,0.0,0.0,0.0,0.0,0.0,0.0,0.0,0.0,0.0,0.0,0.0,0.0,0.0,0.0,0.0,0.0,0.0,0.0,0.0,0.0,0.0,0.0,0.0,0.0,0.0,0.0,0.0,0.0,0.0,0.0,0.0,0.0,0.0,0.0,0.0,0.0,0.0,0.0,0.0,0.0,0.0,0.0,0.0,0.0,0.0,0.0,0.0,0.0,0.0,0.0,0.0,0.0,0.0,0.0,0.0,0.0,0.0,0.0,0.0,0.0,0.0,0.0,0.0,0.0,0.0,0.0,0.0,0.0,0.0,0.0,0.0,0.0,0.0,0.0,0.0,0.0,0.0,0.0,0.0,0.0,0.0,0.0,0.0,0.0,0.0,0.0,0.0,0.0,0.0,0.0,0.0,0.0,0.0,0.0,0.0,0.0,0.0,0.0,0.0,0.0,0.0,0.0,0.0,0.0,0.0,0.0,0.0,0.0,-0.0327,-0.0327,-0.0702,0.0,0.0,0.0,0.0,0.0,0.0,0.0,0.0,0.0,0.0,0.0,0.0,0.0,0.0,0.0,0.0,0.0,0.0,0.0,0.0,0.0,0.0,0.0,0.0,0.0,0.0,0.0,0.0,0.0,0.0,0.0,0.0,0.0,0.0,0.0,0.0,0.0,0.0,0.0,0.0,0.0,0.0,0.0,0.0,0.0,0.0,0.0,0.0,0.0,0.0,0.0,0.0,0.0,0.0,0.0,0.0,0.0,0.0,0.0,0.0,0.0,0.0,0.0,0.0,0.0,0.0,0.0,0.0,0.0,0.0,0.0,0.0,0.0,0.0,0.0,0.0,0.0,0.0,0.0,0.0,0.0,0.0,0.0,0.0,0.0,0.0,0.0,0.0,0.0,0.0,0.0,0.0,0.0,0.0,0.0,0.0,0.0,0.0,0.0,0.0,0.0,0.0,0.0,0.0,0.0,0.0,0.0,0.0,0.0,0.0,-0.0566,-0.0836,-0.0734,0.0,-0.1567,0.0,0.0,0.0,0.0,0.0,0.0,0.0,0.0,0.0,0.0,0.0,0.0,0.0,0.0,0.0,0.0,0.0,0.0,0.0,0.0,0.0,0.0,0.0,0.0,0.0,0.0,0.0,0.0,0.0,0.0,0.0,0.0,0.0,0.0,0.0,0.0,0.0,0.0,0.0,0.0,0.0,0.0,0.0,0.0,0.0,0.0,0.0,0.0,0.0,0.0,0.0,0.0,0.0,0.0,0.0,0.0,0.0,0.0,0.0,0.0,0.0,0.0,0.0,0.0,0.0,0.0,0.0,0.0,0.0,0.0,0.0,0.0,0.0,0.0,0.0,0.0,0.0,0.0,0.0,0.0,0.0,0.0,0.0,0.0,0.0,0.0,0.0,0.0,0.0,0.0,0.0,0.0,0.0,0.0,0.0,0.0,0.0,0.0,0.0,0.0,0.0,0.0,0.0,0.0,0.0,0.0,0.0,0.0,0.0,0.0,-0.2286,-0.2389,-0.2017,-0.1997,0.0,0.0,0.0,0.0,0.0,0.0,0.0,0.0,0.0,0.0,0.0,0.0,0.0,0.0,0.0,0.0,0.0,0.0,0.0,0.0,0.0,0.0,0.0,0.0,0.0,0.0,0.0,0.0,0.0,0.0,0.0,0.0,0.0,0.0,0.0,0.0,0.0,0.0,0.0,0.0,0.0,0.0,0.0,0.0,0.0,0.0,0.0,0.0,0.0,0.0,0.0,0.0,0.0,0.0,0.0,0.0,0.0,0.0,0.0,0.0,0.0,0.0,0.0,0.0,0.0,0.0,0.0,0.0,0.0,0.0,0.0,0.0,0.0,0.0,0.0,0.0,0.0,0.0,0.0,0.0,0.0,0.0,0.0,0.0,0.0,0.0,0.0,0.0,0.0,0.0,0.0,0.0,0.0,0.0,0.0,0.0,0.0,0.0,0.0,0.0,0.0,0.0,0.0,0.0,0.0,0.0,0.0,0.0,0.0,0.0,-0.3522,-0.3447,-0.3374,-0.3154,-0.2955,-0.2823,0.0,0.0,0.0,0.0,0.0,0.0,0.0,0.0,0.0,0.0,0.0,0.0,0.0,0.0,0.0,0.0,0.0,0.0,0.0,0.0,0.0,0.0,0.0,0.0,0.0,0.0,0.0,0.0,0.0,0.0,0.0,0.0,0.0,0.0,0.0,0.0,0.0,0.0,0.0,0.0,0.0,0.0,0.0,0.0,0.0,0.0,0.0,0.0,0.0,0.0,0.0,0.0,0.0,0.0,0.0,0.0,0.0,0.0,0.0,0.0,0.0,0.0,0.0,0.0,0.0,0.0,0.0,0.0,0.0,0.0,0.0,0.0,0.0,0.0,0.0,0.0,0.0,0.0,0.0,0.0,0.0,0.0,0.0,0.0,0.0,0.0,0.0,0.0,0.0,0.0,0.0,0.0,0.0,0.0,0.0,0.0,0.0,0.0,0.0,0.0,0.0,0.0,0.0,0.0,0.0,0.0,0.0,0.0,-0.4296,-0.3941,-0.3611,-0.3404,-0.3837,-0.3629,0.0,0.0,0.0,0.0,0.0,0.0,0.0,0.0,0.0,0.0,0.0,0.0,0.0,0.0,0.0,0.0,0.0,0.0,0.0,0.0,0.0,0.0,0.0,0.0,0.0,0.0,0.0,0.0,0.0,0.0,0.0,0.0,0.0,0.0,0.0,0.0,0.0,0.0,0.0,0.0,0.0,0.0,0.0,0.0,0.0,0.0,0.0,0.0,0.0,0.0,0.0,0.0,0.0,0.0,0.0,0.0,0.0,0.0,0.0,0.0,0.0,0.0,0.0,0.0,0.0,0.0,0.0,0.0,0.0,0.0,0.0,0.0,0.0,0.0,0.0,0.0,0.0,0.0,0.0,0.0,0.0,0.0,0.0,0.0,0.0,0.0,0.0,0.0,0.0,0.0,0.0,0.0,0.0,0.0,0.0,0.0,0.0,0.0,0.0,0.0,0.0,0.0,0.0,0.0,0.0,0.0,0.0,0.0,0.0,-0.4824,-0.4477,-0.4702,-0.5589,-0.4629,-0.4317,0.0,0.0,0.0,0.0,0.0,0.0,0.0,0.0,0.0,0.0,0.0,0.0,0.0,0.0,0.0,0.0,0.0,0.0,0.0,0.0,0.0,0.0,0.0,0.0,0.0,0.0,0.0,0.0,0.0,0.0,0.0,0.0,0.0,0.0,0.0,0.0,0.0,0.0,0.0,0.0,0.0,0.0,0.0,0.0,0.0,0.0,0.0,0.0,0.0,0.0,0.0,0.0,0.0,0.0,0.0,0.0,0.0,0.0,0.0,0.0,0.0,0.0,0.0,0.0,0.0,0.0,0.0,0.0,0.0,0.0,0.0,0.0,0.0,0.0,0.0,0.0,0.0,0.0,0.0,0.0,0.0,0.0,0.0,0.0,0.0,0.0,0.0,0.0,0.0,0.0,0.0,0.0,0.0,0.0,0.0,0.0,0.0,0.0,0.0,0.0,0.0,0.0,0.0,0.0,0.0,0.0,0.0,0.0,0.0,-0.596,0.0,-0.6096,-0.6992,-0.5764,-0.5199,0.0,0.0,0.0,0.0,0.0,0.0,0.0,0.0,0.0,0.0,0.0,0.0,0.0,0.0,0.0,0.0,0.0,0.0,0.0,0.0,0.0,0.0,0.0,0.0,0.0,0.0,0.0,0.0,0.0,0.0,0.0,0.0,0.0,0.0,0.0,0.0,0.0,0.0,0.0,0.0,0.0,0.0,0.0,0.0,0.0,0.0,0.0,0.0,0.0,0.0,0.0,0.0,0.0,0.0,0.0,0.0,0.0,0.0,0.0,0.0,0.0,0.0,0.0,0.0,0.0,0.0,0.0,0.0,0.0,0.0,0.0,0.0,0.0,0.0,0.0,0.0,0.0,0.0,0.0,0.0,0.0,0.0,0.0,0.0,0.0,0.0,0.0,0.0,0.0,0.0,0.0,0.0,0.0,0.0,0.0,0.0,0.0,0.0,0.0,0.0,0.0,0.0,0.0,0.0,0.0,0.0,0.0,0.0,-0.6449,-0.7688,-0.7683,-0.7593,-0.741,-0.7146,-0.6187,0.0,0.0,0.0,0.0,0.0,0.0,0.0,0.0,0.0,0.0,0.0,0.0,0.0,0.0,0.0,0.0,0.0,0.0,0.0,0.0,0.0,0.0,0.0,0.0,0.0,0.0,0.0,0.0,0.0,0.0,0.0,0.0,0.0,0.0,0.0,0.0,0.0,0.0,0.0,0.0,0.0,0.0,0.0,0.0,0.0,0.0,0.0,0.0,0.0,0.0,0.0,0.0,0.0,0.0,0.0,0.0,0.0,0.0,0.0,0.0,0.0,0.0,0.0,0.0,0.0,0.0,0.0,0.0,0.0,0.0,0.0,0.0,0.0,0.0,0.0,0.0,0.0,0.0,0.0,0.0,0.0,0.0,0.0,0.0,0.0,0.0,0.0,0.0,0.0,0.0,0.0,0.0,0.0,0.0,0.0,0.0,0.0,0.0,0.0,0.0,0.0,0.0,0.0,0.0,0.0,0.0,0.0,0.0,0.0,-0.7283,-0.7736,-0.8433,-0.9342,-0.7535,-0.6826,0.0,0.0,0.0,0.0,0.0,0.0,0.0,0.0,0.0,0.0,0.0,0.0,0.0,0.0,0.0,0.0,0.0,0.0,0.0,0.0,0.0,0.0,0.0,0.0,0.0,0.0,0.0,0.0,0.0,0.0,0.0,0.0,0.0,0.0,0.0,0.0,0.0,0.0,0.0,0.0,0.0,0.0,0.0,0.0,0.0,0.0,0.0,0.0,0.0,0.0,0.0,0.0,0.0,0.0,0.0,0.0,0.0,0.0,0.0,0.0,0.0,0.0,0.0,0.0,0.0,0.0,0.0,0.0,0.0,0.0,0.0,0.0,0.0,0.0,0.0,0.0,0.0,0.0,0.0,0.0,0.0,0.0,0.0,0.0,0.0,0.0,0.0,0.0,0.0,0.0,0.0,0.0,0.0,0.0,0.0,0.0,0.0,0.0,0.0,0.0,0.0,0.0,0.0,0.0,0.0,0.0,0.0,0.0,0.0,-0.8792,-0.9155,-0.9747,-1.0572,-0.8711,-0.7955,-0.8287,0.0,0.0,0.0,0.0,0.0,0.0,0.0,0.0,0.0,0.0,0.0,0.0,0.0,0.0,0.0,0.0,0.0,0.0,0.0,0.0,0.0,0.0,0.0,0.0,0.0,0.0,0.0,0.0,0.0,0.0,0.0,0.0,0.0,0.0,0.0,0.0,0.0,0.0,0.0,0.0,0.0,0.0,0.0,0.0,0.0,0.0,0.0,0.0,0.0,0.0,0.0,0.0,0.0,0.0,0.0,0.0,0.0,0.0,0.0,0.0,0.0,0.0,0.0,0.0,0.0,0.0,0.0,0.0,0.0,0.0,0.0,0.0,0.0,0.0,0.0,0.0,0.0,0.0,0.0,0.0,0.0,0.0,0.0,0.0,0.0,0.0,0.0,0.0,0.0,0.0,0.0,0.0,0.0,0.0,0.0,0.0,0.0,0.0,0.0,0.0,0.0,0.0,0.0,0.0,0.0,0.0,0.0,0.0,-1.1765,-1.1695,-1.149,-1.1047,-1.0627,-0.9395,0.0,0.0,0.0,0.0,0.0,0.0,0.0,0.0,0.0,0.0,0.0,0.0,0.0,0.0,0.0,0.0,0.0,0.0,0.0,0.0,0.0,0.0,0.0,0.0,0.0,0.0,0.0,0.0,0.0,0.0,0.0,0.0,0.0,0.0,0.0,0.0,0.0,0.0,0.0,0.0,0.0,0.0,0.0,0.0,0.0,0.0,0.0,0.0,0.0,0.0,0.0,0.0,0.0,0.0,0.0,0.0,0.0,0.0,0.0,0.0,0.0,0.0,0.0,0.0,0.0,0.0,0.0,0.0,0.0,0.0,0.0,0.0,0.0,0.0,0.0,0.0,0.0,0.0,0.0,0.0,0.0,0.0,0.0,0.0,0.0,0.0,0.0,0.0,0.0,0.0,0.0,0.0,0.0,0.0,0.0,0.0,0.0,0.0,0.0,0.0,0.0,0.0,0.0,0.0,0.0,0.0,0.0,0.0,0.0,-1.2857,-1.3635,-1.3788,-1.3194,-1.1801,-1.0666,0.0,0.0,0.0,0.0,0.0,0.0,0.0,0.0,0.0,0.0,0.0,0.0,0.0,0.0,0.0,0.0,0.0,0.0,0.0,0.0,0.0,0.0,0.0,0.0,0.0,0.0,0.0,0.0,0.0,0.0,0.0,0.0,0.0,0.0,0.0,0.0,0.0,0.0,0.0,0.0,0.0,0.0,0.0,0.0,0.0,0.0,0.0,0.0,0.0,0.0,0.0,0.0,0.0,0.0,0.0,0.0,0.0,0.0,0.0,0.0,0.0,0.0,0.0,0.0,0.0,0.0,0.0,0.0,0.0,0.0,0.0,0.0,0.0,0.0,0.0,0.0,0.0,0.0,0.0,0.0,0.0,0.0,0.0,0.0,0.0,0.0,0.0,0.0,0.0,0.0,0.0,0.0,0.0,0.0,0.0,0.0,0.0,0.0,0.0,0.0,0.0,0.0,0.0,0.0,0.0,0.0,0.0,0.0,-1.292,-1.4015,-1.4864,-1.5164,-1.4818,-1.3166,-1.1669,0.0,0.0,0.0,0.0,0.0,0.0,0.0,0.0,0.0,0.0,0.0,0.0,0.0,0.0,0.0,0.0,0.0,0.0,0.0,0.0,0.0,0.0,0.0,0.0,0.0,0.0,0.0,0.0,0.0,0.0,0.0,0.0,0.0,0.0,0.0,0.0,0.0,0.0,0.0,0.0,0.0,0.0,0.0,0.0,0.0,0.0,0.0,0.0,0.0,0.0,0.0,0.0,0.0,0.0,0.0,0.0,0.0,0.0,0.0,0.0,0.0,0.0,0.0,0.0,0.0,0.0,0.0,0.0,0.0,0.0,0.0,0.0,0.0,0.0,0.0,0.0,0.0,0.0,0.0,0.0,0.0,0.0,0.0,0.0,0.0,0.0,0.0,0.0,0.0,0.0,0.0,0.0,0.0,0.0,0.0,0.0,0.0,0.0,0.0,0.0,0.0,0.0,0.0,0.0,0.0,0.0,0.0,0.0,-1.3837,-1.497,-1.5603,-1.5899,-1.5922,-1.446,-1.255,0.0,0.0,0.0,0.0,0.0,0.0,0.0,0.0,0.0,0.0,0.0,0.0,0.0,0.0,0.0,0.0,0.0,0.0,0.0,0.0,0.0,0.0,0.0,0.0,0.0,0.0,0.0,0.0,0.0,0.0,0.0,0.0,0.0,0.0,0.0,0.0,0.0,0.0,0.0,0.0,0.0,0.0,0.0,0.0,0.0,0.0,0.0,0.0,0.0,0.0,0.0,0.0,0.0,0.0,0.0,0.0,0.0,0.0,0.0,0.0,0.0,0.0,0.0,0.0,0.0,0.0,0.0,0.0,0.0,0.0,0.0,0.0,0.0,0.0,0.0,0.0,0.0,0.0,0.0,0.0,0.0,0.0,0.0,0.0,0.0,0.0,0.0,0.0,0.0,0.0,0.0,0.0,0.0,0.0,0.0,0.0,0.0,0.0,0.0,0.0,0.0,0.0,0.0,0.0,0.0,0.0,0.0,0.0,-1.4222,-1.4977,-1.5889,-1.6557,-1.6843,-1.4988,-1.3371,0.0,0.0,0.0,0.0,0.0,0.0,0.0,0.0,0.0,0.0,0.0,0.0,0.0,0.0,0.0,0.0,0.0,0.0,0.0,0.0,0.0,0.0,0.0,0.0,0.0,0.0,0.0,0.0,0.0,0.0,0.0,0.0,0.0,0.0,0.0,0.0,0.0,0.0,0.0,0.0,0.0,0.0,0.0,0.0,0.0,0.0,0.0,0.0,0.1846,0.0,0.0,0.0,0.0,0.0,0.0,0.0,0.0,0.0,0.0,0.0,0.0,0.0,0.0,0.0,0.0,0.0,0.0,0.0,0.0,0.0,0.0,0.0,0.0,0.0,0.0,0.0,0.0,0.0,0.0,0.0,0.0,0.0,0.0,0.0,0.0,0.0,0.0,0.0,0.0,0.0,0.0,0.0,0.0,0.0,0.0,0.0,0.0,0.0,0.0,0.0,0.0,0.0,0.0,0.0,0.0,0.0,0.0,0.0,-1.6134,-1.7235,-1.7877,-1.8241,-1.8403,-1.6957,-1.5262,0.0,0.0,0.0,0.0,0.0,0.0,0.0,0.0,0.0,0.0,0.0,0.0,0.0,0.0,0.0,0.0,0.0,0.0,0.0,0.0,0.0,0.0,0.0,0.0,0.0,0.0,0.0,0.0,0.0,0.0,0.0,0.0,0.0,0.0,0.0,0.0,0.0,0.0,0.0,0.0,0.0,0.0,0.0,0.0,0.0,0.0,0.0,0.0,0.0,0.0,0.0,0.0,0.0,0.0,0.0,0.0,0.0,0.0,0.0,0.0,0.0,0.0,0.0,0.0,0.0,0.0,0.0,0.0,0.0,0.0,0.0,0.0,0.0,0.0,0.0,0.0,0.0,0.0,0.0,0.0,0.0,0.0,0.0,0.0,0.0,0.0,0.0,0.0,0.0,0.0,0.0,0.0,0.0,0.0,0.0,0.0,0.0,0.0,0.0,0.0,0.0,0.0,0.0,0.0,0.0,0.0,0.0,-1.6603,-1.8129,-1.9782,-1.9872,-1.9977,-2.0059,-1.9154,-1.7421,-1.4825,0.0,0.0,0.0,0.0,0.0,0.0,0.0,0.0,0.0,0.0,0.0,0.0,0.0,0.0,0.0,0.0,0.0,0.0,0.0,0.0,0.0,0.0,0.0,0.0,0.0,0.0,0.0,0.0,0.0,0.0,0.0,0.0,0.0,0.0,0.0,0.0,0.0,0.0,0.3434,0.4141,0.0,0.0,0.0,0.0,0.0,0.0,0.0,0.0,-0.0695,0.0,0.0,0.0,0.0,0.0,0.0,0.0,0.0,0.0,0.0,0.0,0.0,0.0,0.0,0.0,0.0,0.0,0.0,0.0,0.0,0.0,0.0,0.0,0.0,0.0,0.0,0.0,0.0,0.0,0.0,0.0,0.0,0.0,0.0,0.0,0.0,0.0,0.0,0.0,0.0,0.0,0.0,0.0,0.0,0.0,0.0,0.0,0.0,0.0,0.0,0.0,0.0,0.0,0.0,0.0,0.0,-1.718,-1.6701,-1.7605,-1.9957,-1.9962,-2.0249,-2.0953,-2.0035,-1.8674,-1.6987,0.0,0.0,0.0,0.0,0.0,0.0,0.0,0.0,0.0,0.0,0.0,0.0,0.0,0.0,0.0,0.0,0.0,0.0,0.0,0.0,0.0,0.0,0.0,0.0,0.0,0.0,0.0,0.0,0.0,0.0,0.0,0.0,0.0,0.0,0.0,0.0,0.0,0.0,0.0,0.1979,0.2015,0.0,0.0,0.0,0.0,0.0,0.0,0.0,0.0,-0.3477,0.0,0.0,0.0,0.0,0.0,0.0,0.0,0.0,0.0,0.0,0.0,0.0,0.0,0.0,0.0,0.0,0.0,0.0,0.0,0.0,0.0,0.0,0.0,0.0,0.0,0.0,0.0,0.0,0.0,0.0,0.0,0.0,0.0,0.0,0.0,0.0,0.0,0.0,0.0,0.0,0.0,0.0,0.0,0.0,0.0,0.0,0.0,0.0,0.0,0.0,0.0,0.0,0.0,0.0,0.0,-1.7879,-1.8648,-1.9916,-2.1764,-2.1682,-2.1784,-2.2208,-2.0633,-1.9097,0.0,0.0,0.0,0.0,0.0,0.0,0.0,0.0,0.0,0.0,0.0,0.0,0.0,0.0,0.0,0.0,0.0,0.0,0.0,0.0,0.0,0.0,0.0,0.0,0.0,0.0,0.0,0.0,0.0,0.0,0.0,0.0,0.0,0.0,0.0,0.0,0.0,0.0,0.0,0.0,-0.0117,-0.0428,-0.1014,0.0,0.0,0.0,0.0,0.0,0.0,-0.5686,-0.5485,0.0,0.0,0.0,0.0,0.0,0.0,0.0,0.0,0.0,0.0,0.0,0.0,0.0,0.0,0.0,0.0,0.0,0.0,0.0,0.0,0.0,0.0,0.0,0.0,0.0,0.0,0.0,0.0,0.0,0.0,0.0,0.0,0.0,0.0,0.0,0.0,0.0,0.0,0.0,0.0,0.0,0.0,0.0,0.0,0.0,0.0,0.0,0.0,0.0,0.0,0.0,0.0,0.0,0.0,0.0,-1.8472,-2.0337,-2.2078,-2.3511,-2.3319,-2.3144,-2.3105,-2.1211,-1.9418,0.0,0.0,0.0,0.0,0.0,0.0,0.0,0.0,0.0,0.0,0.0,0.0,0.0,0.0,0.0,0.0,0.0,0.0,0.0,0.0,0.0,0.0,0.0,0.0,0.0,0.0,0.0,0.0,0.0,0.0,0.0,0.0,0.0,0.0,0.0,0.0,0.0,0.0,0.0,0.0,0.0,-0.322,-0.337,-0.4556,0.0,0.0,0.0,0.0,-0.6983,-0.7299,0.0,0.0,0.0,0.0,0.0,0.0,0.0,0.0,0.0,0.0,0.0,0.0,0.0,0.0,0.0,0.0,0.0,0.0,0.0,0.0,0.0,0.0,0.0,0.0,0.0,0.0,0.0,0.0,0.0,0.0,0.0,0.0,0.0,0.0,0.0,0.0,0.0,0.0,0.0,0.0,0.0,0.0,0.0,0.0,0.0,0.0,0.0,0.0,0.0,0.0,0.0,0.0,0.0,0.0,0.0,0.0,-1.8757,-2.0092,-2.1708,-2.3624,-2.359,-2.3319,-2.3125,-2.1807,-2.0117,0.0,0.0,0.0,0.0,0.0,0.0,0.0,0.0,0.0,0.0,0.0,0.0,0.0,0.0,0.0,0.0,0.0,0.0,0.0,0.0,0.0,0.0,0.0,0.0,0.0,0.0,0.0,0.0,0.0,0.0,0.0,0.0,0.0,0.0,0.0,0.0,0.0,0.0,0.0,0.0,0.0,-0.6602,-0.514,-0.6018,-0.6768,0.0,0.0,-0.7475,-0.8586,-0.912,0.0,0.0,0.0,0.0,0.0,0.0,0.0,0.0,0.0,0.0,0.0,0.0,0.0,0.0,0.0,0.0,0.0,0.0,0.0,0.0,0.0,0.0,0.0,0.0,0.0,0.0,0.0,0.0,0.0,0.0,0.0,0.0,0.0,0.0,0.0,0.0,0.0,0.0,0.0,0.0,0.0,0.0,0.0,0.0,0.0,0.0,0.0,0.0,0.0,0.0,0.0,0.0,0.0,0.0,0.0,-1.6382,-1.8875,-2.0815,-2.2534,-2.3963,-2.3764,-2.358,-2.3474,-2.1501,-1.9746,0.0,0.0,0.0,0.0,0.0,0.0,0.0,0.0,0.0,0.0,0.0,0.0,0.0,0.0,0.0,0.0,0.0,0.0,0.0,0.0,0.0,0.0,0.0,0.0,0.0,0.0,0.0,0.0,0.0,0.0,0.0,0.0,0.0,0.0,0.0,0.0,0.0,0.0,0.0,0.0,0.0,0.0,-0.8,-0.7966,0.0,0.0,0.0,-0.8433,-0.9472,0.0,0.0,0.0,0.0,0.0,0.0,0.0,0.0,0.0,0.0,0.0,0.0,0.0,0.0,0.0,0.0,0.0,0.0,0.0,0.0,0.0,0.0,0.0,0.0,0.0,0.0,0.0,0.0,0.0,0.0,0.0,0.0,0.0,0.0,0.0,0.0,0.0,0.0,0.0,0.0,0.0,0.0,0.0,0.0,0.0,0.0,0.0,0.0,0.0,0.0,0.0,0.0,0.0,0.0,0.0,0.0,0.0,-1.9162,-2.1624,-2.3288,-2.4155,-2.4024,-2.3841,-2.38,-2.1467,0.0,0.0,0.0,0.0,0.0,0.0,0.0,0.0,0.0,0.0,0.0,0.0,0.0,0.0,0.0,0.0,0.0,0.0,0.0,0.0,0.0,0.0,0.0,0.0,0.0,0.0,0.0,-0.8048,0.0,0.0,0.0,0.0,0.0,0.0,0.0,0.0,0.0,0.0,0.0,0.0,0.0,0.0,-1.0748,-1.0487,-0.9887,-0.9422,0.0,0.0,-0.9326,-0.9905,-1.0541,-1.0935,0.0,0.0,0.0,0.0,0.0,0.0,0.0,0.0,0.0,0.0,0.0,0.0,0.0,0.0,0.0,0.0,0.0,0.0,0.0,0.0,0.0,0.0,0.0,0.0,0.0,0.0,0.0,0.0,0.0,0.0,0.0,0.0,0.0,0.0,0.0,0.0,0.0,0.0,0.0,0.0,0.0,0.0,0.0,0.0,0.0,0.0,0.0,0.0,0.0,0.0,0.0,0.0,0.0,0.0,0.0,-1.9726,-2.2004,-2.3546,-2.4155,-2.4206,-2.4024,-2.381,-2.207,-2.031,0.0,0.0,0.0,0.0,0.0,0.0,0.0,0.0,0.0,0.0,0.0,0.0,0.0,0.0,0.0,0.0,0.0,0.0,0.0,0.0,0.0,0.0,0.0,0.0,0.0,0.0,0.0,0.0,0.0,0.0,0.0,0.0,0.0,0.0,0.0,0.0,0.0,0.0,0.0,0.0,0.0,-1.3791,-1.1925,-1.1842,-1.1212,0.0,0.0,-0.9987,-0.9729,-1.1523,-1.2696,-1.1946,0.0,0.0,0.0,0.0,0.0,0.0,0.0,0.0,0.0,0.0,0.0,0.0,0.0,0.0,0.0,0.0,0.0,0.0,0.0,0.0,0.0,0.0,0.0,0.0,0.0,0.0,0.0,0.0,0.0,0.0,0.0,0.0,0.0,0.0,0.0,0.0,0.0,0.0,0.0,0.0,0.0,0.0,0.0,0.0,0.0,0.0,0.0,0.0,0.0,0.0,0.0,0.0,0.0,-1.7711,-1.9396,-2.1863,-2.3536,-2.4327,-2.4378,-2.4368,-2.4272,-2.2797,-2.1148,0.0,0.0,0.0,0.0,0.0,0.0,0.0,0.0,0.0,0.0,0.0,0.0,0.0,0.0,0.0,0.0,0.0,0.0,0.0,0.0,0.0,0.0,0.0,0.0,0.0,0.0,0.0,0.0,-1.0323,-1.0249,-0.9958,0.0,0.0,0.0,0.0,0.0,0.0,0.0,0.0,0.0,0.0,-1.557,-1.5626,-1.4065,0.0,0.0,-1.1156,-1.1002,-1.1952,-1.2437,-1.2866,-1.3494,-1.2971,0.0,0.0,0.0,0.0,0.0,0.0,0.0,0.0,0.0,0.0,0.0,0.0,0.0,0.0,0.0,0.0,0.0,0.0,0.0,0.0,0.0,0.0,0.0,0.0,0.0,0.0,0.0,0.0,0.0,0.0,0.0,0.0,0.0,0.0,0.0,0.0,0.0,0.0,0.0,0.0,0.0,0.0,0.0,0.0,0.0,0.0,0.0,0.0,0.0,0.0,0.0,0.0,-1.7796,-1.953,-2.1925,-2.3629,-2.4433,-2.455,-2.455,-2.4509,-2.3215,-2.1694,0.0,0.0,0.0,0.0,0.0,0.0,0.0,0.0,0.0,0.0,0.0,0.0,0.0,0.0,0.0,0.0,0.0,0.0,0.0,0.0,0.0,0.0,0.0,0.0,0.0,0.0,0.0,0.0,-1.1619,-1.1313,-1.0428,0.0,0.0,0.0,0.0,0.0,0.0,0.0,0.0,0.0,0.0,-1.7772,-1.8609,-1.6561,-1.4961,-1.4601,-1.3476,-1.2965,-1.3734,-1.385,-1.3954,-1.4231,0.0,0.0,0.0,0.0,0.0,0.0,0.0,0.0,0.0,0.0,0.0,0.0,0.0,0.0,0.0,0.0,0.0,0.0,0.0,0.0,0.0,0.0,0.0,0.0,0.0,0.0,0.0,0.0,0.0,0.0,-1.0937,0.0,0.0,0.0,0.0,0.0,0.0,0.0,0.0,0.0,0.0,0.0,0.0,0.0,0.0,0.0,0.0,0.0,0.0,0.0,0.0,0.0,0.0,-1.8066,-2.0447,-2.2244,-2.3629,-2.4509,-2.455,-2.455,-2.4519,-2.3225,-2.1849,-2.042,0.0,0.0,0.0,0.0,0.0,0.0,0.0,0.0,0.0,0.0,0.0,0.0,0.0,0.0,0.0,0.0,0.0,0.0,0.0,0.0,0.0,0.0,0.0,0.0,0.0,0.0,-1.2224,-1.1666,-1.1088,0.0,0.0,0.0,0.0,0.0,0.0,0.0,0.0,0.0,0.0,-1.9809,-2.0503,-2.037,-1.9476,-1.8196,-1.6685,-1.6522,-1.6025,-1.4609,-1.599,-1.6413,0.0,0.0,0.0,0.0,0.0,0.0,0.0,0.0,0.0,0.0,0.0,0.0,0.0,0.0,0.0,0.0,0.0,0.0,0.0,0.0,0.0,0.0,0.0,0.0,0.0,0.0,0.0,-1.4733,-1.5351,0.0,0.0,0.0,0.0,0.0,0.0,0.0,0.0,0.0,0.0,0.0,-1.8963,-1.9897,0.0,0.0,0.0,0.0,0.0,0.0,0.0,0.0,0.0,0.0,0.0,0.0,-1.8254,-2.0023,-2.2091,-2.3629,-2.4509,-2.455,-2.455,-2.4444,-2.3805,-2.2325,-2.0038,0.0,0.0,0.0,0.0,0.0,0.0,0.0,0.0,0.0,0.0,0.0,0.0,0.0,0.0,0.0,0.0,0.0,0.0,0.0,0.0,0.0,0.0,0.0,0.0,0.0,-1.2975,0.0,0.0,0.0,0.0,0.0,0.0,0.0,0.0,0.0,0.0,0.0,-1.9343,-2.0501,-2.1563,-2.2187,-2.1956,-2.0755,-1.9643,0.0,0.0,0.0,0.0,0.0,0.0,0.0,0.0,0.0,0.0,0.0,0.0,0.0,0.0,-1.5029,-1.2157,-1.1457,-1.1005,-0.9995,0.0,0.0,0.0,0.0,0.0,0.0,0.0,0.0,0.0,0.0,0.0,0.0,0.0,0.0,-1.6421,0.0,-1.6383,0.0,0.0,0.0,0.0,0.0,0.0,0.0,0.0,-1.9783,-2.0827,-2.1131,-2.1936,-2.1886,0.0,-2.111,-1.9877,0.0,0.0,0.0,0.0,0.0,0.0,0.0,0.0,-1.8721,-2.0452,-2.2418,-2.3784,-2.4498,-2.455,-2.455,-2.4444,-2.3795,-2.2397,-2.0296,-1.8506,-1.7057,0.0,0.0,0.0,0.0,0.0,0.0,0.0,0.0,0.0,0.0,0.0,0.0,0.0,0.0,0.0,0.0,0.0,0.0,0.0,0.0,0.0,0.0,0.0,-1.4171,0.0,0.0,0.0,0.0,0.0,0.0,0.0,0.0,0.0,-1.6479,-1.8931,-2.1219,-2.2548,-2.3307,-2.3616,-2.3403,0.0,0.0,0.0,0.0,0.0,0.0,0.0,-1.9454,-1.9445,-1.8331,-1.7352,-1.6828,-1.6767,-1.669,-1.6158,0.0,0.0,-1.3096,-1.2475,-1.2056,-1.1012,-1.0217,-0.961,-0.9146,-0.8692,-0.8356,0.0,0.0,0.0,0.0,0.0,0.0,0.0,0.0,-1.691,-1.762,0.0,-1.7613,0.0,0.0,0.0,0.0,0.0,-1.9333,0.0,0.0,-2.2694,-2.3579,-2.3311,-2.3866,-2.3961,-2.3584,-2.4091,-2.3454,-2.1704,-1.8602,0.0,0.0,0.0,0.0,0.0,0.0,-1.9572,-2.1766,-2.3163,-2.4095,-2.4529,-2.455,-2.455,-2.4509,-2.3246,-2.2108,-2.1186,-2.0234,-1.8744,-1.6581,-1.596,0.0,0.0,0.0,0.0,0.0,0.0,0.0,0.0,0.0,0.0,0.0,0.0,0.0,0.0,0.0,0.0,0.0,0.0,0.0,0.0,-1.5148,0.0,0.0,0.0,0.0,0.0,0.0,0.0,0.0,0.0,0.0,-2.0341,-2.1235,-2.2663,-2.4625,0.0,0.0,0.0,0.0,-2.37,-2.3547,-2.3466,-2.3493,-2.3634,-2.347,-2.3035,-2.2111,0.0,0.0,-1.897,-1.8709,-1.8423,-1.7064,-1.6872,-1.6343,-1.5248,-1.4458,-1.3532,-1.205,-1.1401,-1.1011,-1.0689,-1.0633,-1.0665,-1.8331,0.0,0.0,0.0,0.0,-1.7746,-1.8807,-2.0458,-2.024,-2.021,-2.0345,-2.021,0.0,0.0,0.0,0.0,0.0,0.0,-2.1014,-2.1818,-2.2788,-2.3492,-2.4088,-2.4307,-2.4392,-2.4183,-2.4392,-2.4105,-2.3256,-2.1958,-1.9833,-1.6956,0.0,0.0,0.0,0.0,-2.099,-2.2273,-2.3339,-2.4095,-2.454,-2.455,-2.455,-2.454,-2.3536,-2.2708,-2.2118,-2.0897,-1.9644,-1.835,-1.6953,0.0,0.0,0.0,0.0,0.0,0.0,0.0,0.0,0.0,0.0,0.0,0.0,0.0,0.0,0.0,0.0,0.0,0.0,0.0,-1.5307,-1.5981,-1.6266,0.0,0.0,0.0,0.0,0.0,0.0,0.0,0.0,0.0,-2.3883,-2.4374,-2.4774,0.0,0.0,-2.581,-2.507,-2.5451,-2.5733,-2.5593,0.0,0.0,0.0,-2.5338,-2.491,-2.4314,-2.4171,-2.3802,-2.2715,-2.1777,-2.0898,-1.9991,-1.8656,-1.7413,-1.7056,-1.5689,-1.4338,-1.3048,-1.2362,-1.2135,-1.2531,-1.1934,-1.1354,-2.1399,-1.9805,-1.9075,-1.9145,-1.9825,-2.0066,-2.0898,-2.208,-2.1727,-2.1752,-2.1973,-2.1644,-2.1058,-2.0178,-2.0597,0.0,0.0,0.0,-2.2797,-2.3423,-2.369,-2.4093,-2.4529,-2.455,-2.455,-2.455,-2.455,-2.4405,-2.4136,-2.3857,-2.2346,-1.9706,0.0,0.0,-1.9406,-2.0886,-2.2118,-2.3029,-2.3764,-2.4271,-2.4529,-2.455,-2.455,-2.4433,-2.366,-2.3049,-2.277,-2.1611,-2.0462,-1.9453,-1.8373,-1.7424,0.0,0.0,0.0,0.0,0.0,0.0,0.0,0.0,0.0,0.0,0.0,-1.4137,0.0,0.0,0.0,0.0,-1.5452,-1.6546,-1.7363,-1.8172,0.0,0.0,0.0,0.0,0.0,0.0,0.0,-2.352,-2.4037,-2.4809,-2.6394,-2.7042,-2.7152,-2.6561,-2.6709,-2.6729,-2.6314,0.0,-2.7188,-2.7036,-2.7673,-2.811,-2.7834,-2.7415,-2.7079,-2.7079,-2.7396,-2.7212,-2.6193,-2.4779,-2.3547,-2.2537,-2.0791,-1.9261,-1.8559,-1.7351,-1.6149,-1.486,-1.4307,-1.4255,-1.4739,-1.4061,-1.3587,-2.4228,-2.3817,-2.2103,-2.1583,-2.1959,-2.2411,-2.2449,-2.2407,-2.2095,-2.2511,-2.3356,-2.2336,-2.2278,-2.3184,-2.3076,0.0,-2.4588,-2.5088,-2.5233,-2.5233,-2.5233,-2.4985,-2.455,-2.455,-2.455,-2.455,-2.455,-2.455,-2.454,-2.454,-2.3908,-2.2666,-2.1807,-2.1549,-2.1869,-2.2387,-2.308,-2.3908,-2.4333,-2.454,-2.455,-2.455,-2.4433,-2.4478,-2.3639,-2.3234,-2.313,-2.2211,-2.1135,-1.999,-1.9754,-1.8956,-1.7326,0.0,0.0,0.0,0.0,0.0,0.0,0.0,0.0,0.0,0.0,0.0,0.0,0.0,0.0,0.0,-1.8277,0.0,-1.9968,-2.1116,0.0,0.0,0.0,-2.273,-2.3096,-2.3911,-2.4881,-2.6049,0.0,0.0,-2.8285,0.0,-2.9646,-2.8599,-2.7968,-2.7675,-2.8025,-2.8268,-2.8344,-2.8166,-2.8737,-2.9459,-2.9834,-2.9578,-2.9515,-3.0011,-3.0913,-3.0724,-2.9174,-2.7779,-2.6351,-2.4767,-2.3167,-2.1471,-1.9797,-1.9455,-1.8921,-1.7301,-1.6748,-1.6601,-1.6667,-1.6519,-1.6445,-2.4388,-2.4354,-2.3837,-2.3536,-2.3224,-2.3589,-2.3589,-2.3334,-2.3263,-2.3046,-2.2831,-2.2735,-2.327,-2.4274,-2.4247,-2.4715,-2.5564,-2.5678,-2.5544,-2.5244,-2.5233,-2.4995,-2.455,-2.455,-2.455,-2.455,-2.455,-2.455,-2.455,-2.455,-2.4385,-2.4053,-2.3753,-2.3267,-2.2408,-2.3474,-2.4157,-2.4374,-2.4488,-2.455,-2.455,-2.455,-2.4374,-2.4043,-2.3484,-2.3081,-2.2895,-2.188,-2.1021,-2.0543,-1.9417,-1.8584,-1.8272,-1.6655,0.0,0.0,0.0,0.0,0.0,0.0,0.0,0.0,0.0,-1.7463,-1.5643,0.0,-1.8141,0.0,-2.0182,-2.1144,-2.1775,-2.2596,0.0,0.0,-2.525,-2.6483,-2.7921,-2.7918,-2.8313,-2.9529,-2.9638,-2.9819,-3.0077,-3.0417,-3.0716,-3.0835,-2.967,-2.8675,-2.8675,-2.922,-2.9605,-2.9605,-3.0101,-3.0583,-3.081,-3.1145,-3.1609,-3.2321,-3.2593,-3.2253,-3.0882,-3.0004,-2.8778,-2.6494,-2.4865,-2.3448,-2.2273,-2.1527,-2.0682,-1.9659,-1.806,-1.6944,-1.7504,-1.7188,-1.6944,-2.4451,-2.4523,-2.4327,-2.4016,-2.3659,-2.3921,-2.4157,-2.4179,-2.4011,-2.3593,-2.3109,-2.3637,-2.4143,-2.4886,-2.5545,-2.6115,-2.6486,-2.6496,-2.6258,-2.5823,-2.5616,-2.5285,-2.484,-2.4643,-2.455,-2.455,-2.455,-2.455,-2.455,-2.455,-2.455,-2.455,-2.455,-2.4167,-2.3474,-2.4167,-2.455,-2.455,-2.455,-2.455,-2.455,-2.455,-2.4333,-2.3888,-2.3727,-2.3271,-2.2424,-2.2144,-2.1561,-2.051,-1.9868,-1.9503,-1.9402,-1.8147,-1.7478,0.0,0.0,0.0,0.0,0.0,0.0,0.0,0.0,0.0,0.0,0.0,-1.9913,0.0,-2.2581,-2.3616,-2.4327,-2.5481,-2.6426,-2.7119,-2.8369,-2.9619,-3.0628,-3.0394,-3.0622,-3.1562,-3.1458,-3.1298,-3.1605,-3.1833,-3.2209,-3.2685,-3.1915,-3.1035,-3.0694,-3.1229,-3.1664,-3.1428,-3.1977,-3.2312,-3.2009,-3.2577,-3.3199,-3.3616,-3.3988,-3.3782,-3.2321,-3.1402,-3.0079,-2.7815,-2.6139,-2.4648,-2.3566,-2.2735,-2.1928,-2.0991,-1.9875,-1.885,-1.8567,-1.8238,-1.7997,-2.4393,-2.4233,-2.4015,-2.3794,-2.3586,-2.3804,-2.4186,-2.4684,-2.4401,-2.399,-2.3651,-2.4336,-2.4698,-2.4992,-2.637,-2.7061,-2.7262,-2.7272,-2.6972,-2.6465,-2.6061,-2.5616,-2.513,-2.4736,-2.455,-2.455,-2.455,-2.455,-2.455,-2.455,-2.455,-2.455,-2.455,-2.455,-2.455,-2.455,-2.455,-2.455,-2.455,-2.455,-2.455,-2.455,-2.4302,-2.3888,-2.4095,-2.3434,-2.1964,-2.2728,-2.2355,-2.0554,-2.0843,-2.0989,-2.071,-2.0157,-1.957,0.0,-1.912,0.0,0.0,0.0,0.0,0.0,0.0,0.0,0.0,-2.136,-2.2198,-2.3768,-2.5126,-2.6194,-2.6998,-2.863,-2.9638,-2.9751,-3.1098,-3.2071,-3.2006,-3.2092,-3.2358,-3.2815,-3.2838,-3.2859,-3.3105,-3.3526,-3.3927,-3.4122,-3.4036,-3.3752,-3.3289,-3.3557,-3.3745,-3.3322,-3.3845,-3.3984,-3.3607,-3.398,-3.4428,-3.4505,-3.4773,-3.4839,-3.3353,-3.2263,-3.0922,-2.8837,-2.71,-2.5624,-2.4169,-2.3457,-2.2703,-2.1852,-2.1538,-2.1068,-1.9913,-1.9529,-1.9539,-2.3885,-2.3353,-2.3642,-2.3785,-2.392,-2.3701,-2.374,-2.4119,-2.4174,-2.3853,-2.3194,-2.3036,-2.3728,-2.4884,-2.5187,-2.6081,-2.7272,-2.7272,-2.6806,-2.6009,-2.5927,-2.5451,-2.4695,-2.4581,-2.455,-2.455,-2.455,-2.455,-2.455,-2.455,-2.455,-2.455,-2.455,-2.455,-2.455,0.0,0.0,0.0,-2.455,-2.455,-2.455,-2.455,-2.4146,-2.335,-2.3556,0.0,-2.2428,-2.2582,-2.2645,-2.2438,-2.2122,0.0,0.0,0.0,0.0,0.0,0.0,0.0,0.0,0.0,0.0,0.0,-2.2698,-2.2849,-2.2749,-2.4732,-2.5975,-2.5954,-2.6999,-2.7826,-2.8298,-2.9484,-3.0366,-3.0732,-3.2189,-3.326,-3.3273,-3.3649,-3.4001,-3.4071,-3.4079,-3.4341,-3.5009,-3.5211,-3.5328,-3.5489,-3.5481,-3.5495,-3.5301,-3.5049,-3.4952,-3.4826,-3.5018,-3.4995,-3.4905,-3.4984,-3.5151,-3.523,-3.4758,-3.4245,-3.3339,-3.2566,-3.1334,-2.9451,-2.7829,-2.65,-2.5389,-2.4215,-2.3183,-2.2553,-2.2478,-2.2166,-2.1088,-2.0857,-2.0847,-2.3362,0.0,-2.3301,-2.3285,0.0,-2.3355,-2.3486,-2.3715,-2.4241,-2.4102,-2.3453,-2.3687,-2.4205,-2.4992,-2.5771,-2.6572,-2.7272,-2.7272,-2.7013,-2.6558,-2.633,-2.5989,-2.5533,-2.5088,-2.4892,-2.4881,-2.4643,-2.455,-2.455,-2.455,-2.455,-2.455,-2.455,-2.455,-2.455,-2.455,-2.455,-2.455,-2.455,-2.455,-2.455,-2.455,-2.4209,-2.3557,0.0,0.0,0.0,0.0,0.0,0.0,0.0,0.0,0.0,0.0,0.0,-2.2251,-2.2523,-2.256,-2.2347,-2.3326,-2.418,-2.4745,-2.5799,-2.5963,-2.487,-2.6565,-2.7754,-2.7826,-2.827,-2.8785,-2.9374,-3.0394,-3.1201,-3.1422,-3.2726,-3.3662,-3.3866,-3.4074,-3.4481,-3.495,-3.5032,-3.5345,-3.6201,-3.5991,-3.6039,-3.6386,-3.6237,-3.6198,-3.6505,-3.6359,-3.6271,-3.6693,-3.6474,-3.6237,-3.5942,-3.5863,-3.5725,-3.5457,-3.4824,-3.4027,-3.3367,-3.2577,-3.1529,-2.9969,-2.8562,-2.7447,-2.6637,-2.5373,-2.4249,-2.3813,-2.3588,-2.3252,-2.2531,-2.1852,-2.1318,-2.3106,-2.3106,-2.3106,-2.2923,-2.2845,-2.3074,-2.3332,-2.3514,0.0,0.0,0.0,-2.4436,-2.4862,-2.4992,-2.6466,-2.7167,-2.7262,-2.7272,-2.722,-2.7117,-2.6744,-2.6527,-2.6403,-2.5699,-2.5347,-2.5326,-2.4964,-2.4778,-2.4778,-2.4778,-2.4736,-2.4664,-2.4674,-2.4537,-2.4464,-2.455,-2.455,-2.455,-2.455,-2.455,-2.455,-2.455,-2.4333,-2.3888,-2.5367,-2.526,-2.34,-2.5444,-2.5759,-2.3908,-2.44,-2.4682,-2.4582,-2.4582,-2.4732,-2.5096,-2.5611,-2.5711,-2.531,-2.6189,-2.6804,-2.6879,-2.8147,-2.8348,-2.7037,-2.7821,-2.8661,-2.9252,-2.9152,-2.934,-3.0037,-3.1156,-3.1818,-3.183,-3.3129,-3.405,-3.4301,-3.4481,-3.495,-3.5736,-3.5787,-3.6036,-3.6747,-3.6406,-3.6205,-3.6823,-3.6531,-3.645,-3.7055,-3.7293,-3.7592,-3.8061,-3.7719,-3.7321,-3.6821,-3.6522,-3.6252,-3.5559,-3.4824,-3.4041,-3.3339,-3.2577,-3.1649,-3.0456,-2.9249,-2.8363,-2.7742,-2.651,-2.5511,-2.5096,-2.4714,-2.4397,-2.4084,-2.324,-2.2355,-2.3106,-2.3106,-2.3106,-2.317,-2.3339,-2.3422,-2.3415,-2.3499,-2.4072,-2.4068,-2.3745,-2.4226,-2.4627,-2.4992,-2.5887,-2.6678,-2.7262,-2.7272,-2.7044,0.0,-2.6589,-2.6361,-2.5978,-2.5844,-2.5792,-2.5782,-2.572,-2.5689,-2.5689,-2.5678,-2.5502,-2.5171,-2.514,-2.4933,-2.4581,-2.455,-2.455,-2.455,-2.455,-2.455,-2.455,-2.455,-2.4333,-2.3971,-2.5057,-2.5298,-2.4659,-2.6262,-2.7067,-2.6689,-2.7197,-2.7318,-2.6854,-2.6791,-2.6653,-2.6302,-2.6741,-2.7017,-2.6954,-2.7519,-2.8084,-2.8536,-2.88,-2.8887,-2.8834,-2.924,-2.9591,-2.9743,-2.9641,-2.9768,-3.0138,-3.1156,-3.1873,-3.2204,-3.3679,-3.4924,-3.5007,-3.5668,-3.6212,-3.6549,-3.6172,-3.6169,-3.6891,-3.6562,-3.627,-3.6487,-3.6446,-3.6477,-3.6709,-3.7575,-3.8162,-3.8377,-3.8332,-3.7988,-3.727,-3.6791,-3.6267,-3.5624,-3.4839,-3.4109,-3.3422,-3.2648,-3.1869,-3.1048,-2.9841,-2.9,-2.8662,-2.7264,-2.6372,-2.6101,-2.5768,-2.547,-2.5801,-2.5597,-2.5119,-2.3106,-2.3106,-2.3106,-2.3149,-2.3234,-2.3422,-2.3683,-2.3974,-2.4536,-2.4065,-2.317,-2.4059,-2.4601,-2.4808,-2.618,-2.6976,-2.7272,-2.7272,-2.7148,-2.6951,-2.6941,-2.6837,-2.661,-2.6372,-2.6248,-2.6237,-2.5989,-2.5885,-2.5885,-2.5885,-2.5771,-2.5575,-2.5347,-2.4995,-2.4571,-2.455,-2.455,-2.455,-2.455,-2.455,-2.455,-2.455,-2.4436,-2.424,-2.5621,-2.6142,-2.565,-2.7247,-2.8047,-2.7733,-2.7971,-2.7996,-2.7745,-2.772,-2.7607,-2.7381,-2.7595,-2.7733,-2.7733,-2.8247,-2.88,-2.934,-2.939,-2.939,-2.9542,-2.9705,-2.9779,-2.9779,-2.9779,-3.0011,-3.0495,-3.1293,-3.1954,-3.25,-3.3724,-3.4508,-3.473,-3.5209,-3.5745,-3.6333,-3.6268,-3.6389,-3.7193,-3.6733,-3.6413,-3.644,-3.6222,-3.5968,-3.5983,-3.6746,-3.7494,-3.7778,-3.7838,-3.7584,-3.703,-3.6686,-3.6222,-3.5624,-3.4824,-3.4245,-3.3768,-3.2932,-3.2087,-3.1636,-3.0537,-2.9689,-2.9542,-2.8486,-2.7753,-2.7369,-2.7091,-2.6992,-2.7028,-2.704,-2.6695,-2.3106,-2.3106,-2.3106,-2.3106,-2.3084,-2.3367,-2.3881,-2.4441,-2.4965,-2.4344,-2.3414,-2.4595,-2.4978,-2.4767,-2.6476,-2.727,-2.7272,-2.7262,-2.7262,-2.7272,-2.7272,-2.7272,-2.7231,-2.6879,-2.6724,-2.6693,-2.6351,-2.6196,-2.6185,-2.6196,-2.6134,-2.5989,-2.5502,-2.5047,-2.4705,-2.4592,-2.455,-2.455,-2.455,-2.455,-2.455,-2.455,-2.455,-2.4625,-2.6163,-2.6886,-2.6588,-2.8159,-2.8925,-2.8524,-2.8486,-2.8486,-2.8486,-2.8486,-2.8486,-2.8486,-2.8486,-2.8486,-2.8511,-2.8875,-2.9315,-2.9741,-2.9779,-2.9779,-2.9779,-2.9779,-2.9779,-2.9779,-2.9998,-3.0266,-3.0823,-3.157,-3.2203,-3.2847,-3.3711,-3.4348,-3.4533,-3.4906,-3.5435,-3.6257,-3.6368,-3.6491,-3.6886,-3.6656,-3.6267,-3.6148,-3.5818,-3.5519,-3.5564,-3.5968,-3.6447,-3.6836,-3.709,-3.7045,-3.6552,-3.6327,-3.6043,-3.5549,-3.5052,-3.461,-3.4177,-3.3269,-3.2563,-3.2321,-3.1401,-3.0724,-3.0416,-2.9669,-2.9013,-2.87,-2.8383,-2.8166,-2.8238,-2.8388,-2.8052,-2.3106,-2.3106,-2.3106,-2.3106,-2.3069,-2.3375,-2.3906,-2.4587,-2.449,-2.475,-2.5224,-2.6375,-2.5909,-2.4646,-2.6487,-2.7278,-2.7027,-2.7167,-2.7272,-2.7272,-2.7272,-2.7272,-2.7262,-2.721,-2.72,-2.7169,-2.7107,-2.7055,-2.7055,-2.7086,-2.69,-2.6444,-2.5658,-2.5233,-2.513,-2.4757,-2.455,-2.455,-2.455,-2.455,-2.455,-2.455,-2.455,-2.4529,-2.6163,-2.7046,-2.7128,-2.8718,-2.9691,-2.9654,-2.9591,-2.9616,-2.9616,-2.9628,-2.9616,-2.9603,-2.9603,-2.9641,-2.9616,-2.9679,-2.9716,-2.9779,-2.9779,-2.9779,-2.9779,-2.9779,-2.9779,-2.9934,-3.0419,-3.0745,-3.0996,-3.1995,-3.2813,-3.3063,-3.4048,-3.4966,-3.519,-3.6057,-3.6825,-3.702,-3.658,-3.65,-3.6507,-3.6043,-3.5654,-3.5684,-3.5609,-3.5489,-3.5504,-3.5594,-3.5699,-3.5848,-3.6163,-3.6507,-3.6372,-3.5953,-3.5669,-3.5519,-3.5424,-3.5052,-3.4543,-3.4177,-3.3891,-3.3115,-3.2451,-3.1834,-3.1509,-3.0891,-2.9998,-2.9779,-2.9441,-2.9192,-2.9642,-3.0099,-2.9832,-2.3106,-2.3106,-2.3106,-2.3106,-2.3084,-2.3207,-2.4122,-2.555,-2.5302,-2.5646,-2.652,-2.7403,-2.6921,-2.5589,-2.6873,-2.7452,-2.7268,-2.7301,-2.7272,-2.7272,-2.7272,-2.7167,-2.7081,-2.7262,-2.7262,-2.7081,-2.7262,-2.7272,-2.7272,-2.7272,-2.6889,-2.6237,-2.6041,-2.5896,-2.5606,-2.5181,-2.4943,-2.4943,-2.4674,-2.455,-2.454,-2.502,-2.5263,-2.5421,-2.6987,-2.7891,-2.8051,-2.9131,-2.9779,-2.9779,-2.9779,-2.9779,-2.9779,-2.9779,-2.9779,-2.9779,-2.9779,-2.9779,-2.9779,-2.9779,-2.9779,-2.9779,-2.9779,-2.9779,-2.9779,-2.9779,-2.9934,-3.0419,-3.0758,-3.1044,-3.1576,-3.2509,-3.3237,-3.379,-3.4495,-3.5001,-3.5071,-3.5663,-3.6097,-3.6149,-3.6007,-3.5908,-3.5878,-3.5669,-3.5504,-3.5489,-3.5489,-3.5489,-3.5489,-3.5489,-3.5489,-3.5534,-3.5759,-3.5878,-3.5893,-3.5714,-3.5519,-3.5489,-3.5489,-3.5279,-3.5052,-3.4528,-3.4163,-3.3891,-3.3199,-3.2563,-3.206,-3.1783,-3.1201,-3.0869,-3.055,-3.0343,-3.0583,-3.1035,-3.0742,-2.3106,-2.3106,-2.3106,-2.3106,-2.3106,-2.3472,-2.4798,-2.644,-2.6416,-2.6972,-2.7846,-2.8317,-2.7883,-2.7084,-2.7439,-2.7511,-2.7327,-2.7303,-2.7174,-2.7092,-2.7167,-2.7081,-2.69,-2.7177,-2.7167,-2.7081,-2.7167,-2.7272,-2.7272,-2.7272,-2.691,-2.6382,-2.6475,-2.6403,-2.6061,-2.5637,-2.5409,-2.5368,-2.4964,-2.4736,-2.4802,-2.5412,-2.5819,-2.5902,-2.7313,-2.8211,-2.8542,-2.93,-2.9779,-2.9779,-2.9779,-2.9779,-2.9779,-2.9779,-2.9779,-2.9779,-2.9779,-2.9779,-2.9779,-2.9779,-2.9779,-2.9779,-2.9779,-2.9779,-2.9779,-2.9779,-3.0139,-3.0745,-3.1119,-3.1563,-3.229,-3.3087,-3.3756,-3.4346,-3.4587,-3.4735,-3.4765,-3.5067,-3.5338,-3.5359,-3.5514,-3.5489,-3.5504,-3.5504,-3.5489,-3.5489,-3.5489,-3.5489,-3.5489,-3.5489,-3.5489,-3.5489,-3.5504,-3.5519,-3.5489,-3.5504,-3.5489,-3.5489,-3.5489,-3.5489,-3.5489,-3.4905,-3.4677,-3.4558,-3.3919,-3.3492,-3.3059,-3.2706,-3.2232,-3.1823,-3.1542,-3.1542,-3.1736,-3.1823,-3.169,-2.3106,-2.3106,-2.3106,-2.3106,-2.323,-2.4332,-2.5668,-2.6919,-2.775,-2.8651,-2.925,-2.9033,-2.8652,-2.8106,-2.7953,-2.7548,-2.6933,-2.7011,-2.6966,-2.6623,-2.6805,-2.69,-2.69,-2.7167,-2.7262,-2.7167,-2.7262,-2.7251,-2.7241,-2.7241,-2.7251,-2.7148,-2.6755,-2.6568,-2.6475,-2.6082,-2.5854,-2.5802,-2.542,-2.5202,-2.5228,-2.5583,-2.5852,-2.603,-2.6741,-2.773,-2.8542,-2.9378,-2.9779,-2.9779,-2.9779,-2.9779,-2.9779,-2.9779,-2.9779,-2.9779,-2.9779,-2.9779,-2.9779,-2.9779,-2.9779,-2.9779,-2.9779,-2.9779,-2.9779,-2.9779,-3.0139,-3.0895,-3.1563,-3.229,-3.3087,-3.3742,-3.4264,-3.4346,-3.4414,-3.4467,-3.4481,-3.4802,-3.4935,-3.5016,-3.5294,-3.5504,-3.5489,-3.5489,-3.5489,-3.5489,-3.5489,-3.5489,-3.5489,-3.5489,-3.5489,-3.5489,-3.5489,-3.5489,-3.5489,-3.5489,-3.5489,-3.5489,-3.5489,-3.5489,-3.5504,-3.5439,-3.5424,-3.5279,-3.4691,-3.4259,-3.4109,-3.3685,-3.3143,-3.2804,-3.2733,-3.2804,-3.2519,-3.2304,-3.2232,-2.3106,-2.3106,-2.3106,-2.3106,-2.3106,-2.3604,-2.5063,-2.6979,-2.7019,-2.8034,-2.9279,-2.9124,-2.8711,-2.8281,-2.8241,-2.7796,-2.7181,-2.7082,-2.6909,-2.6536,-2.6602,-2.6506,-2.64,-2.6688,-2.6784,-2.6794,-2.6976,-2.7012,-2.6827,-2.664,-2.664,-2.6796,-2.6662,-2.6703,-2.6879,-2.6548,-2.632,-2.6279,-2.5885,-2.5647,-2.5695,-2.6033,-2.6458,-2.7121,-2.7638,-2.8383,-2.9287,-2.9636,-2.9779,-2.9779,-2.9779,-2.9779,-2.9779,-2.9779,-2.9779,-2.9779,-2.9779,-2.9779,-2.9779,-2.9779,-2.9779,-2.9779,-2.9779,-2.9779,-2.9779,-2.9856,-3.0292,-3.1355,-3.1842,-3.2591,-3.3673,-3.4264,-3.4414,-3.4414,-3.4481,-3.4563,-3.4631,-3.4883,-3.5082,-3.5133,-3.5359,-3.5489,-3.5489,-3.5489,-3.5489,-3.5489,-3.5489,-3.5489,-3.5489,-3.5489,-3.5489,-3.5489,-3.5489,-3.5489,-3.5489,-3.5489,-3.5489,-3.5489,-3.5489,-3.5489,-3.5504,-3.5504,-3.5424,-3.5424,-3.5052,-3.4824,-3.4543,-3.3973,-3.3575,-3.3437,-3.3437,-3.3506,-3.3227,-3.3073,-3.3143,-2.3106,-2.3106,-2.3106,-2.3106,-2.3106,-2.3596,-2.4941,-2.6875,-2.7167,-2.8171,-2.9308,-2.9283,-2.8888,-2.832,-2.8301,-2.8015,-2.7515,-2.7171,-2.6844,-2.6436,-2.6373,-2.6294,-2.6197,-2.639,-2.6496,-2.6496,-2.6699,-2.6717,-2.6556,-2.6431,-2.6453,-2.6496,-2.6713,-2.6858,-2.6982,-2.6848,-2.6796,-2.6713,-2.6341,-2.6092,-2.6212,-2.6365,-2.6904,-2.7744,-2.8243,-2.8882,-2.9702,-2.9779,-2.9779,-2.9779,-2.9779,-2.9779,-2.9779,-2.9779,-2.9779,-2.9779,-2.9779,-2.9779,-2.9779,-2.9779,-2.9779,-2.9779,-2.9779,-2.9779,-2.9779,-2.9779,-3.0432,-3.1429,-3.2015,-3.2662,-3.3673,-3.4196,-3.4414,-3.4414,-3.4549,-3.4733,-3.4893,-3.5016,-3.5111,-3.5228,-3.5374,-3.5504,-3.5489,-3.5489,-3.5489,-3.5489,-3.5489,-3.5489,-3.5489,-3.5489,-3.5489,-3.5489,-3.5489,-3.5489,-3.5489,-3.5489,-3.5489,-3.5489,-3.5489,-3.5489,-3.5489,-3.5489,-3.5489,-3.5489,-3.5359,-3.5133,-3.4773,-3.4274,-3.4002,-3.3865,-3.4138,-3.4356,-3.4138,-3.3919,-3.3919,-2.3106,-2.3106,-2.3106,-2.3106,-2.323,-2.4216,-2.5676,-2.7013,-2.814,-2.8858,-2.9478,-2.9508,-2.9125,-2.8389,-2.8301,-2.8057,-2.7751,-2.727,-2.682,-2.6418,-2.6201,-2.611,-2.61,-2.6304,-2.64,-2.6496,-2.6496,-2.6486,-2.6532,-2.6662,-2.6574,-2.6349,-2.6867,-2.6931,-2.6599,-2.6982,-2.722,-2.7127,-2.6765,-2.6671,-2.6649,-2.67,-2.7186,-2.792,-2.8395,-2.901,-2.9792,-2.9779,-2.9779,-2.9779,-2.9779,-2.9779,-2.9779,-2.9779,-2.9779,-2.9779,-2.9779,-2.9779,-2.9779,-2.9779,-2.9779,-2.9779,-2.9779,-2.9779,-2.9779,-2.9779,-3.0139,-3.0983,-3.1709,-3.2434,-3.3227,-3.3962,-3.4414,-3.4414,-3.4414,-3.4646,-3.5034,-3.4981,-3.4831,-3.5162,-3.5359,-3.5489,-3.5489,-3.5489,-3.5489,-3.5489,-3.5489,-3.5489,-3.5489,-3.5489,-3.5489,-3.5489,-3.5489,-3.5489,-3.5489,-3.5489,-3.5489,-3.5489,-3.5489,-3.5489,-3.5489,-3.5489,-3.5489,-3.5489,-3.5489,-3.5279,-3.5279,-3.4854,-3.4986,-3.4935,-3.5133,-3.5067,-3.492,-3.4706,-3.4691,-2.3106,-2.3106,-2.3106,-2.3106,-2.3106,-2.3604,-2.4941,-2.6875,-2.7392,-2.8372,-2.9468,-2.959,-2.9162,-2.8466,-2.8291,-2.8223,-2.8037,-2.7363,-2.6787,-2.6377,-2.6035,-2.582,-2.582,-2.5927,-2.6014,-2.6207,-2.6197,-2.6304,-2.6446,-2.63,-2.6151,-2.6278,-2.663,-2.6713,-2.6589,-2.7024,-2.7272,-2.7241,-2.7117,-2.7411,-2.7989,-2.8299,-2.8683,-2.9272,-2.9711,-2.9932,-2.9817,-2.9779,-2.9779,-2.9779,-2.9779,-2.9779,-2.9779,-2.9779,-2.9779,-2.9779,-2.9779,-2.9779,-2.9779,-2.9779,-2.9779,-2.9779,-2.9779,-2.9779,-2.9779,-2.9779,-3.0126,-3.0833,-3.1636,-3.2349,-3.3157,-3.3894,-3.4346,-3.4414,-3.4414,-3.4472,-3.4758,-3.4844,-3.4964,-3.5162,-3.5359,-3.5489,-3.5489,-3.5489,-3.5489,-3.5489,-3.5489,-3.5489,-3.5489,-3.5489,-3.5489,-3.5489,-3.5489,-3.5489,-3.5489,-3.5489,-3.5489,-3.5489,-3.5489,-3.5489,-3.5489,-3.5489,-3.5489,-3.5489,-3.5489,-3.5489,-3.5489,-3.5489,-3.5489,-3.5489,-3.5359,-3.5359,-3.5424,-3.5344,-3.5184,-2.3106,-2.3106,-2.3106,-2.3106,-2.3084,-2.2988,-2.4377,-2.655,-2.6652,-2.7633,-2.9124,-2.9331,-2.9003,-2.8427,-2.8301,-2.8301,-2.8223,-2.7568,-2.7021,-2.6572,-2.5977,-2.5742,-2.5732,-2.5732,-2.5732,-2.5907,-2.5907,-2.6014,-2.6197,-2.6119,-2.6007,-2.5837,-2.63,-2.6475,-2.6382,-2.6755,-2.7003,-2.7108,-2.7526,-2.7808,-2.8109,-2.9035,-2.9484,-2.9557,-2.9947,-3.0077,-2.9804,-2.9779,-2.9779,-2.9779,-2.9779,-2.9779,-2.9779,-2.9779,-2.9779,-2.9779,-2.9779,-2.9779,-2.9779,-2.9779,-2.9779,-2.9779,-2.9779,-2.9779,-2.9779,-2.9779,-3.0075,-3.0482,-3.1502,-3.229,-3.2804,-3.3825,-3.4346,-3.4414,-3.4414,-3.4414,-3.4428,-3.4955,-3.5141,-3.52,-3.5294,-3.5424,-3.5489,-3.5489,-3.5489,-3.5489,-3.5489,-3.5489,-3.5489,-3.5489,-3.5489,-3.5489,-3.5489,-3.5489,-3.5489,-3.5489,-3.5489,-3.5489,-3.5489,-3.5489,-3.5489,-3.5489,-3.5489,-3.5489,-3.5489,-3.5489,-3.5489,-3.5489,-3.5489,-3.5489,-3.5489,-3.5489,-3.5489,-3.5489,-3.5344,-2.3106,-2.3106,-2.3106,-2.3084,-2.3025,-2.2769,-2.4065,-2.6075,-2.615,-2.7124,-2.8694,-2.8937,-2.872,-2.8427,-2.8301,-2.8301,-2.8213,-2.7832,-2.7363,-2.6846,-2.6221,-2.581,-2.5742,-2.5732,-2.5732,-2.5732,-2.5732,-2.5732,-2.583,-2.6157,-2.6044,-2.5329,-2.6156,-2.6341,-2.6123,-2.6361,-2.6713,-2.7054,-2.8,-2.7957,-2.7253,-2.8866,-2.9677,-2.8881,-2.9541,-2.9917,-2.9804,-2.9779,-2.9779,-2.9779,-2.9779,-2.9779,-2.9779,-2.9779,-2.9779,-2.9779,-2.9779,-2.9779,-2.9779,-2.9779,-2.9779,-2.9779,-2.9779,-2.9779,-2.9779,-2.9792,-2.9792,-2.9998,-3.122,-3.216,-3.2448,-3.3534,-3.4264,-3.4414,-3.4414,-3.4414,-3.4457,-3.5219,-3.531,-3.5119,-3.5213,-3.5489,-3.5489,-3.5489,-3.5489,-3.5489,-3.5489,-3.5489,-3.5489,-3.5489,-3.5489,-3.5489,-3.5489,-3.5489,-3.5489,-3.5489,-3.5489,-3.5489,-3.5489,-3.5489,-3.5489,-3.5489,-3.5489,-3.5489,-3.5489,-3.5489,-3.5489,-3.5489,-3.5489,-3.5489,-3.5489,-3.5489,-3.5489,-3.5489,-3.5489,-2.3106,-2.3106,-2.3106,-2.2967,-2.2754,-2.2652,-2.3894,-2.592,-2.5971,-2.6954,-2.8588,-2.8907,-2.8603,-2.8301,-2.8301,-2.8301,-2.8193,-2.7871,-2.7432,-2.6982,-2.6484,-2.6035,-2.5791,-2.5732,-2.5732,-2.5732,-2.5732,-2.5732,-2.5732,-2.6207,-2.6023,-2.5209,-2.6023,-2.633,-2.602,-2.632,-2.6917,-2.7468,-2.7839,-2.8489,-2.9017,-2.9518,-3.0024,-3.0138,-3.0269,-3.0168,-2.9842,-2.9779,-2.9779,-2.9779,-2.9779,-2.9779,-2.9779,-2.9779,-2.9779,-2.9779,-2.9779,-2.9779,-2.9779,-2.9779,-2.9779,-2.9779,-2.9779,-2.9779,-2.9779,-2.9779,-2.9779,-3.0075,-3.1158,-3.2087,-3.2376,-3.3465,-3.4264,-3.4414,-3.4414,-3.4414,-3.4443,-3.4747,-3.4978,-3.4964,-3.5133,-3.5359,-3.5439,-3.5489,-3.5489,-3.5489,-3.5489,-3.5489,-3.5489,-3.5489,-3.5489,-3.5489,-3.5489,-3.5489,-3.5489,-3.5489,-3.5489,-3.5489,-3.5489,-3.5489,-3.5489,-3.5489,-3.5489,-3.5489,-3.5489,-3.5489,-3.5489,-3.5489,-3.5489,-3.5489,-3.5489,-3.5489,-3.5489,-3.5489,-3.5489,-2.3025,-2.2908,-2.2908,-2.2725,-2.2432,-2.2293,-2.3284,-2.4705,-2.5349,-2.6305,-2.7744,-2.8467,-2.8564,-2.8301,-2.8301,-2.8301,-2.8252,-2.8047,-2.7598,-2.6963,-2.6377,-2.5977,-2.5771,-2.5732,-2.5732,-2.5732,-2.5732,-2.5732,-2.5917,-2.6207,-2.5899,-2.536,-2.5788,-2.5961,-2.5836,-2.5927,-2.6557,-2.7475,-2.7944,-2.8589,-2.908,-2.9891,-3.0004,-3.0078,-3.0157,-3.008,-2.9817,-2.9779,-2.9779,-2.9779,-2.9779,-2.9779,-2.9779,-2.9779,-2.9779,-2.9779,-2.9779,-2.9779,-2.9779,-2.9779,-2.9779,-2.9779,-2.9779,-2.9779,-2.9779,-2.9779,-2.9779,-2.9934,-3.122,-3.1942,-3.2376,-3.3465,-3.4264,-3.4414,-3.4414,-3.4414,-3.4414,-3.4563,-3.4765,-3.4883,-3.5082,-3.5294,-3.5504,-3.5504,-3.5489,-3.5489,-3.5489,-3.5489,-3.5489,-3.5489,-3.5489,-3.5489,-3.5489,-3.5489,-3.5489,-3.5489,-3.5489,-3.5489,-3.5489,-3.5489,-3.5554,-3.5554,-3.5489,-3.5489,-3.5489,-3.5489,-3.5489,-3.5489,-3.5489,-3.5489,-3.5489,-3.5489,-3.5489,-3.5489,-3.5489,-2.2871,-2.2579,-2.2579,-2.2403,-2.2111,-2.1832,-2.2511,-2.351,-2.4207,-2.5273,-2.6654,-2.7609,-2.8145,-2.8291,-2.8301,-2.8301,-2.8301,-2.8252,-2.7725,-2.6992,-2.625,-2.5752,-2.5752,-2.5732,-2.5732,-2.5732,-2.5732,-2.582,-2.5917,-2.61,-2.5769,-2.5378,-2.5452,-2.5473,-2.5482,-2.5365,-2.5904,-2.7053,-2.7981,-2.8322,-2.8515,-2.9521,-2.9967,-2.9548,-2.9742,-2.988,-2.9804,-2.9779,-2.9779,-2.9779,-2.9779,-2.9779,-2.9779,-2.9779,-2.9779,-2.9779,-2.9779,-2.9779,-2.9779,-2.9779,-2.9779,-2.9779,-2.9779,-2.9779,-2.9779,-2.9779,-2.9779,-2.9779,-3.1158,-3.1869,-3.2506,-3.3618,-3.4264,-3.4414,-3.4414,-3.4414,-3.4414,-3.4563,-3.4765,-3.4883,-3.5067,-3.5279,-3.5424,-3.5489,-3.5489,-3.5489,-3.5489,-3.5489,-3.5489,-3.5489,-3.5489,-3.5489,-3.5489,-3.5489,-3.5489,-3.5489,-3.5489,-3.5489,-3.5489,-3.5554,-3.5733,-3.5668,-3.5554,-3.5489,-3.5489,-3.5489,-3.5489,-3.5489,-3.5489,-3.5489,-3.5489,-3.5489,-3.5489,-3.5489,-3.5489,-2.2542,-2.2279,-2.2279,-2.2096,-2.1818,-2.1723,-2.2228,-2.3109,-2.331,-2.4572,-2.6182,-2.6756,-2.7456,-2.8291,-2.8301,-2.8301,-2.8281,-2.8213,-2.7822,-2.6982,-2.6133,-2.5771,-2.5732,-2.5732,-2.5732,-2.5732,-2.5732,-2.5732,-2.583,-2.5964,-2.5833,-2.5431,-2.5227,-2.528,-2.5209,-2.5084,-2.5409,-2.6444,-2.7487,-2.8161,-2.8545,-2.9352,-2.9927,-2.9576,-2.9699,-2.9804,-2.9779,-2.9779,-2.9779,-2.9779,-2.9779,-2.9779,-2.9779,-2.9779,-2.9779,-2.9779,-2.9779,-2.9779,-2.9779,-2.9779,-2.9779,-2.9779,-2.9779,-2.9779,-2.9779,-2.9779,-2.9779,-2.9921,-3.0633,-3.1709,-3.2791,-3.3811,-3.4264,-3.4414,-3.4414,-3.4414,-3.4414,-3.4563,-3.4765,-3.4868,-3.5067,-3.5294,-3.5439,-3.5489,-3.5489,-3.5489,-3.5489,-3.5489,-3.5489,-3.5489,-3.5489,-3.5489,-3.5489,-3.5489,-3.5489,-3.5489,-3.5489,-3.5489,-3.5489,-3.5668,-3.5846,-3.5846,-3.5733,-3.5619,-3.5489,-3.5489,-3.5489,-3.5489,-3.5489,-3.5489,-3.5489,-3.5489,-3.5489,-3.5489,-3.5604,-2.2235,-2.1964,-2.1957,-2.1767,-2.1496,-2.1467,-2.1702,-2.2268,-2.2764,-2.3965,-2.5498,-2.6252,-2.7176,-2.8291,-2.8301,-2.8301,-2.8174,-2.7842,-2.7344,-2.667,-2.6035,-2.5752,-2.5732,-2.5732,-2.5732,-2.5732,-2.5732,-2.5732,-2.5917,-2.5877,-2.5786,-2.5446,-2.5103,-2.5005,-2.4957,-2.4743,-2.5462,-2.6645,-2.7239,-2.7988,-2.901,-2.9534,-2.9779,-2.9779,-2.9779,-2.9779,-2.9779,-2.9779,-2.9779,-2.9779,-2.9779,-2.9779,-2.9779,-2.9779,-2.9779,-2.9779,-2.9779,-2.9779,-2.9779,-2.9779,-2.9779,-2.9779,-2.9779,-2.9779,-2.9779,-2.9779,-2.9779,-2.9921,-3.0558,-3.1549,-3.3003,-3.3879,-3.4332,-3.4414,-3.4414,-3.4414,-3.4414,-3.4563,-3.4765,-3.4883,-3.5067,-3.5294,-3.5439,-3.5504,-3.5489,-3.5489,-3.5489,-3.5489,-3.5489,-3.5489,-3.5489,-3.5489,-3.5489,-3.5489,-3.5489,-3.5489,-3.5489,-3.5489,-3.5489,-3.5782,-3.6133,-3.6085,-3.5958,-3.5846,-3.5797,-3.5489,-3.5489,-3.5489,-3.5489,-3.5474,-3.5474,-3.5489,-3.54,-3.5284,-3.5586,-2.1913,-2.1628,-2.162,-2.1467,-2.1233,-2.1218,-2.1218,-2.1462,-2.249,-2.3674,-2.482,-2.5928,-2.7166,-2.8145,-2.8301,-2.8271,-2.7988,-2.7451,-2.6875,-2.6435,-2.5977,-2.5762,-2.5732,-2.5732,-2.5732,-2.5732,-2.5732,-2.582,-2.5917,-2.581,-2.5673,-2.5441,-2.4927,-2.4822,-2.4705,-2.4442,-2.4888,-2.6289,-2.699,-2.7464,-2.8803,-2.9287,-2.9779,-2.9779,-2.9779,-2.9779,-2.9779,-2.9779,-2.9779,-2.9779,-2.9779,-2.9779,-2.9779,-2.9779,-2.9779,-2.9779,-2.9779,-2.9779,-2.9779,-2.9779,-2.9779,-2.9779,-2.9779,-2.9779,-2.9779,-2.9779,-2.9779,-2.9998,-3.057,-3.1489,-3.2861,-3.3673,-3.4113,-3.4346,-3.4414,-3.4414,-3.4414,-3.4563,-3.475,-3.4883,-3.5067,-3.5294,-3.5374,-3.5439,-3.5504,-3.5489,-3.5489,-3.5489,-3.5489,-3.5489,-3.5489,-3.5489,-3.5489,-3.5489,-3.5489,-3.5489,-3.5489,-3.5489,-3.5489,-3.5846,-3.6258,-3.6258,-3.6196,-3.6196,-3.6085,-3.5846,-3.5554,-3.5489,-3.5489,-3.5474,-3.5559,-3.5593,-3.5383,-3.5112,-3.5657,-2.1584,-2.1291,-2.1284,-2.1254,-2.1211,-2.1211,-2.1211,-2.1425,-2.2523,-2.3623,-2.4803,-2.5919,-2.7166,-2.8019,-2.8301,-2.8105,-2.7715,-2.7207,-2.6768,-2.6338,-2.5937,-2.5732,-2.5732,-2.5732,-2.5732,-2.5732,-2.5703,-2.5684,-2.5732,-2.5723,-2.5664,-2.5545,-2.4898,-2.4618,-2.4564,-2.4245,-2.4217,-2.536,-2.6313,-2.6987,-2.7476,-2.8791,-2.9624,-2.9624,-2.9624,-2.9714,-2.9714,-2.9792,-2.9779,-2.9779,-2.9779,-2.9779,-2.9779,-2.9779,-2.9779,-2.9779,-2.9779,-2.9779,-2.9779,-2.9779,-2.9779,-2.9779,-2.9779,-2.9779,-2.9779,-2.9779,-2.9779,-2.9998,-3.0495,-3.1341,-3.2146,-3.2946,-3.3673,-3.4113,-3.4264,-3.4264,-3.4346,-3.4549,-3.4683,-3.475,-3.4949,-3.5228,-3.5294,-3.5439,-3.5504,-3.5489,-3.5489,-3.5489,-3.5489,-3.5489,-3.5489,-3.5489,-3.5489,-3.5489,-3.5489,-3.5489,-3.5489,-3.5489,-3.5554,-3.5797,-3.6148,-3.6321,-3.6383,-3.6492,-3.643,-3.6196,-3.5958,-3.5733,-3.5695,-3.5873,-3.5793,-3.5679,-3.5782,-3.5907,-3.6352,-2.135,-2.1211,-2.1211,-2.1211,-2.1211,-2.1211,-2.1539,-2.2191,-2.279,-2.4011,-2.5428,-2.627,-2.7166,-2.8019,-2.8301,-2.7959,-2.7393,-2.7148,-2.665,-2.6123,-2.584,-2.5732,-2.5732,-2.5732,-2.5732,-2.5664,-2.5537,-2.5547,-2.5713,-2.5732,-2.5723,-2.5518,-2.4853,-2.4516,-2.4604,-2.4117,-2.4237,-2.4925,-2.583,-2.673,-2.7151,-2.8973,-2.93,-2.8803,-2.9287,-2.9546,-2.93,-2.9624,-2.9779,-2.9779,-2.9779,-2.9779,-2.9779,-2.9779,-2.9779,-2.9779,-2.9779,-2.9779,-2.9779,-2.9779,-2.9779,-2.9779,-2.9779,-2.9779,-2.9779,-2.9779,-2.9779,-2.9921,-3.0419,-3.1044,-3.1476,-3.2218,-3.2733,-3.3171,-3.352,-3.3811,-3.3894,-3.4264,-3.4481,-3.4631,-3.4964,-3.5162,-3.5228,-3.5359,-3.5424,-3.5489,-3.5489,-3.5489,-3.5489,-3.5489,-3.5489,-3.5489,-3.5489,-3.5489,-3.5489,-3.5489,-3.5489,-3.5489,-3.5554,-3.5797,-3.6148,-3.643,-3.6723,-3.7011,-3.6829,-3.6707,-3.6707,-3.6646,-3.6459,-3.6333,-3.6428,-3.6521,-3.6651,-3.6857,-3.7069,-2.1211,-2.1211,-2.1211,-2.1211,-2.1211,-2.1211,-2.1873,-2.2862,-2.3255,-2.4582,-2.6381,-2.6775,-2.7447,-2.8145,-2.8193,-2.7851,-2.706,-2.7021,-2.6543,-2.5908,-2.5752,-2.5732,-2.5732,-2.5723,-2.5674,-2.5469,-2.5303,-2.5303,-2.5625,-2.5596,-2.5625,-2.5469,-2.4863,-2.4608,-2.4715,-2.4195,-2.4633,-2.5084,-2.5746,-2.673,-2.8211,-2.8882,-2.8882,-2.781,-2.9052,-2.9468,-2.9131,-2.9456,-2.9779,-2.9779,-2.9779,-2.9779,-2.9779,-2.9779,-2.9779,-2.9779,-2.9779,-2.9779,-2.9779,-2.9779,-2.9779,-2.9779,-2.9779,-2.9779,-2.9779,-2.9779,-2.9779,-2.9934,-3.0203,-3.0758,-3.1044,-3.1489,-3.1928,-3.2376,-3.2875,-3.3297,-3.3506,-3.3879,-3.4346,-3.4616,-3.4898,-3.503,-3.5096,-3.5359,-3.5489,-3.5489,-3.5489,-3.5489,-3.5489,-3.5489,-3.5489,-3.5489,-3.5489,-3.5489,-3.5489,-3.5489,-3.5489,-3.5489,-3.5504,-3.5683,-3.6148,-3.6538,-3.6845,-3.7011,-3.7531,-3.7472,-3.7531,-3.735,-3.7069,-3.6932,-3.7133,-3.716,-3.6966,-3.6998,-3.7206,-2.1211,-2.1211,-2.1211,-2.1211,-2.1211,-2.1211,-2.1873,-2.3087,-2.4053,-2.5168,-2.6744,-2.7599,-2.8028,-2.8291,-2.8301,-2.7803,-2.7236,-2.6963,-2.6553,-2.583,-2.5732,-2.5732,-2.5732,-2.5732,-2.5508,-2.5273,-2.5098,-2.5332,-2.5449,-2.5264,-2.5342,-2.5381,-2.5002,-2.4772,-2.4796,-2.4263,-2.4303,-2.469,-2.5421,-2.6637,-2.7959,-2.7799,-2.8223,-2.8882,-2.9378,-2.9456,-2.9209,-2.9456,-2.9702,-2.9779,-2.9779,-2.9779,-2.9779,-2.9779,-2.9779,-2.9779,-2.9779,-2.9779,-2.9779,-2.9779,-2.9779,-2.9779,-2.9779,-2.9779,-2.9779,-2.9779,-2.9779,-2.9779,-2.9921,-3.0203,-3.062,-3.097,-3.1415,-3.1915,-3.2434,-3.2861,-3.3227,-3.3575,-3.4031,-3.4481,-3.4765,-3.4883,-3.4949,-3.5228,-3.5489,-3.5489,-3.5489,-3.5489,-3.5489,-3.5489,-3.5489,-3.5489,-3.5489,-3.5489,-3.5489,-3.5489,-3.5489,-3.5489,-3.5504,-3.5569,-3.591,-3.6321,-3.6492,-3.6784,-3.7413,-3.7879,-3.7764,-3.7536,-3.7403,-3.747,-3.7705,-3.7394,-3.7058,-3.7179,-3.7562,-2.1211,-2.1211,-2.1211,-2.1211,-2.1211,-2.1211,-2.2312,-2.3847,-2.4497,-2.5735,-2.7295,-2.796,-2.8301,-2.8301,-2.8301,-2.7822,-2.7158,-2.7002,-2.6543,-2.5889,-2.5732,-2.5732,-2.5732,-2.5703,-2.5498,-2.5088,-2.4844,-2.4717,-2.4883,-2.4844,-2.4834,-2.4873,-2.4516,-2.4315,-2.4516,-2.4085,-2.4084,-2.4519,-2.5263,-2.6152,-2.6812,-2.7058,-2.7232,-2.7557,-2.8051,-2.8303,-2.8462,-2.8882,-2.93,-2.9624,-2.9779,-2.9779,-2.9779,-2.9779,-2.9779,-2.9779,-2.9779,-2.9779,-2.9779,-2.9779,-2.9779,-2.9779,-2.9779,-2.9779,-2.9779,-2.9779,-2.9779,-2.9779,-2.9779,-2.9998,-3.0203,-3.0279,-3.0419,-3.0934,-3.1709,-3.229,-3.272,-3.3297,-3.3742,-3.4182,-3.4563,-3.4683,-3.4817,-3.5096,-3.5359,-3.5439,-3.5504,-3.5489,-3.5489,-3.5489,-3.5489,-3.5489,-3.5489,-3.5489,-3.5489,-3.5489,-3.5474,-3.5474,-3.5489,-3.5554,-3.5683,-3.591,-3.6148,-3.6554,-3.7131,-3.7472,-3.7706,-3.806,-3.8244,-3.8241,-3.8166,-3.7945,-3.7812,-3.8173,-3.8504,-2.1211,-2.1211,-2.1211,-2.1211,-2.1211,-2.1211,-2.2312,-2.4172,-2.4616,-2.5845,-2.7511,-2.8077,-2.8301,-2.8252,-2.8135,-2.7695,-2.7031,-2.6914,-2.6416,-2.5947,-2.5732,-2.5732,-2.5732,-2.5703,-2.543,-2.4912,-2.4619,-2.4346,-2.4121,-2.4111,-2.416,-2.4365,-2.4183,-2.4028,-2.4039,-2.3927,-2.3937,-2.4368,-2.502,-2.5589,-2.5997,-2.6483,-2.6483,-2.6565,-2.673,-2.7058,-2.7232,-2.8051,-2.8961,-2.9287,-2.9702,-2.9792,-2.9779,-2.9779,-2.9779,-2.9779,-2.9779,-2.9779,-2.9779,-2.9779,-2.9779,-2.9779,-2.9779,-2.9779,-2.9779,-2.9779,-2.9779,-2.9779,-2.9779,-2.9779,-2.9779,-2.9856,-2.9921,-3.0203,-3.0633,-3.1281,-3.2001,-3.2791,-3.3589,-3.4182,-3.4481,-3.4631,-3.4765,-3.4964,-3.5162,-3.5374,-3.5439,-3.5489,-3.5489,-3.5489,-3.5459,-3.5444,-3.5175,-3.5235,-3.5415,-3.5415,-3.5429,-3.5415,-3.5429,-3.5489,-3.5619,-3.5748,-3.591,-3.6383,-3.6784,-3.7011,-3.7175,-3.8181,-3.9061,-3.8826,-3.8607,-3.8681,-3.8775,-3.9056,-3.9172,-2.1211,-2.1211,-2.1211,-2.1211,-2.1211,-2.1211,-2.1987,-2.3303,-2.4283,-2.5507,-2.707,-2.7736,-2.8291,-2.8184,-2.7881,-2.749,-2.6973,-2.6611,-2.6191,-2.5879,-2.5732,-2.5732,-2.5732,-2.5625,-2.5322,-2.4639,-2.4414,-2.4004,-2.3467,-2.3457,-2.3799,-2.4238,-2.3928,-2.4048,-2.4078,-2.4042,-2.412,-2.4368,-2.47,-2.5189,-2.5589,-2.5997,-2.6152,-2.6741,-2.6987,-2.7069,-2.7151,-2.7891,-2.8542,-2.8791,-2.9456,-2.9792,-2.9779,-2.9779,-2.9779,-2.9779,-2.9779,-2.9779,-2.9779,-2.9779,-2.9779,-2.9779,-2.9779,-2.9779,-2.9779,-2.9779,-2.9779,-2.9779,-2.9779,-2.9779,-2.9779,-2.9779,-2.9779,-2.9921,-3.0343,-3.1071,-3.1856,-3.2563,-3.3367,-3.4113,-3.4481,-3.4563,-3.4698,-3.4883,-3.5096,-3.5294,-3.5439,-3.5489,-3.5489,-3.5489,-3.5429,-3.528,-3.4846,-3.4861,-3.522,-3.5175,-3.4846,-3.5011,-3.519,-3.5355,-3.5489,-3.5683,-3.5797,-3.5846,-3.6196,-3.643,-3.6768,-3.7706,-3.8502,-3.8912,-3.9007,-3.8957,-3.8841,-3.8874,-3.9056,-2.1211,-2.1211,-2.1211,-2.1211,-2.1211,-2.1211,-2.1873,-2.3087,-2.4181,-2.5836,-2.7618,-2.8057,-2.8154,-2.791,-2.7744,-2.7266,-2.6689,-2.6494,-2.6113,-2.5859,-2.5732,-2.5732,-2.5732,-2.5596,-2.5283,-2.459,-2.4375,-2.3975,-2.3252,-2.3144,-2.3252,-2.3486,-2.3585,-2.3595,-2.374,-2.4048,-2.4227,-2.4368,-2.454,-2.4946,-2.5505,-2.5263,-2.5432,-2.6246,-2.5684,-2.5841,-2.6318,-2.7139,-2.781,-2.8554,-2.9378,-2.9702,-2.9779,-2.9779,-2.9779,-2.9779,-2.9779,-2.9779,-2.9779,-2.9779,-2.9779,-2.9779,-2.9779,-2.9779,-2.9779,-2.9779,-2.9779,-2.9779,-2.9779,-2.9779,-2.9779,-2.9779,-2.9779,-2.9856,-3.0216,-3.0934,-3.1709,-3.2434,-3.3227,-3.4113,-3.4346,-3.4481,-3.4683,-3.4817,-3.5016,-3.5162,-3.5359,-3.5474,-3.54,-3.531,-3.5175,-3.4876,-3.4397,-3.4277,-3.4607,-3.4427,-3.4173,-3.4562,-3.4951,-3.51,-3.528,-3.5489,-3.5619,-3.5619,-3.5797,-3.6196,-3.6662,-3.7294,-3.7962,-3.8619,-3.8983,-3.9056,-3.8924,-3.8808,-3.899,-2.1211,-2.1211,-2.1211,-2.1211,-2.1211,-2.1211,-2.1653,-2.2644,-2.4069,-2.5973,-2.8115,-2.8086,-2.7871,-2.7549,-2.7285,-2.7021,-2.6484,-2.624,-2.6006,-2.583,-2.5732,-2.5732,-2.5693,-2.5488,-2.5107,-2.4531,-2.4209,-2.3799,-2.3174,-2.3144,-2.3193,-2.3203,-2.3144,-2.3261,-2.3436,-2.3851,-2.412,-2.4282,-2.4454,-2.47,-2.5263,-2.4946,-2.47,-2.5348,-2.4861,-2.5189,-2.5913,-2.6812,-2.7637,-2.8462,-2.9209,-2.9702,-2.9779,-2.9779,-2.9779,-2.9779,-2.9779,-2.9779,-2.9779,-2.9779,-2.9779,-2.9779,-2.9779,-2.9779,-2.9779,-2.9779,-2.9779,-2.9779,-2.9779,-2.9779,-2.9779,-2.9779,-2.9779,-2.9856,-2.9869,-3.0432,-3.1516,-3.2362,-3.3241,-3.4113,-3.4264,-3.4452,-3.4359,-3.453,-3.4765,-3.505,-3.5359,-3.5325,-3.4996,-3.4876,-3.4726,-3.4337,-3.3844,-3.3829,-3.3873,-3.3634,-3.3574,-3.4397,-3.4711,-3.4786,-3.4966,-3.5205,-3.5444,-3.5554,-3.5733,-3.6085,-3.6616,-3.7191,-3.7879,-3.8518,-3.8832,-3.9139,-3.9139,-3.9056,-3.9123,-2.1203,-2.1211,-2.1211,-2.1211,-2.1211,-2.1211,-2.1318,-2.1752,-2.3694,-2.573,-2.7429,-2.76,-2.7441,-2.7041,-2.6738,-2.6484,-2.6279,-2.5957,-2.5771,-2.5752,-2.5732,-2.5732,-2.5547,-2.5293,-2.4902,-2.4424,-2.4062,-2.3652,-2.3144,-2.3144,-2.3144,-2.3144,-2.3144,-2.3144,-2.3144,-2.358,-2.4013,-2.4454,-2.4454,-2.4625,-2.4625,-2.455,-2.4615,-2.4615,-2.4625,-2.4946,-2.5746,-2.6659,-2.7557,-2.8462,-2.93,-2.9714,-2.9779,-2.9779,-2.9779,-2.9779,-2.9779,-2.9779,-2.9779,-2.9779,-2.9779,-2.9779,-2.9779,-2.9779,-2.9779,-2.9779,-2.9779,-2.9779,-2.9779,-2.9779,-2.9779,-2.9779,-2.9779,-2.9779,-2.9792,-3.0292,-3.1442,-3.2146,-3.3017,-3.3801,-3.4119,-3.4341,-3.4176,-3.4149,-3.4499,-3.4877,-3.532,-3.519,-3.4637,-3.4397,-3.4218,-3.3769,-3.329,-3.335,-3.3305,-3.2931,-3.3036,-3.3933,-3.4472,-3.4547,-3.4666,-3.4891,-3.513,-3.5385,-3.5646,-3.592,-3.6461,-3.7027,-3.7953,-3.8827,-3.9023,-3.9255,-3.9272,-3.9288,-3.9288,-2.1013,-2.1211,-2.1211,-2.1211,-2.1211,-2.1211,-2.1211,-2.1608,-2.3394,-2.5164,-2.6424,-2.6958,-2.7002,-2.6641,-2.6455,-2.623,-2.5957,-2.5889,-2.5732,-2.5732,-2.5703,-2.5518,-2.5312,-2.5059,-2.4658,-2.4141,-2.3779,-2.3535,-2.3144,-2.3144,-2.3144,-2.3144,-2.3144,-2.3232,-2.3503,-2.3851,-2.4368,-2.4368,-2.4368,-2.455,-2.455,-2.455,-2.455,-2.455,-2.454,-2.5031,-2.5913,-2.6741,-2.7637,-2.8542,-2.9378,-2.9792,-2.9792,-2.9792,-2.9792,-2.9779,-2.9779,-2.9779,-2.9779,-2.9779,-2.9779,-2.9779,-2.9779,-2.9779,-2.9779,-2.9779,-2.9779,-2.9779,-2.9779,-2.9779,-2.9779,-2.9779,-2.9779,-2.9779,-3.0011,-3.0659,-3.1516,-3.1928,-3.2579,-3.3311,-3.3775,-3.3594,-3.3427,-3.3425,-3.3716,-3.3739,-3.4044,-3.42,-3.3858,-3.3739,-3.3604,-3.314,-3.2781,-3.2856,-3.2781,-3.2512,-3.2841,-3.3769,-3.4173,-3.4277,-3.4427,-3.4532,-3.4876,-3.516,-3.544,-3.5738,-3.6761,-3.7663,-3.8495,-3.9148,-3.9272,-3.9288,-3.9288,-3.9288,-3.9288,-2.0684,-2.0867,-2.0874,-2.0874,-2.0918,-2.1108,-2.138,-2.1879,-2.3293,-2.4571,-2.5568,-2.6366,-2.6553,-2.626,-2.6133,-2.6074,-2.5742,-2.5732,-2.5732,-2.5703,-2.5547,-2.5352,-2.5107,-2.4756,-2.4297,-2.3848,-2.3594,-2.3369,-2.3154,-2.3144,-2.3144,-2.3144,-2.3144,-2.3232,-2.3503,-2.3754,-2.411,-2.4196,-2.4282,-2.4454,-2.4454,-2.455,-2.455,-2.4615,-2.4861,-2.5432,-2.6246,-2.7069,-2.7959,-2.8803,-2.9378,-2.9779,-2.9792,-2.9546,-2.9546,-2.9624,-2.9779,-2.9779,-2.9779,-2.9779,-2.9779,-2.9779,-2.9779,-2.9779,-2.9779,-2.9779,-2.9779,-2.9779,-2.9779,-2.9779,-2.9779,-2.9779,-2.9779,-2.9779,-2.9998,-3.0722,-3.1496,-3.1906,-3.2234,-3.2887,-3.3064,-3.2902,-3.2703,-3.2717,-3.2753,-3.2744,-3.2687,-3.2914,-3.3125,-3.308,-3.2976,-3.2557,-3.2347,-3.2452,-3.2422,-3.2243,-3.2736,-3.3619,-3.3769,-3.3754,-3.3918,-3.3993,-3.4472,-3.5,-3.5535,-3.6229,-3.7446,-3.8383,-3.8969,-3.9218,-3.9272,-3.9288,-3.9288,-3.9272,-3.9272,-2.0223,-2.0237,-2.0245,-2.0274,-2.0362,-2.0845,-2.1474,-2.2402,-2.3111,-2.3939,-2.4776,-2.5815,-2.6063,-2.5732,-2.5762,-2.5762,-2.5752,-2.5732,-2.5732,-2.5605,-2.5371,-2.5156,-2.4766,-2.4287,-2.3926,-2.3662,-2.3428,-2.3252,-2.3144,-2.3144,-2.3144,-2.3144,-2.3242,-2.3232,-2.3319,-2.3406,-2.3764,-2.3937,-2.4196,-2.4444,-2.47,-2.454,-2.4625,-2.4861,-2.5337,-2.5997,-2.6894,-2.781,-2.8712,-2.9378,-2.9779,-2.9779,-2.9534,-2.904,-2.9287,-2.9546,-2.9779,-2.9779,-2.9779,-2.9779,-2.9779,-2.9779,-2.9779,-2.9779,-2.9779,-2.9779,-2.9779,-2.9779,-2.9779,-2.9779,-2.9779,-2.9779,-2.9779,-2.9779,-2.9779,-3.0581,-3.1522,-3.1938,-3.211,-3.2378,-3.2413,-3.2271,-3.2082,-3.2065,-3.1999,-3.1928,-3.1974,-3.2124,-3.2318,-3.2467,-3.2317,-3.2033,-3.1913,-3.2078,-3.2078,-3.2213,-3.2647,-3.3529,-3.308,-3.3006,-3.32,-3.3469,-3.3754,-3.4405,-3.5614,-3.6656,-3.7762,-3.8537,-3.9164,-3.9288,-3.9272,-3.9288,-3.9288,-3.9272,-3.9272,-2.0033,-2.023,-2.0237,-2.0237,-2.023,-2.0201,-2.0456,-2.0959,-2.1711,-2.2624,-2.3572,-2.44,-2.5252,-2.5635,-2.5732,-2.5732,-2.5732,-2.5732,-2.5732,-2.5547,-2.5205,-2.4902,-2.4502,-2.4033,-2.3652,-2.3398,-2.3213,-2.3144,-2.3144,-2.3144,-2.3144,-2.3144,-2.3232,-2.3144,-2.3144,-2.3154,-2.3406,-2.3667,-2.3937,-2.4605,-2.485,-2.4775,-2.4946,-2.5432,-2.5663,-2.64,-2.7232,-2.8131,-2.8961,-2.9624,-2.9779,-2.9779,-2.9702,-2.9534,-2.9702,-2.9702,-2.9779,-2.9779,-2.9779,-2.9779,-2.9779,-2.9779,-2.9779,-2.9779,-2.9779,-2.9779,-2.9779,-2.9779,-2.9779,-2.9779,-2.9779,-2.9779,-2.9779,-2.9779,-2.9858,-3.0374,-3.1194,-3.1486,-3.1623,-3.1697,-3.1729,-3.154,-3.1442,-3.1387,-3.132,-3.1219,-3.1264,-3.1456,-3.1662,-3.184,-3.1855,-3.1586,-3.1676,-3.1973,-3.2392,-3.2602,-3.2931,-3.323,-3.2736,-3.2482,-3.2871,-3.3095,-3.3125,-3.4031,-3.5701,-3.6905,-3.7948,-3.8636,-3.9255,-3.9325,-3.9309,-3.9272,-3.9272,-3.9189,-3.9023,-1.9689,-1.9842,-1.9857,-1.9857,-1.982,-1.9659,-1.9696,-2.0119,-2.1194,-2.2228,-2.2911,-2.4207,-2.5118,-2.5635,-2.5732,-2.5732,-2.5732,-2.5723,-2.5644,-2.5322,-2.5019,-2.458,-2.415,-2.3769,-2.3428,-2.3203,-2.3144,-2.3144,-2.3144,-2.3144,-2.3144,-2.3144,-2.3144,-2.3144,-2.3144,-2.3144,-2.3242,-2.3406,-2.3841,-2.4754,-2.5094,-2.5009,-2.5263,-2.608,-2.6329,-2.6823,-2.7557,-2.8462,-2.9209,-2.9714,-2.9779,-2.9779,-2.9779,-2.9779,-2.9456,-2.9456,-2.9624,-2.9702,-2.9779,-2.9779,-2.9779,-2.9779,-2.9779,-2.9779,-2.9779,-2.9779,-2.9779,-2.9779,-2.9779,-2.9779,-2.9779,-2.9779,-2.9779,-2.9779,-3.0049,-3.0303,-3.0623,-3.0883,-3.1002,-3.1042,-3.0959,-3.0771,-3.07,-3.0762,-3.0836,-3.0939,-3.1087,-3.1264,-3.144,-3.1543,-3.1631,-3.1511,-3.1734,-3.1973,-3.2377,-3.2572,-3.2572,-3.2542,-3.2243,-3.2153,-3.2542,-3.3169,-3.3584,-3.4647,-3.6048,-3.7083,-3.8018,-3.8772,-3.9272,-3.9172,-3.899,-3.8941,-3.8891,-3.8858,-3.8642,-1.9286,-1.9301,-1.9272,-1.933,-1.9279,-1.9301,-1.9308,-1.9576,-2.153,-2.2501,-2.2911,-2.4627,-2.5392,-2.5499,-2.5576,-2.5527,-2.5449,-2.541,-2.5254,-2.5,-2.458,-2.417,-2.3848,-2.3379,-2.3242,-2.3164,-2.3144,-2.3144,-2.3144,-2.3144,-2.3144,-2.3144,-2.3144,-2.3144,-2.3144,-2.3144,-2.3232,-2.357,-2.3907,-2.4573,-2.5652,-2.5579,-2.5189,-2.6835,-2.7313,-2.7637,-2.8383,-2.9131,-2.9779,-2.9779,-2.9779,-2.9779,-2.9779,-2.9779,-2.9365,-2.9209,-2.9534,-2.9702,-2.9779,-2.9779,-2.9779,-2.9779,-2.9779,-2.9779,-2.9779,-2.9779,-2.9779,-2.9779,-2.9779,-2.9779,-2.9779,-2.9578,-2.949,-2.9492,-2.9689,-2.9902,-3.0151,-3.0471,-3.0715,-3.0797,-3.0756,-3.0642,-3.0642,-3.0702,-3.0702,-3.0836,-3.0955,-3.119,-3.1234,-3.1351,-3.1467,-3.1497,-3.1884,-3.2033,-3.1869,-3.2003,-3.1854,-3.1734,-3.1616,-3.1704,-3.1988,-3.2947,-3.412,-3.4936,-3.5694,-3.7026,-3.8002,-3.8441,-3.8593,-3.8609,-3.8477,-3.8493,-3.8444,-3.8295,-3.8129,-1.9272,-1.9272,-1.9272,-1.9272,-1.9272,-1.9272,-1.9272,-1.9472,-2.1591,-2.2475,-2.2785,-2.3854,-2.4821,-2.5303,-2.5234,-2.5117,-2.4863,-2.4922,-2.4697,-2.4492,-2.416,-2.3935,-2.3721,-2.333,-2.3164,-2.3144,-2.3144,-2.3144,-2.3144,-2.3144,-2.3144,-2.3144,-2.3144,-2.3144,-2.3144,-2.3135,-2.3309,-2.3907,-2.4327,-2.4893,-2.5964,-2.6554,-2.6823,-2.7649,-2.8051,-2.8223,-2.8803,-2.9287,-2.9702,-2.9779,-2.9779,-2.9779,-2.9779,-2.9779,-2.9702,-2.9611,-2.9611,-2.9779,-2.9779,-2.9779,-2.9779,-2.9779,-2.9779,-2.9779,-2.9779,-2.9779,-2.9779,-2.9779,-2.9779,-2.9779,-2.9691,-2.9428,-2.924,-2.93,-2.9336,-2.957,-2.9862,-3.021,-3.0542,-3.0548,-3.0597,-3.0642,-3.0642,-3.0642,-3.0642,-3.0762,-3.0955,-3.1132,-3.119,-3.1292,-3.1409,-3.1571,-3.2108,-3.2183,-3.1854,-3.1689,-3.1674,-3.1614,-3.1526,-3.1497,-3.1524,-3.268,-3.3896,-3.4345,-3.5121,-3.6462,-3.7296,-3.7316,-3.7466,-3.7798,-3.7731,-3.7665,-3.745,-3.7284,-3.7235,-1.9272,-1.9272,-1.9272,-1.9272,-1.9376,-1.9783,-1.9907,-2.0092,-2.2013,-2.2784,-2.2841,-2.3916,-2.4775,-2.5,-2.4873,-2.4678,-2.4404,-2.4434,-2.4316,-2.4102,-2.3906,-2.3691,-2.3457,-2.3271,-2.3193,-2.3144,-2.3144,-2.3144,-2.3144,-2.3144,-2.3144,-2.3144,-2.3144,-2.3144,-2.3144,-2.3135,-2.356,-2.4413,-2.4734,-2.5557,-2.6356,-2.6789,-2.7557,-2.8291,-2.8712,-2.8779,-2.9131,-2.9624,-2.9702,-2.9779,-2.9779,-2.9779,-2.9779,-2.9779,-2.9779,-2.9779,-2.9779,-2.9779,-2.9779,-2.9779,-2.9779,-2.9779,-2.9779,-2.9779,-2.9779,-2.9779,-2.9779,-2.9779,-2.9779,-2.9779,-2.9628,-2.939,-2.9428,-2.9558,-2.9442,-2.9578,-2.9989,-3.044,-3.0594,-3.0626,-3.0642,-3.0642,-3.0642,-3.0642,-3.0642,-3.0642,-3.0836,-3.0955,-3.1014,-3.1176,-3.1307,-3.1483,-3.1945,-3.2063,-3.1704,-3.1644,-3.1719,-3.1629,-3.1524,-3.1951,-3.2272,-3.2819,-3.355,-3.4438,-3.5233,-3.5925,-3.6505,-3.6588,-3.6936,-3.7367,-3.7102,-3.6754,-3.6555,-3.6406,-3.6588,-1.9272,-1.9272,-1.9272,-1.9242,-1.942,-2.031,-2.0514,-2.0584,-2.2408,-2.3187,-2.2939,-2.4212,-2.4808,-2.4766,-2.4541,-2.4375,-2.4209,-2.4043,-2.3906,-2.3779,-2.3682,-2.3477,-2.3301,-2.3154,-2.3144,-2.3144,-2.3144,-2.3144,-2.3144,-2.3144,-2.3144,-2.3144,-2.3144,-2.3144,-2.3135,-2.3212,-2.3541,-2.4395,-2.5041,-2.6086,-2.6591,-2.6896,-2.7897,-2.8657,-2.9032,-2.8942,-2.9422,-2.9666,-2.9666,-2.9553,-2.9453,-2.9352,-2.944,-2.9453,-2.9566,-2.9566,-2.9729,-2.9754,-2.9779,-2.9779,-2.9779,-2.9779,-2.9779,-2.9741,-2.9716,-2.9641,-2.9628,-2.9528,-2.9528,-2.9515,-2.9365,-2.929,-2.9394,-2.9595,-2.9523,-2.9628,-3.012,-3.0597,-3.0597,-3.0642,-3.0642,-3.0642,-3.0642,-3.0642,-3.0642,-3.0642,-3.0642,-3.0702,-3.0821,-3.1014,-3.119,-3.1292,-3.1573,-3.1528,-3.1467,-3.1584,-3.1674,-3.1672,-3.1739,-3.2367,-3.2949,-3.3403,-3.4078,-3.507,-3.5778,-3.5828,-3.6059,-3.6241,-3.6589,-3.6738,-3.6357,-3.5959,-3.6025,-3.5958,-3.61,-1.9272,-1.9272,-1.9272,-1.9125,-1.911,-1.9969,-2.0166,-2.0207,-2.2065,-2.2844,-2.3065,-2.3509,-2.404,-2.4043,-2.3975,-2.3818,-2.3594,-2.3535,-2.3428,-2.3271,-2.335,-2.3242,-2.3164,-2.3144,-2.3144,-2.3144,-2.3144,-2.3144,-2.3144,-2.3144,-2.3144,-2.3144,-2.3144,-2.3135,-2.3038,-2.3163,-2.3411,-2.4188,-2.512,-2.6106,-2.6815,-2.7176,-2.7825,-2.8236,-2.839,-2.8556,-2.8797,-2.8861,-2.8937,-2.8888,-2.8762,-2.8624,-2.8699,-2.8938,-2.9089,-2.9315,-2.949,-2.9704,-2.9741,-2.9779,-2.9779,-2.9654,-2.9591,-2.9453,-2.9327,-2.9076,-2.8938,-2.8599,-2.8612,-2.8737,-2.8635,-2.8626,-2.8703,-2.9103,-2.9154,-2.982,-3.0384,-3.0522,-3.0582,-3.0642,-3.0642,-3.0642,-3.0642,-3.0642,-3.0642,-3.0642,-3.0702,-3.0762,-3.0762,-3.0955,-3.1073,-3.1234,-3.1336,-3.1409,-3.1467,-3.1467,-3.1569,-3.1655,-3.2023,-3.2819,-3.3403,-3.3832,-3.4545,-3.5168,-3.5263,-3.523,-3.5462,-3.5777,-3.5611,-3.5644,-3.5379,-3.5164,-3.533,-3.5573,-3.5807]}]]